[[{"header":{"parameterUnit":"m.s-1","parameterCategory":1,"la1":31.0,"la2":29.5877,"lo1":-88.7671,"lo2":-86.6584,"dx":0.0162,"dy":0.0185,"nx":115,"ny":88,"refTime":"2022-12-17T18:00:00:Z","depth":0,"parameterNumber":2,"parameterNumberName":"U-component_of_WINDS"},"data":[0.0,0.0,0.0,0.0,0.0,0.0,0.0,0.0,0.0,0.0,0.0,0.0,0.0,0.0,0.0,0.0,0.0,0.0,0.0,0.0,0.0,0.0,0.0,0.0,0.0,0.0,0.0,0.0,0.0,0.0,0.0,0.0,0.0,0.0,0.0,0.0,0.0,0.0,0.0,0.0,0.0,0.0,0.0,0.0,0.0,0.0,0.0,0.0,0.0,0.0,0.0,0.0,0.0,0.0,0.0,0.0,0.0,0.0,0.0,0.0,0.0,0.0,0.0,0.0,0.0,0.0,0.0,0.0,0.0,0.0,0.0,0.0,0.0,0.0,0.0,0.0,0.0,0.0,0.0,0.0,0.0,0.0,0.0,0.0,0.0,0.0,0.0,0.0,0.0,0.0,0.0,0.0,0.0,0.0,0.0,0.0,0.0,0.0,0.0,0.0,0.0,0.0,0.0,0.0,0.0,0.0,0.0,0.0,0.0,0.0,0.0,0.0,0.0,0.0,0.0,0.0,0.0,0.0,0.0,0.0,0.0,0.0,0.0,0.0,0.0,0.0,0.0,0.0,0.0,0.0,0.0,0.0,0.0,0.0,0.0,0.0,0.0,0.0,0.0,0.0,0.0,0.0,0.0,0.0,0.0,0.0,0.0,0.0,0.0,0.0,0.0,0.0,0.0,0.0,0.0,0.0,0.0,0.0,0.0,0.0,0.0,0.0,0.0,0.0,0.0,0.0,0.0,0.0,0.0,0.0,0.0,0.0,0.0,0.0,0.0,0.0,0.0,0.0,0.0,0.0,0.0,0.0,0.0,0.0,0.0,0.0,0.0,0.0,0.0,0.0,0.0,0.0,0.0,0.0,0.0,0.0,0.0,0.0,0.0,0.0,0.0,0.0,0.0,0.0,0.0,0.0,0.0,0.0,0.0,0.0,0.0,0.0,0.0,0.0,0.0,0.0,0.0,0.0,0.0,0.0,0.0,0.0,0.0,0.0,0.0,0.0,0.0,0.0,0.0,0.0,0.0,0.0,0.0,0.0,0.0,0.0,0.0,0.0,0.0,0.0,0.0,0.0,0.0,0.0,0.0,0.0,0.0,0.0,0.0,0.0,0.0,0.0,0.0,0.0,0.0,0.0,0.0,0.0,0.0,0.0,0.0,0.0,0.0,0.0,0.0,0.0,0.0,0.0,0.0,0.0,0.0,0.0,0.0,0.0,0.0,0.0,0.0,0.0,0.0,0.0,0.0,0.0,0.0,0.0,0.0,0.0,0.0,0.0,0.0,0.0,0.0,0.0,0.0,0.0,0.0,0.0,0.0,0.0,0.0,0.0,0.0,0.0,0.0,0.0,0.0,0.0,0.0,0.0,0.0,0.0,0.0,0.0,0.0,0.0,0.0,0.0,0.0,0.0,0.0,0.0,0.0,0.0,0.0,0.0,0.0,0.0,0.0,0.0,0.0,0.0,0.0,0.0,0.0,0.0,0.0,0.0,0.0,0.0,0.0,0.0,0.0,0.0,0.0,0.0,0.0,0.0,0.0,0.0,0.0,0.0,0.0,0.0,0.0,0.0,0.0,0.0,0.0,0.0,0.0,0.0,0.0,0.0,0.0,0.0,0.0,0.0,0.0,0.0,0.0,0.0,0.0,0.0,0.0,0.0,0.0,0.0,0.0,0.0,0.0,0.0,0.0,0.0,0.0,0.0,0.0,0.0,0.0,0.0,0.0,0.0,0.0,0.0,0.0,0.0,0.0,0.0,0.0,0.0,0.0,0.0,0.0,0.0,0.0,0.0,0.0,0.0,0.0,0.0,0.0,0.0,0.0,0.0,0.0,0.0,0.0,0.0,0.0,0.0,0.0,0.0,0.0,0.0,0.0,0.0,0.0,0.0,0.0,0.0,0.0,0.0,0.0,0.0,0.0,0.0,0.0,0.0,0.0,0.0,0.0,0.0,0.0,0.0,0.0,0.0,0.0,0.0,0.0,0.0,0.0,0.0,0.0,0.0,0.0,0.0,0.0,0.0,0.0,0.0,0.0,0.0,0.0,0.0,0.0,0.0,0.0,0.0,0.0,0.0,0.0,0.0,0.0,0.0,0.0,0.0,0.0,0.0,0.0,0.0,0.0,0.0,0.0,0.0,0.0,0.0,0.0,0.0,0.0,0.0,0.0,0.0,0.0,0.0,0.0,0.0,0.0,0.0,0.0,0.0,0.0,0.0,0.0,0.0,0.0,0.0,0.0,0.0,0.0,0.0,0.0,0.0,0.0,0.0,0.0,0.0,0.0,0.0,0.0,0.0,0.0,0.0,0.0,0.0,0.0,0.0,0.0,0.0,0.0,0.0,0.0,0.0,0.0,0.0,0.0,0.0,0.0,0.0,0.0,0.0,0.0,0.0,0.0,0.0,0.0,0.0,0.0,0.0,0.0,0.0,0.0,0.0,0.0,0.0,0.0,0.0,0.0,0.0,0.0,0.0,0.0,0.0,0.0,0.0,0.0,0.0,0.0,0.0,0.0,0.0,0.0,0.0,0.0,0.0,0.0,0.0,0.0,0.0,0.0,0.0,0.0,0.0,0.0,0.0,0.0,0.0,0.0,0.0,0.0,0.0,0.0,0.0,0.0,0.0,0.0,0.0,0.0,0.0,0.0,0.0,0.0,0.0,0.0,0.0,0.0,0.0,0.0,0.0,0.0,0.0,0.0,0.0,0.0,0.0,0.0,0.0,0.0,0.0,0.0,0.0,0.0,0.0,0.0,0.0,0.0,0.0,0.0,0.0,0.0,0.0,0.0,0.0,0.0,0.0,0.0,0.0,0.0,0.0,0.0,0.0,0.0,0.0,0.0,0.0,0.0,0.0,0.0,0.0,0.0,0.0,0.0,0.0,0.0,0.0,0.0,0.0,0.0,0.0,0.0,0.0,0.0,0.0,0.0,0.0,0.0,0.0,0.0,0.0,0.0,0.0,0.0,0.0,0.0,0.0,0.0,0.0,0.0,0.0,0.0,0.0,0.0,0.0,0.0,0.0,0.0,0.0,0.0,0.0,0.0,0.0,0.0,0.0,0.0,0.0,0.0,0.0,0.0,0.0,0.0,0.0,0.0,0.0,0.0,0.0,0.0,0.0,0.0,0.0,0.0,0.0,0.0,0.0,0.0,0.0,0.0,0.0,0.0,0.0,0.0,0.0,0.0,0.0,0.0,0.0,0.0,0.0,0.0,0.0,0.0,0.0,0.0,0.0,0.0,0.0,0.0,0.0,0.0,0.0,0.0,0.0,0.0,0.0,0.0,0.0,0.0,0.0,0.0,0.0,0.0,0.0,0.0,0.0,0.0,0.0,0.0,0.0,0.0,0.0,0.0,0.0,0.0,0.0,0.0,0.0,0.0,0.0,0.0,0.0,0.0,0.0,0.0,0.0,0.0,0.0,0.0,0.0,0.0,0.0,0.0,0.0,0.0,0.0,0.0,0.0,0.0,0.0,0.0,0.0,0.0,0.0,0.0,0.0,0.0,0.0,0.0,0.0,0.0,0.0,0.0,0.0,0.0,0.0,0.0,0.0,0.0,0.0,0.0,0.0,0.0,0.0,0.0,0.0,0.0,0.0,0.0,0.0,0.0,0.0,0.0,0.0,0.0,0.0,0.0,0.0,0.0,0.0,0.0,0.0,0.0,0.0,0.0,0.0,0.0,0.0,0.0,0.0,0.0,0.0,0.0,0.0,0.0,0.0,0.0,0.0,0.0,0.0,0.0,0.0,0.0,0.0,0.0,0.0,0.0,0.0,0.0,0.0,0.0,0.0,0.0,0.0,0.0,0.0,0.0,0.0,0.0,0.0,0.0,0.0,0.0,0.0,0.0,0.0,0.0,0.0,0.0,0.0,0.0,0.0,0.0,0.0,0.0,0.0,0.0,0.0,0.0,0.0,0.0,0.0,0.0,0.0,0.0,0.0,0.0,0.0,0.0,0.0,0.0,0.0,0.0,0.0,0.0,0.0,0.0,0.0,0.0,0.0,0.0,0.0,0.0,0.0,0.0,0.0,0.0,0.0,0.0,0.0,0.0,0.0,0.0,0.0,0.0,0.0,0.0,0.0,0.0,0.0,0.0,0.0,0.0,0.0,0.0,0.0,0.0,0.0,0.0,0.0,0.0,0.0,0.0,0.0,0.0,0.0,0.0,0.0,0.0,0.0,0.0,0.0,0.0,0.0,0.0,0.0,0.0,0.0,0.0,0.0,0.0,0.0,0.0,0.0,0.0,0.0,0.0,0.0,1.0072,0.0,0.0,0.0,1.0572,0.0,0.0,0.0,0.0,0.0,0.0,0.0,0.0,0.0,0.0,0.0,0.0,0.0,0.0,0.0,0.0,0.0,0.0,0.0,0.0,0.0,0.0,0.0,0.0,0.0,0.0,0.0,0.0,0.0,0.0,0.0,0.0,0.0,0.0,0.0,0.0,0.0,0.0,0.0,0.0,0.0,0.0,0.0,0.0,0.0,0.0,0.0,0.0,0.0,0.0,0.0,0.0,0.0,0.0,0.0,0.0,0.0,0.0,0.0,0.0,0.0,0.0,0.0,0.0,0.0,0.0,0.0,0.0,0.0,0.0,0.0,0.0,0.0,0.0,0.0,0.0,0.0,0.0,0.0,0.0,0.0,0.0,0.0,0.0,0.0,0.0,0.0,0.0,0.0,0.0,0.0,0.0,0.0,0.0,0.0,0.0,0.0,0.0,0.0,0.0,0.0,0.0,0.0,0.0,0.0,0.0,0.0,0.0,0.0,0.0,1.0521,1.0743,1.0815,1.0934,1.1048,0.0,0.0,0.0,0.0,0.0,0.0,0.0,0.0,0.0,0.0,0.0,0.0,0.0,0.0,0.0,0.0,0.0,0.0,0.0,0.0,0.0,0.0,0.0,0.0,0.0,0.0,0.0,0.0,0.0,0.0,0.0,0.0,0.0,0.0,0.0,0.0,0.0,0.0,0.0,0.0,0.0,0.0,0.0,0.0,0.0,0.0,0.0,0.0,0.0,0.0,0.0,0.0,0.0,0.0,0.0,0.0,0.0,0.0,0.0,0.0,0.0,0.0,0.0,0.0,0.0,0.0,0.0,0.0,0.0,0.0,0.0,0.0,0.0,0.0,0.0,0.0,0.0,0.0,0.0,0.0,0.0,0.0,0.0,0.0,0.0,0.0,0.0,0.0,0.0,0.0,0.0,0.0,0.0,0.0,0.0,0.0,0.0,0.0,0.0,0.0,0.0,0.0,0.0,0.0,0.0,0.0,0.0,0.0,0.0,0.0,0.0,0.0,1.1438,1.1474,1.1489,0.0,0.0,0.0,0.0,0.0,0.0,0.0,0.0,0.0,0.0,0.0,0.0,0.0,0.0,0.0,0.0,0.0,0.0,0.0,0.0,0.0,0.0,0.0,0.0,0.0,0.0,0.0,0.0,0.0,0.0,0.0,0.0,0.0,0.0,0.0,0.0,0.0,0.0,0.0,0.0,0.0,0.0,0.0,0.0,0.0,0.0,0.0,0.0,0.0,0.0,0.0,0.0,0.0,0.0,0.0,0.0,0.0,0.0,0.0,0.0,0.0,0.0,0.0,0.0,0.0,0.0,0.0,0.0,0.0,0.0,0.0,0.0,0.0,0.0,0.0,0.0,0.0,0.0,0.0,0.0,0.0,0.0,0.0,0.0,0.0,0.0,0.0,0.0,0.0,0.0,0.0,0.0,0.0,0.0,0.0,0.0,0.0,0.0,0.0,0.0,0.0,0.0,0.0,0.0,0.0,0.0,0.0,0.0,0.0,0.0,1.2211,1.2386,1.2428,0.0,1.1806,0.0,0.0,0.0,0.0,0.0,0.0,0.0,0.0,0.0,0.0,0.0,0.0,0.0,0.0,0.0,0.0,0.0,0.0,0.0,0.0,0.0,0.0,0.0,0.0,0.0,0.0,0.0,0.0,0.0,0.0,0.0,0.0,0.0,0.0,0.0,0.0,0.0,0.0,0.0,0.0,0.0,0.0,0.0,0.0,0.0,0.0,0.0,0.0,0.0,0.0,0.0,0.0,0.0,0.0,0.0,0.0,0.0,0.0,0.0,0.0,0.0,0.0,0.0,0.0,0.0,0.0,0.0,0.0,0.0,0.0,0.0,0.0,0.0,0.0,0.0,0.0,0.0,0.0,0.0,0.0,0.0,0.0,0.0,0.0,0.0,0.0,0.0,0.0,0.0,0.0,0.0,0.0,0.0,0.0,0.0,0.0,0.0,0.0,0.0,0.0,0.0,0.0,0.0,0.0,0.0,0.0,0.0,0.0,0.0,0.0,1.3123,1.3277,1.3034,1.2818,0.0,0.0,0.0,0.0,0.0,0.0,0.0,0.0,0.0,0.0,0.0,0.0,0.0,0.0,0.0,0.0,0.0,0.0,0.0,0.0,0.0,0.0,0.0,0.0,0.0,0.0,0.0,0.0,0.0,0.0,0.0,0.0,0.0,0.0,0.0,0.0,0.0,0.0,0.0,0.0,0.0,0.0,0.0,0.0,0.0,0.0,0.0,0.0,0.0,0.0,0.0,0.0,0.0,0.0,0.0,0.0,0.0,0.0,0.0,0.0,0.0,0.0,0.0,0.0,0.0,0.0,0.0,0.0,0.0,0.0,0.0,0.0,0.0,0.0,0.0,0.0,0.0,0.0,0.0,0.0,0.0,0.0,0.0,0.0,0.0,0.0,0.0,0.0,0.0,0.0,0.0,0.0,0.0,0.0,0.0,0.0,0.0,0.0,0.0,0.0,0.0,0.0,0.0,0.0,0.0,0.0,0.0,0.0,0.0,0.0,1.3549,1.4085,1.4207,1.3927,1.3636,1.3374,0.0,0.0,0.0,0.0,0.0,0.0,0.0,0.0,0.0,0.0,0.0,0.0,0.0,0.0,0.0,0.0,0.0,0.0,0.0,0.0,0.0,0.0,0.0,0.0,0.0,0.0,0.0,0.0,0.0,0.0,0.0,0.0,0.0,0.0,0.0,0.0,0.0,0.0,0.0,0.0,0.0,0.0,0.0,0.0,0.0,0.0,0.0,0.0,0.0,0.0,0.0,0.0,0.0,0.0,0.0,0.0,0.0,0.0,0.0,0.0,0.0,0.0,0.0,0.0,0.0,0.0,0.0,0.0,0.0,0.0,0.0,0.0,0.0,0.0,0.0,0.0,0.0,0.0,0.0,0.0,0.0,0.0,0.0,0.0,0.0,0.0,0.0,0.0,0.0,0.0,0.0,0.0,0.0,0.0,0.0,0.0,0.0,0.0,0.0,0.0,0.0,0.0,0.0,0.0,0.0,0.0,0.0,0.0,1.3629,1.4524,1.5067,1.5355,1.5368,1.4782,0.0,0.0,0.0,0.0,0.0,0.0,0.0,0.0,0.0,0.0,0.0,0.0,0.0,0.0,0.0,0.0,0.0,0.0,0.0,0.0,0.0,0.0,0.0,0.0,0.0,0.0,0.0,0.0,0.0,0.0,0.0,0.0,0.0,0.0,0.0,0.0,0.0,0.0,0.0,0.0,0.0,0.0,0.0,0.0,0.0,0.0,0.0,0.0,0.0,0.0,0.0,0.0,0.0,0.0,0.0,0.0,0.0,0.0,0.0,0.0,0.0,0.0,0.0,0.0,0.0,0.0,0.0,0.0,0.0,0.0,0.0,0.0,0.0,0.0,0.0,0.0,0.0,0.0,0.0,0.0,0.0,0.0,0.0,0.0,0.0,0.0,0.0,0.0,0.0,0.0,0.0,0.0,0.0,0.0,0.0,0.0,0.0,0.0,0.0,0.0,0.0,0.0,0.0,0.0,0.0,0.0,0.0,0.0,0.0,1.458,1.5887,1.6749,1.6987,1.66,1.5982,0.0,0.0,0.0,0.0,0.0,0.0,0.0,0.0,0.0,0.0,0.0,0.0,0.0,0.0,0.0,0.0,0.0,0.0,0.0,0.0,0.0,0.0,0.0,0.0,0.0,0.0,0.0,0.0,0.0,0.0,0.0,0.0,0.0,0.0,0.0,0.0,0.0,0.0,0.0,0.0,0.0,0.0,0.0,0.0,0.0,0.0,0.0,0.0,0.0,0.0,0.0,0.0,0.0,0.0,0.0,0.0,0.0,0.0,0.0,0.0,0.0,0.0,0.0,0.0,0.0,0.0,0.0,0.0,0.0,0.0,0.0,0.0,0.0,0.0,0.0,0.0,0.0,0.0,0.0,0.0,0.0,0.0,0.0,0.0,0.0,0.0,0.0,0.0,0.0,0.0,0.0,0.0,0.0,0.0,0.0,0.0,0.0,0.0,0.0,0.0,0.0,0.0,0.0,0.0,0.0,0.0,0.0,0.0,0.0,1.6611,1.7741,1.8445,1.8727,1.8335,1.7552,0.0,0.0,0.0,0.0,0.0,0.0,0.0,0.0,0.0,0.0,0.0,0.0,0.0,0.0,0.0,0.0,0.0,0.0,0.0,0.0,0.0,0.0,0.0,0.0,0.0,0.0,0.0,0.0,0.0,0.0,0.0,0.0,0.0,0.0,0.0,0.0,0.0,0.0,0.0,0.0,0.0,0.0,0.0,0.0,0.0,0.0,0.0,0.0,0.0,0.0,0.0,0.0,0.0,0.0,0.0,0.0,0.0,0.0,0.0,0.0,0.0,0.0,0.0,0.0,0.0,0.0,0.0,0.0,0.0,0.0,0.0,0.0,0.0,0.0,0.0,0.0,0.0,0.0,0.0,0.0,0.0,0.0,0.0,0.0,0.0,0.0,0.0,0.0,0.0,0.0,0.0,0.0,0.0,0.0,0.0,0.0,0.0,0.0,0.0,0.0,0.0,0.0,0.0,0.0,0.0,0.0,0.0,0.0,1.7647,1.9874,2.0061,2.0305,2.0566,2.0533,1.9542,0.0,0.0,0.0,0.0,0.0,0.0,0.0,0.0,0.0,0.0,0.0,0.0,0.0,0.0,0.0,0.0,0.0,0.0,0.0,0.0,0.0,0.0,0.0,0.0,0.0,0.0,0.0,0.0,0.0,0.0,0.0,0.0,0.0,0.0,0.0,0.0,0.0,0.0,0.0,0.0,0.0,0.0,0.0,0.0,0.0,0.0,0.0,0.0,0.0,0.0,0.0,0.0,0.0,0.0,0.0,0.0,0.0,0.0,0.0,0.0,0.0,0.0,0.0,0.0,0.0,0.0,0.0,0.0,0.0,0.0,0.0,0.0,0.0,0.0,0.0,0.0,0.0,0.0,0.0,0.0,0.0,0.0,0.0,0.0,0.0,0.0,0.0,0.0,0.0,0.0,0.0,0.0,0.0,0.0,0.0,0.0,0.0,0.0,0.0,0.0,0.0,0.0,0.0,0.0,0.0,0.0,0.0,0.0,0.0,2.1793,2.2441,2.3124,2.3811,2.2906,2.163,0.0,0.0,0.0,0.0,0.0,0.0,0.0,0.0,0.0,0.0,0.0,0.0,0.0,0.0,0.0,0.0,0.0,0.0,0.0,0.0,0.0,0.0,0.0,0.0,0.0,0.0,0.0,0.0,0.0,0.0,0.0,0.0,0.0,0.0,0.0,0.0,0.0,0.0,0.0,0.0,0.0,0.0,0.0,0.0,0.0,0.0,0.0,0.0,0.0,0.0,0.0,0.0,0.0,0.0,0.0,0.0,0.0,0.0,0.0,0.0,0.0,0.0,0.0,0.0,0.0,0.0,0.0,0.0,0.0,0.0,0.0,0.0,0.0,0.0,0.0,0.0,0.0,0.0,0.0,0.0,0.0,0.0,0.0,0.0,0.0,0.0,0.0,0.0,0.0,0.0,0.0,0.0,0.0,0.0,0.0,0.0,0.0,0.0,0.0,0.0,0.0,0.0,0.0,0.0,0.0,0.0,0.0,0.0,0.0,2.642,2.7299,2.7842,2.8081,2.7432,2.5644,2.2569,0.0,0.0,0.0,0.0,0.0,0.0,0.0,0.0,0.0,0.0,0.0,0.0,0.0,0.0,0.0,0.0,0.0,0.0,0.0,0.0,0.0,0.0,0.0,0.0,0.0,0.0,0.0,0.0,0.0,0.0,0.0,0.0,0.0,0.0,0.0,0.0,0.0,0.0,0.0,0.0,0.0,0.0,0.0,0.0,0.0,0.0,0.0,0.0,0.0,0.0,0.0,0.0,0.0,0.0,0.0,0.0,0.0,0.0,0.0,0.0,0.0,0.0,0.0,0.0,0.0,0.0,0.0,0.0,0.0,0.0,0.0,0.0,0.0,0.0,0.0,0.0,0.0,0.0,0.0,0.0,0.0,0.0,0.0,0.0,0.0,0.0,0.0,0.0,0.0,0.0,0.0,0.0,0.0,0.0,0.0,0.0,0.0,0.0,0.0,0.0,0.0,0.0,0.0,0.0,0.0,0.0,0.0,0.0,3.3152,3.4306,3.4337,3.3098,3.3384,3.1072,0.0,0.0,0.0,0.0,0.0,0.0,0.0,0.0,0.0,0.0,0.0,0.0,0.0,0.0,0.0,0.0,0.0,0.0,0.0,0.0,0.0,0.0,0.0,0.0,0.0,0.0,0.0,0.0,0.0,0.0,0.0,0.0,0.0,0.0,0.0,0.0,0.0,0.0,0.0,0.0,0.0,0.0,0.0,0.0,0.0,0.0,0.0,0.0,0.0,0.0,0.0,0.0,0.0,0.0,0.0,0.0,0.0,0.0,0.0,0.0,0.0,0.0,0.0,0.0,0.0,0.0,0.0,0.0,0.0,0.0,0.0,0.0,0.0,0.0,0.0,0.0,0.0,0.0,0.0,0.0,0.0,0.0,0.0,0.0,0.0,0.0,0.0,0.0,0.0,0.0,0.0,0.0,0.0,0.0,0.0,0.0,0.0,0.0,0.0,0.0,0.0,0.0,0.0,0.0,0.0,0.0,0.0,0.0,0.0,3.7983,4.2079,4.2518,3.8982,3.6753,3.402,0.0,0.0,0.0,0.0,0.0,0.0,0.0,0.0,0.0,0.0,0.0,0.0,0.0,0.0,0.0,0.0,0.0,0.0,0.0,0.0,0.0,0.0,0.0,0.0,0.0,0.0,0.0,0.0,0.0,0.0,0.0,0.0,0.0,0.0,0.0,0.0,0.0,0.0,0.0,0.0,0.0,0.0,0.0,0.0,0.0,0.0,0.0,0.0,0.0,0.0,0.0,0.0,0.0,0.0,0.0,0.0,0.0,0.0,0.0,0.0,0.0,0.0,0.0,0.0,0.0,0.0,0.0,0.0,0.0,0.0,0.0,0.0,0.0,0.0,0.0,0.0,0.0,0.0,0.0,0.0,0.0,0.0,0.0,0.0,0.0,0.0,0.0,0.0,0.0,0.0,0.0,0.0,0.0,0.0,0.0,0.0,0.0,0.0,0.0,0.0,0.0,0.0,0.0,0.0,0.0,0.0,0.0,0.0,3.7119,4.1807,4.6621,4.7994,4.5787,4.208,3.8115,0.0,0.0,0.0,0.0,0.0,0.0,0.0,0.0,0.0,0.0,0.0,0.0,0.0,0.0,0.0,0.0,0.0,0.0,0.0,0.0,0.0,0.0,0.0,0.0,0.0,0.0,0.0,0.0,0.0,0.0,0.0,0.0,0.0,0.0,0.0,0.0,0.0,0.0,0.0,0.0,0.0,0.0,0.0,0.0,0.0,0.0,0.0,0.0,0.0,0.0,0.0,0.0,0.0,0.0,0.0,0.0,0.0,0.0,0.0,0.0,0.0,0.0,0.0,0.0,0.0,0.0,0.0,0.0,0.0,0.0,0.0,0.0,0.0,0.0,0.0,0.0,0.0,0.0,0.0,0.0,0.0,0.0,0.0,0.0,0.0,0.0,0.0,0.0,0.0,0.0,0.0,0.0,0.0,0.0,0.0,0.0,0.0,0.0,0.0,0.0,0.0,0.0,0.0,0.0,0.0,0.0,0.0,0.0,4.0193,4.5172,4.9352,5.1827,5.2471,4.8148,4.2667,0.0,0.0,0.0,0.0,0.0,0.0,0.0,0.0,0.0,0.0,0.0,0.0,0.0,0.0,0.0,0.0,0.0,0.0,0.0,0.0,0.0,0.0,0.0,0.0,0.0,0.0,0.0,0.0,0.0,0.0,0.0,0.0,0.0,0.0,0.0,0.0,0.0,0.0,0.0,0.0,0.0,0.0,0.0,0.0,0.0,0.0,0.0,0.0,0.0,0.0,0.0,0.0,0.0,0.0,0.0,0.0,0.0,0.0,0.0,0.0,0.0,0.0,0.0,0.0,0.0,0.0,0.0,0.0,0.0,0.0,0.0,0.0,0.0,0.0,0.0,0.0,0.0,0.0,0.0,0.0,0.0,0.0,0.0,0.0,0.0,0.0,0.0,0.0,0.0,0.0,0.0,0.0,0.0,0.0,0.0,0.0,0.0,0.0,0.0,0.0,0.0,0.0,0.0,0.0,0.0,0.0,0.0,0.0,4.4156,4.9764,5.3372,5.5611,5.6277,5.0664,4.5113,0.0,0.0,0.0,0.0,0.0,0.0,0.0,0.0,0.0,0.0,0.0,0.0,0.0,0.0,0.0,0.0,0.0,0.0,0.0,0.0,0.0,0.0,0.0,0.0,0.0,0.0,0.0,0.0,0.0,0.0,0.0,0.0,0.0,0.0,0.0,0.0,0.0,0.0,0.0,0.0,0.0,0.0,0.0,0.0,0.0,0.0,0.0,0.0,3.0414,0.0,0.0,0.0,0.0,0.0,0.0,0.0,0.0,0.0,0.0,0.0,0.0,0.0,0.0,0.0,0.0,0.0,0.0,0.0,0.0,0.0,0.0,0.0,0.0,0.0,0.0,0.0,0.0,0.0,0.0,0.0,0.0,0.0,0.0,0.0,0.0,0.0,0.0,0.0,0.0,0.0,0.0,0.0,0.0,0.0,0.0,0.0,0.0,0.0,0.0,0.0,0.0,0.0,0.0,0.0,0.0,0.0,0.0,0.0,4.7483,5.3105,5.5941,5.7248,5.6846,5.2639,4.75,0.0,0.0,0.0,0.0,0.0,0.0,0.0,0.0,0.0,0.0,0.0,0.0,0.0,0.0,0.0,0.0,0.0,0.0,0.0,0.0,0.0,0.0,0.0,0.0,0.0,0.0,0.0,0.0,0.0,0.0,0.0,0.0,0.0,0.0,0.0,0.0,0.0,0.0,0.0,0.0,0.0,0.0,0.0,0.0,0.0,0.0,0.0,0.0,0.0,0.0,0.0,0.0,0.0,0.0,0.0,0.0,0.0,0.0,0.0,0.0,0.0,0.0,0.0,0.0,0.0,0.0,0.0,0.0,0.0,0.0,0.0,0.0,0.0,0.0,0.0,0.0,0.0,0.0,0.0,0.0,0.0,0.0,0.0,0.0,0.0,0.0,0.0,0.0,0.0,0.0,0.0,0.0,0.0,0.0,0.0,0.0,0.0,0.0,0.0,0.0,0.0,0.0,0.0,0.0,0.0,0.0,0.0,4.6119,5.118,5.6558,5.8406,5.8698,5.7413,5.4578,4.9856,4.3102,0.0,0.0,0.0,0.0,0.0,0.0,0.0,0.0,0.0,0.0,0.0,0.0,0.0,0.0,0.0,0.0,0.0,0.0,0.0,0.0,0.0,0.0,0.0,0.0,0.0,0.0,0.0,0.0,0.0,0.0,0.0,0.0,0.0,0.0,0.0,0.0,0.0,0.0,2.4585,2.8648,0.0,0.0,0.0,0.0,0.0,0.0,0.0,0.0,3.6273,0.0,0.0,0.0,0.0,0.0,0.0,0.0,0.0,0.0,0.0,0.0,0.0,0.0,0.0,0.0,0.0,0.0,0.0,0.0,0.0,0.0,0.0,0.0,0.0,0.0,0.0,0.0,0.0,0.0,0.0,0.0,0.0,0.0,0.0,0.0,0.0,0.0,0.0,0.0,0.0,0.0,0.0,0.0,0.0,0.0,0.0,0.0,0.0,0.0,0.0,0.0,0.0,0.0,0.0,0.0,0.0,4.6218,5.1536,5.691,6.2252,6.2907,6.281,6.1995,5.7454,5.1815,4.519,0.0,0.0,0.0,0.0,0.0,0.0,0.0,0.0,0.0,0.0,0.0,0.0,0.0,0.0,0.0,0.0,0.0,0.0,0.0,0.0,0.0,0.0,0.0,0.0,0.0,0.0,0.0,0.0,0.0,0.0,0.0,0.0,0.0,0.0,0.0,0.0,0.0,0.0,0.0,3.2632,3.4897,0.0,0.0,0.0,0.0,0.0,0.0,0.0,0.0,3.8669,0.0,0.0,0.0,0.0,0.0,0.0,0.0,0.0,0.0,0.0,0.0,0.0,0.0,0.0,0.0,0.0,0.0,0.0,0.0,0.0,0.0,0.0,0.0,0.0,0.0,0.0,0.0,0.0,0.0,0.0,0.0,0.0,0.0,0.0,0.0,0.0,0.0,0.0,0.0,0.0,0.0,0.0,0.0,0.0,0.0,0.0,0.0,0.0,0.0,0.0,0.0,0.0,0.0,0.0,0.0,5.2931,5.9864,6.4728,6.7334,6.757,6.648,6.3917,5.8876,5.3256,0.0,0.0,0.0,0.0,0.0,0.0,0.0,0.0,0.0,0.0,0.0,0.0,0.0,0.0,0.0,0.0,0.0,0.0,0.0,0.0,0.0,0.0,0.0,0.0,0.0,0.0,0.0,0.0,0.0,0.0,0.0,0.0,0.0,0.0,0.0,0.0,0.0,0.0,0.0,0.0,3.5872,3.8259,4.1238,0.0,0.0,0.0,0.0,0.0,0.0,4.3098,4.1922,0.0,0.0,0.0,0.0,0.0,0.0,0.0,0.0,0.0,0.0,0.0,0.0,0.0,0.0,0.0,0.0,0.0,0.0,0.0,0.0,0.0,0.0,0.0,0.0,0.0,0.0,0.0,0.0,0.0,0.0,0.0,0.0,0.0,0.0,0.0,0.0,0.0,0.0,0.0,0.0,0.0,0.0,0.0,0.0,0.0,0.0,0.0,0.0,0.0,0.0,0.0,0.0,0.0,0.0,0.0,5.938,6.7384,7.1672,7.1897,7.1711,6.9702,6.5729,6.0488,5.4965,0.0,0.0,0.0,0.0,0.0,0.0,0.0,0.0,0.0,0.0,0.0,0.0,0.0,0.0,0.0,0.0,0.0,0.0,0.0,0.0,0.0,0.0,0.0,0.0,0.0,0.0,0.0,0.0,0.0,0.0,0.0,0.0,0.0,0.0,0.0,0.0,0.0,0.0,0.0,0.0,0.0,4.1421,4.4858,4.4931,0.0,0.0,0.0,0.0,4.6764,4.6361,0.0,0.0,0.0,0.0,0.0,0.0,0.0,0.0,0.0,0.0,0.0,0.0,0.0,0.0,0.0,0.0,0.0,0.0,0.0,0.0,0.0,0.0,0.0,0.0,0.0,0.0,0.0,0.0,0.0,0.0,0.0,0.0,0.0,0.0,0.0,0.0,0.0,0.0,0.0,0.0,0.0,0.0,0.0,0.0,0.0,0.0,0.0,0.0,0.0,0.0,0.0,0.0,0.0,0.0,0.0,0.0,6.3343,7.0686,7.4828,7.5666,7.4258,7.213,6.9285,6.35,5.7589,0.0,0.0,0.0,0.0,0.0,0.0,0.0,0.0,0.0,0.0,0.0,0.0,0.0,0.0,0.0,0.0,0.0,0.0,0.0,0.0,0.0,0.0,0.0,0.0,0.0,0.0,0.0,0.0,0.0,0.0,0.0,0.0,0.0,0.0,0.0,0.0,0.0,0.0,0.0,0.0,0.0,4.3356,4.7314,4.8453,4.8893,0.0,0.0,5.0141,5.0215,5.0141,0.0,0.0,0.0,0.0,0.0,0.0,0.0,0.0,0.0,0.0,0.0,0.0,0.0,0.0,0.0,0.0,0.0,0.0,0.0,0.0,0.0,0.0,0.0,0.0,0.0,0.0,0.0,0.0,0.0,0.0,0.0,0.0,0.0,0.0,0.0,0.0,0.0,0.0,0.0,0.0,0.0,0.0,0.0,0.0,0.0,0.0,0.0,0.0,0.0,0.0,0.0,0.0,0.0,0.0,0.0,6.0942,6.7957,7.6655,8.0922,8.0274,7.8522,7.6122,7.3001,6.6554,6.0547,0.0,0.0,0.0,0.0,0.0,0.0,0.0,0.0,0.0,0.0,0.0,0.0,0.0,0.0,0.0,0.0,0.0,0.0,0.0,0.0,0.0,0.0,0.0,0.0,0.0,0.0,0.0,0.0,0.0,0.0,0.0,0.0,0.0,0.0,0.0,0.0,0.0,0.0,0.0,0.0,0.0,0.0,4.9224,5.1206,0.0,0.0,0.0,5.2674,5.2234,0.0,0.0,0.0,0.0,0.0,0.0,0.0,0.0,0.0,0.0,0.0,0.0,0.0,0.0,0.0,0.0,0.0,0.0,0.0,0.0,0.0,0.0,0.0,0.0,0.0,0.0,0.0,0.0,0.0,0.0,0.0,0.0,0.0,0.0,0.0,0.0,0.0,0.0,0.0,0.0,0.0,0.0,0.0,0.0,0.0,0.0,0.0,0.0,0.0,0.0,0.0,0.0,0.0,0.0,0.0,0.0,0.0,7.1295,8.1032,8.5266,8.3665,8.2066,7.9626,7.6271,7.0185,0.0,0.0,0.0,0.0,0.0,0.0,0.0,0.0,0.0,0.0,0.0,0.0,0.0,0.0,0.0,0.0,0.0,0.0,0.0,0.0,0.0,0.0,0.0,0.0,0.0,0.0,0.0,2.2592,0.0,0.0,0.0,0.0,0.0,0.0,0.0,0.0,0.0,0.0,0.0,0.0,0.0,0.0,4.7609,5.0692,5.3335,5.4987,0.0,0.0,5.4803,5.4216,5.4106,5.3004,0.0,0.0,0.0,0.0,0.0,0.0,0.0,0.0,0.0,0.0,0.0,0.0,0.0,0.0,0.0,0.0,0.0,0.0,0.0,0.0,0.0,0.0,0.0,0.0,0.0,0.0,0.0,0.0,0.0,0.0,0.0,0.0,0.0,0.0,0.0,0.0,0.0,0.0,0.0,0.0,0.0,0.0,0.0,0.0,0.0,0.0,0.0,0.0,0.0,0.0,0.0,0.0,0.0,0.0,6.6063,7.2357,8.1406,8.557,8.4547,8.37,8.1908,7.8904,7.4631,6.9146,0.0,0.0,0.0,0.0,0.0,0.0,0.0,0.0,0.0,0.0,0.0,0.0,0.0,0.0,0.0,0.0,0.0,0.0,0.0,0.0,0.0,0.0,0.0,0.0,0.0,0.0,0.0,0.0,0.0,0.0,0.0,0.0,0.0,0.0,0.0,0.0,0.0,0.0,0.0,0.0,0.0,4.9077,5.1573,5.462,5.6675,0.0,5.6638,5.6638,5.6565,5.6565,5.5464,5.227,0.0,0.0,0.0,0.0,0.0,0.0,0.0,0.0,0.0,0.0,0.0,0.0,0.0,0.0,0.0,0.0,0.0,0.0,0.0,0.0,0.0,0.0,0.0,0.0,0.0,0.0,0.0,0.0,0.0,0.0,0.0,0.0,0.0,0.0,0.0,0.0,0.0,0.0,0.0,0.0,0.0,0.0,0.0,0.0,0.0,0.0,0.0,0.0,0.0,0.0,0.0,0.0,0.0,6.6289,7.2507,8.1448,8.5839,8.5493,8.4547,8.3326,8.1834,7.7523,7.2456,0.0,0.0,0.0,0.0,0.0,0.0,0.0,0.0,0.0,0.0,0.0,0.0,0.0,0.0,0.0,0.0,0.0,0.0,0.0,0.0,0.0,0.0,0.0,0.0,0.0,0.0,0.0,0.0,3.5145,3.5622,3.3936,0.0,0.0,0.0,0.0,0.0,0.0,0.0,0.0,0.0,0.0,5.1096,5.4473,5.6859,0.0,0.0,5.9024,5.8841,5.8364,5.829,5.7189,5.3995,5.1691,0.0,0.0,0.0,0.0,0.0,0.0,0.0,0.0,0.0,0.0,0.0,0.0,0.0,0.0,0.0,0.0,0.0,0.0,0.0,0.0,0.0,0.0,0.0,0.0,0.0,0.0,0.0,0.0,0.0,0.0,0.0,0.0,0.0,0.0,0.0,0.0,0.0,0.0,0.0,0.0,0.0,0.0,0.0,0.0,0.0,0.0,0.0,0.0,0.0,0.0,0.0,0.0,6.6969,7.2924,8.1601,8.6026,8.606,8.5312,8.455,8.3738,8.0458,7.6147,0.0,0.0,0.0,0.0,0.0,0.0,0.0,0.0,0.0,0.0,0.0,0.0,0.0,0.0,0.0,0.0,0.0,0.0,0.0,0.0,0.0,0.0,0.0,0.0,0.0,0.0,0.0,0.0,3.7734,3.7404,3.4174,0.0,0.0,0.0,0.0,0.0,0.0,0.0,0.0,0.0,0.0,5.3335,5.6381,5.84,5.9758,6.0309,6.0419,6.0199,5.9648,5.9355,5.8364,5.5868,0.0,0.0,0.0,0.0,0.0,0.0,0.0,0.0,0.0,0.0,0.0,0.0,0.0,0.0,0.0,0.0,0.0,0.0,0.0,0.0,0.0,0.0,0.0,0.0,0.0,0.0,0.0,2.2011,0.0,0.0,2.0524,0.0,0.0,0.0,0.0,0.0,0.0,0.0,0.0,0.0,0.0,0.0,0.0,0.0,0.0,0.0,0.0,0.0,0.0,0.0,0.0,0.0,0.0,6.8448,7.3763,8.1939,8.606,8.6031,8.6026,8.5535,8.4441,8.3703,8.0371,7.4059,0.0,0.0,0.0,0.0,0.0,0.0,0.0,0.0,0.0,0.0,0.0,0.0,0.0,0.0,0.0,0.0,0.0,0.0,0.0,0.0,0.0,0.0,0.0,0.0,0.0,0.0,3.634,3.7734,3.7404,0.0,0.0,0.0,0.0,0.0,0.0,0.0,0.0,0.0,4.6764,5.194,5.5794,5.6748,5.8877,6.0456,6.0493,6.0493,6.0456,6.0493,5.9795,5.8951,0.0,0.0,0.0,0.0,0.0,0.0,0.0,0.0,0.0,0.0,0.0,0.0,0.0,0.0,0.0,0.0,0.0,0.0,0.0,0.0,0.0,0.0,0.0,0.0,0.0,0.0,0.0,2.8124,2.9467,0.0,0.0,0.0,0.0,0.0,0.0,0.0,0.0,0.0,0.0,0.0,4.4118,4.4701,0.0,0.0,0.0,0.0,0.0,0.0,0.0,0.0,0.0,0.0,0.0,0.0,6.9393,7.4787,8.2246,8.6094,8.606,8.6026,8.5877,8.5535,8.4659,8.1103,7.4431,0.0,0.0,0.0,0.0,0.0,0.0,0.0,0.0,0.0,0.0,0.0,0.0,0.0,0.0,0.0,0.0,0.0,0.0,0.0,0.0,0.0,0.0,0.0,0.0,0.0,3.9974,0.0,0.0,0.0,0.0,0.0,0.0,0.0,0.0,0.0,0.0,4.4342,4.8453,5.0839,5.4179,5.7079,5.8951,6.0823,6.2401,0.0,0.0,0.0,0.0,0.0,0.0,0.0,0.0,0.0,0.0,0.0,0.0,0.0,0.0,4.7866,4.55,4.5463,4.6091,4.6905,0.0,0.0,0.0,0.0,0.0,0.0,0.0,0.0,0.0,0.0,0.0,0.0,0.0,0.0,3.5084,0.0,3.5452,0.0,0.0,0.0,0.0,0.0,0.0,0.0,0.0,4.6132,4.826,4.9669,4.9925,4.9857,0.0,4.8583,4.6606,0.0,0.0,0.0,0.0,0.0,0.0,0.0,0.0,7.1062,7.6157,8.2702,8.6094,8.6094,8.6065,8.6065,8.606,8.4848,8.2023,7.7552,7.2204,6.6949,0.0,0.0,0.0,0.0,0.0,0.0,0.0,0.0,0.0,0.0,0.0,0.0,0.0,0.0,0.0,0.0,0.0,0.0,0.0,0.0,0.0,0.0,0.0,4.3088,0.0,0.0,0.0,0.0,0.0,0.0,0.0,0.0,0.0,4.4415,4.8636,5.2454,5.4583,5.7189,5.9465,6.1006,0.0,0.0,0.0,0.0,0.0,0.0,0.0,6.5081,6.4273,6.4127,6.3663,6.2132,6.012,5.8289,5.6927,0.0,0.0,5.0818,5.0599,5.1374,5.2146,5.2773,5.34,5.4211,5.4986,5.5871,0.0,0.0,0.0,0.0,0.0,0.0,0.0,0.0,4.1321,4.1396,0.0,4.1468,0.0,0.0,0.0,0.0,3.9222,4.4061,0.0,0.0,5.4062,5.5404,5.3259,5.3968,5.4378,5.4224,5.2017,5.2139,5.4222,5.0851,0.0,0.0,0.0,0.0,0.0,0.0,7.3531,7.8062,8.3355,8.6094,8.6094,8.6094,8.606,8.5958,8.4314,8.3285,8.3055,7.7658,7.3795,7.1918,6.3991,0.0,0.0,0.0,0.0,0.0,0.0,0.0,0.0,0.0,0.0,0.0,0.0,0.0,0.0,0.0,0.0,0.0,0.0,0.0,0.0,4.356,0.0,0.0,0.0,0.0,0.0,0.0,0.0,0.0,0.0,4.9524,4.8857,5.2747,5.6308,5.7886,0.0,0.0,0.0,0.0,6.5705,6.6586,6.6696,6.699,6.7797,6.7871,6.8091,6.8862,0.0,0.0,6.6916,6.5338,6.4016,6.3209,6.3576,6.2341,5.6461,5.5871,5.6498,5.7309,5.86,5.9891,6.0739,6.1403,6.2435,4.3609,0.0,0.0,0.0,0.0,3.8751,4.1905,4.7113,4.7636,4.855,4.9752,4.9496,0.0,0.0,0.0,0.0,0.0,0.0,5.0198,5.2563,5.4748,5.631,5.7391,5.7657,5.806,5.8574,5.7867,5.8336,5.9825,6.0692,5.8888,5.4684,0.0,0.0,0.0,0.0,7.627,8.069,8.4306,8.6094,8.6094,8.6094,8.6094,8.606,8.4921,8.4007,8.3323,8.1099,7.8535,7.5556,7.1995,0.0,0.0,0.0,0.0,0.0,0.0,0.0,0.0,0.0,0.0,0.0,0.0,0.0,0.0,0.0,0.0,0.0,0.0,0.0,4.4334,4.7426,4.8309,0.0,0.0,0.0,0.0,0.0,0.0,0.0,0.0,0.0,5.5831,5.7262,5.8767,0.0,0.0,6.3246,6.442,6.6476,6.8385,6.9743,7.0403,0.0,7.1835,7.1505,7.1211,7.1431,7.1468,7.1138,7.011,6.9559,6.8972,6.8128,6.8201,6.7687,6.6088,6.397,6.3015,6.3676,6.4228,6.4963,6.625,6.6765,6.7206,5.2777,4.8768,4.4633,4.3578,4.4631,4.4781,4.767,5.2249,5.2883,5.3616,5.4452,5.4781,5.3149,5.0155,4.9307,0.0,0.0,0.0,5.3954,5.6556,5.7115,5.815,5.9648,5.9685,5.9942,6.0382,6.0052,6.0819,6.2493,6.4696,6.4924,6.3375,0.0,0.0,7.1598,7.5434,7.9048,8.2406,8.4878,8.6094,8.6094,8.6094,8.6099,8.606,8.5527,8.4959,8.4391,8.3585,8.2169,8.0064,7.7418,7.3584,0.0,0.0,0.0,0.0,0.0,0.0,0.0,0.0,0.0,0.0,0.0,3.6976,3.7711,0.0,0.0,0.0,4.4595,4.6507,4.9674,5.1562,0.0,0.0,0.0,0.0,0.0,0.0,0.0,5.201,5.47,5.7455,6.0236,6.1227,6.1998,6.2952,6.4016,6.5228,6.6549,0.0,7.044,7.2018,7.2679,7.3266,7.4037,7.4037,7.4037,7.4368,7.4147,7.3817,7.3303,7.2973,7.2569,7.2129,7.2018,7.2018,7.2018,7.0403,6.8862,6.8531,6.8935,6.9706,7.066,7.1027,7.1431,6.0419,5.9527,4.9711,4.7332,4.993,4.9976,5.2584,5.6822,5.6969,5.696,5.6905,5.7767,5.6795,5.4401,5.3654,0.0,5.5825,5.6593,5.8187,6.0493,6.0493,6.0529,6.0603,6.0676,6.075,6.0786,6.0052,6.104,6.3611,6.4919,6.7878,7.2343,7.3644,7.5133,7.6996,7.9545,8.1754,8.3512,8.5224,8.6094,8.6094,8.6094,8.606,8.6031,8.606,8.606,8.5958,8.5228,8.4806,8.469,8.1014,7.8064,7.6101,0.0,0.0,0.0,0.0,0.0,0.0,0.0,0.0,0.0,0.0,0.0,0.0,0.0,0.0,4.7831,5.143,0.0,5.5564,5.5492,0.0,0.0,0.0,5.2788,5.3107,5.4101,5.5615,5.7828,0.0,0.0,6.2805,6.4567,6.5632,6.5668,6.6916,6.8128,6.9082,7.0513,7.2092,7.3634,7.3927,7.4258,7.5065,7.5689,7.624,7.6864,7.668,7.6093,7.6019,7.5542,7.5102,7.5028,7.5065,7.5065,7.5102,7.4845,7.4404,7.2202,7.2753,7.3707,7.378,7.4258,7.4735,6.0396,6.0139,5.7637,5.6658,5.6768,5.619,5.6638,5.774,5.8364,5.8574,5.8647,5.9465,5.9454,5.8893,5.9249,5.97,6.0114,6.0334,6.0701,6.13,6.13,6.1667,6.2254,6.2915,6.3539,6.409,6.3943,6.494,6.6975,6.8884,7.1869,7.583,7.844,8.0011,8.0654,8.1915,8.3518,8.5309,8.58,8.6065,8.6094,8.6094,8.6094,8.6099,8.6094,8.606,8.5996,8.5834,8.5757,8.5651,8.4796,8.2874,7.9851,7.3952,0.0,0.0,0.0,0.0,0.0,0.0,0.0,0.0,0.0,4.5717,4.7033,0.0,5.2177,0.0,5.6169,5.6977,5.5049,5.6769,0.0,0.0,5.6618,5.6986,5.8301,5.9087,6.0059,6.1426,6.3264,6.48,6.55,6.7063,6.8274,6.8862,6.8752,6.9339,7.1321,7.2459,7.3707,7.5212,7.5983,7.6533,7.6644,7.69,7.7084,7.7268,7.7157,7.7047,7.7011,7.6864,7.6754,7.6754,7.6754,7.6754,7.6717,7.6754,7.657,7.5946,7.5249,7.4808,7.5395,7.5689,7.6019,6.2608,6.2544,6.2168,6.1777,6.13,6.0126,5.9612,5.9648,6.0089,6.0272,6.0309,6.1117,6.1484,6.152,6.1924,6.1924,6.163,6.1961,6.2144,6.2181,6.2511,6.3135,6.3943,6.442,6.5044,6.5815,6.5852,6.6817,6.8675,7.0784,7.3793,7.7737,8.0351,8.2339,8.3668,8.3786,8.4358,8.535,8.5804,8.6031,8.6094,8.6094,8.606,8.6026,8.5681,8.5454,8.5385,8.5036,8.4844,8.4775,8.4844,8.3999,8.2045,7.7144,7.2141,0.0,0.0,0.0,0.0,0.0,0.0,0.0,0.0,0.0,0.0,0.0,5.624,5.7729,5.9659,6.0194,5.8757,6.0217,6.1318,6.1321,6.1629,6.224,6.3242,6.4123,6.4879,6.557,6.688,6.7837,6.8088,6.9192,7.0257,7.1064,7.1101,7.1505,7.2826,7.4001,7.5212,7.646,7.7011,7.7341,7.7341,7.7341,7.7341,7.7341,7.7341,7.7341,7.7341,7.7341,7.7341,7.7341,7.7341,7.7341,7.7341,7.7341,7.7341,7.7194,7.6607,7.6203,7.657,7.6644,7.6827,6.5338,6.5264,6.453,6.431,6.431,6.2842,6.2034,6.1741,6.1741,6.1741,6.1777,6.2511,6.2805,6.2805,6.2915,6.2585,6.1998,6.2879,6.3282,6.3319,6.4163,6.4971,6.5742,6.5778,6.6182,6.6953,6.6953,6.7847,6.9673,7.1789,7.4778,7.8466,8.0696,8.3102,8.5501,8.4931,8.4627,8.4742,8.5577,8.6026,8.6094,8.6094,8.606,8.5958,8.5151,8.4656,8.455,8.3745,8.3285,8.3285,8.332,8.3397,8.3358,7.8918,7.5244,0.0,6.6667,0.0,0.0,0.0,0.0,0.0,0.0,0.0,0.0,5.8077,5.9869,6.0997,6.2424,6.3558,6.415,6.4512,6.5009,6.5696,6.6739,6.7456,6.7756,6.8693,6.9382,6.9542,6.9941,7.0239,7.0184,7.0954,7.1762,7.2496,7.3193,7.378,7.4258,7.5249,7.6276,7.7194,7.7414,7.7635,7.7745,7.7745,7.7745,7.7708,7.7781,7.7635,7.7708,7.7598,7.7524,7.7488,7.7414,7.7341,7.7341,7.7341,7.7341,7.7304,7.7231,7.7194,7.7268,7.7231,7.7341,6.5286,6.5286,6.5102,6.5448,6.5999,6.5705,6.442,6.2585,6.2585,6.2585,6.2585,6.2732,6.2805,6.2879,6.3539,6.3759,6.3686,6.5154,6.5815,6.5852,6.6623,6.7467,6.8201,6.8238,6.8641,6.9376,6.9412,7.0054,7.1283,7.3466,7.5859,7.8447,8.114,8.2951,8.3783,0.0,0.0,0.0,8.5915,8.606,8.6094,8.6094,8.606,8.5958,8.5151,0.0,8.455,8.3745,8.3285,8.332,8.3427,0.0,0.0,0.0,0.0,0.0,0.0,0.0,0.0,0.0,0.0,0.0,6.2395,6.156,6.0259,6.278,6.4558,6.4704,6.5567,6.6172,6.6291,6.7313,6.8083,6.8253,6.9366,7.0409,7.1129,7.1458,7.151,7.136,7.1939,7.2005,7.125,7.1798,7.2569,7.3413,7.4184,7.5175,7.646,7.635,7.646,7.7194,7.7965,7.8589,7.925,7.925,7.9176,7.9323,7.9323,7.9286,7.9176,7.8736,7.8369,7.8332,7.7781,7.7378,7.7378,7.7341,7.7414,7.7341,7.7341,7.7341,7.7341,7.7341,7.7341,6.767,6.767,6.7687,6.7907,0.0,6.8274,6.754,6.6329,6.5154,6.442,6.4053,6.4053,6.4053,6.4053,6.4494,6.4714,6.4787,6.6366,6.7063,6.7136,6.8311,6.9082,6.9486,6.9486,6.9926,7.0697,7.0697,7.1269,7.2391,7.4443,7.6429,7.8359,8.1292,8.3142,8.3865,8.4706,8.52,8.5273,8.58,8.606,8.6094,8.6094,8.606,8.5958,8.5151,0.0,0.0,0.0,0.0,0.0,0.0,0.0,0.0,8.2395,0.0,8.0241,7.6958,7.444,7.3131,7.0401,6.8752,6.8684,6.8359,6.6965,6.4026,6.6144,6.7652,6.7739,6.87,6.9585,7.0308,7.0982,7.1489,7.1758,7.2361,7.2822,7.286,7.3206,7.3144,7.2576,7.3123,7.3204,7.2041,7.2202,7.3193,7.4625,7.5212,7.624,7.8002,7.7855,7.7635,7.8405,7.8846,7.9323,7.969,7.98,7.98,7.98,7.98,7.98,7.98,7.947,7.9176,7.9176,7.8809,7.8552,7.8552,7.8552,7.8516,7.8516,7.8516,7.8552,7.8479,7.7892,7.7341,7.011,7.0127,7.011,7.011,7.011,7.011,7.011,6.9963,0.0,0.0,0.0,6.6145,6.6145,6.6145,6.6145,6.6145,6.6256,6.765,6.8348,6.8385,6.9706,7.0367,7.0513,7.0367,7.0734,7.1505,7.1505,7.2041,7.3019,7.5023,7.6743,7.8338,8.1254,8.3409,8.4632,8.5542,8.5685,8.5032,8.5647,8.6065,8.6094,8.6094,8.606,8.5996,8.5151,8.4694,8.4588,8.3745,8.3285,8.3285,8.332,8.3397,8.3512,8.2936,8.2357,8.1704,7.9445,7.8064,7.7873,7.4981,7.3283,7.3543,7.2986,7.1229,6.7957,6.9208,7.0266,7.0636,7.1659,7.2852,7.4129,7.4427,7.4675,7.5101,7.5284,7.5053,7.4361,7.4773,7.4729,7.3594,7.386,7.3848,7.2686,7.2789,7.367,7.5579,7.635,7.7341,7.9286,7.925,7.8993,7.9764,7.9984,8.0057,8.0204,8.0314,8.0204,8.0351,8.0314,8.0204,8.0204,8.0094,8.0021,8.0021,7.991,7.9727,7.9764,7.9653,7.98,7.98,7.98,7.98,7.969,7.8736,7.7892,7.011,7.011,7.011,7.011,7.011,7.011,7.011,7.0073,6.9743,6.9522,6.9412,6.9412,6.9412,6.9412,6.9412,6.9412,6.9486,7.0367,7.0807,7.0807,7.1027,7.1505,7.2129,7.1468,7.1578,7.2275,7.2349,7.2556,7.3185,7.5023,7.6743,7.8376,8.1122,8.3557,8.5472,8.5915,8.6022,8.5906,8.6022,8.6094,8.6094,8.6094,8.606,8.5958,8.5151,8.4694,8.4588,8.3783,8.3285,8.3285,8.3427,8.3807,8.446,8.4527,8.4753,8.5214,8.361,8.2271,8.1502,7.9006,7.6655,7.4716,7.4399,7.3803,7.2647,7.2763,7.3223,7.3929,7.4197,7.4674,7.558,7.6386,7.684,7.6976,7.7515,7.763,7.6784,7.6892,7.6351,7.4455,7.4356,7.4071,7.3128,7.3744,7.4918,7.6056,7.7561,7.8919,8.0204,8.0131,8.0021,8.0608,8.0828,8.1122,8.1525,8.1819,8.1709,8.1856,8.1746,8.1672,8.1636,8.1195,8.0865,8.0828,8.0388,7.9947,7.991,7.98,7.9947,7.9984,7.9984,7.9947,7.9984,7.9653,7.9433,7.1394,7.1394,7.1394,7.1394,7.1451,7.1763,7.1886,7.1886,7.1886,7.1192,7.011,7.011,7.011,7.011,7.011,7.011,7.0146,7.0954,7.1321,7.1358,7.1762,7.2165,7.2459,7.2129,7.2165,7.2496,7.2532,7.2667,7.313,7.49,7.6252,7.741,8.0763,8.3364,8.4939,8.5585,8.5961,8.6026,8.6099,8.6094,8.6094,8.6094,8.6099,8.6065,8.5642,8.545,8.5382,8.507,8.484,8.484,8.4873,8.5066,8.5411,8.5522,8.5709,8.6017,8.4945,8.3874,8.299,8.0568,7.8454,7.6899,7.6784,7.663,7.6245,7.5822,7.5772,7.6312,7.6586,7.713,7.7977,7.8438,7.8669,7.8631,7.9015,7.8861,7.8169,7.8014,7.7413,7.5939,7.5689,7.5408,7.4522,7.5102,7.6276,7.7818,7.9507,8.0828,8.1525,8.1342,8.1195,8.1562,8.1672,8.1782,8.2113,8.2186,8.2186,8.2186,8.2186,8.2186,8.2186,8.1819,8.1672,8.1636,8.1305,8.1122,8.1048,8.1085,8.1085,8.1085,8.1085,8.1085,8.1085,8.1085,8.0938,7.2573,7.2686,7.2553,7.261,7.2761,7.3341,7.3639,7.3639,7.3602,7.2633,7.1115,7.0754,7.0624,7.0624,7.0624,7.066,7.0734,7.1284,7.1578,7.1651,7.2202,7.2532,7.2532,7.2532,7.2532,7.2532,7.2532,7.2647,7.3112,7.4737,7.6245,7.7565,8.0832,8.3171,8.4366,8.5283,8.5817,8.5996,8.6065,8.6099,8.6094,8.6094,8.6094,8.6094,8.6094,8.6094,8.6094,8.6094,8.6094,8.6094,8.6094,8.6094,8.6094,8.6094,8.6094,8.6017,8.5363,8.4439,8.3285,8.1131,7.9515,7.8861,7.8784,7.8784,7.8746,7.8438,7.8122,7.8241,7.8513,7.9092,7.9823,8.0054,8.0092,8.0092,8.0092,7.9761,7.9044,7.8908,7.8331,7.7123,7.6788,7.661,7.6301,7.646,7.7671,7.991,8.1452,8.2113,8.2186,8.2186,8.2186,8.2186,8.2186,8.215,8.2186,8.2186,8.2186,8.2186,8.2186,8.2296,8.237,8.237,8.2333,8.2333,8.226,8.2076,8.215,8.2113,8.2076,8.2003,8.2003,8.2076,8.2039,8.226,8.215,7.2816,7.3224,7.2705,7.2816,7.3391,7.398,7.4206,7.4206,7.4206,7.413,7.368,7.2775,7.2259,7.2275,7.2259,7.2259,7.2259,7.2349,7.2386,7.2349,7.2459,7.2532,7.2532,7.2532,7.2532,7.2532,7.2569,7.27,7.3,7.4756,7.7185,8.0132,8.1924,8.3211,8.425,8.5283,8.5852,8.5996,8.5996,8.6065,8.6094,8.6094,8.6094,8.6094,8.6094,8.6094,8.6094,8.6094,8.6094,8.6094,8.6094,8.6094,8.6094,8.6094,8.6094,8.6055,8.5363,8.4209,8.2554,8.0785,7.9823,7.9708,7.9708,7.9746,7.9785,8.0362,8.04,7.9876,7.9715,8.0131,8.0862,8.1016,8.1023,8.0991,8.0984,8.0701,8.0125,8.0136,7.9397,7.72,7.7311,7.6985,7.6741,7.7635,7.9323,8.1379,8.2039,8.2333,8.2333,8.2443,8.237,8.2296,8.2223,8.226,8.2296,8.2186,8.2333,8.2296,8.2223,8.2517,8.292,8.2884,8.2406,8.3177,8.2774,8.248,8.237,8.2186,8.2296,8.2517,8.248,8.2296,8.2296,8.2737,8.2847,7.263,7.2926,7.2997,7.3553,7.4346,7.4672,7.4751,7.4789,7.4789,7.4629,7.4249,7.3784,7.359,7.3541,7.3224,7.3013,7.296,7.2686,7.2532,7.2532,7.2532,7.2532,7.2532,7.301,7.3193,7.3266,7.367,7.3949,7.4364,7.5773,7.7648,7.9714,8.1514,8.2775,8.3443,8.494,8.5779,8.5887,8.5961,8.6031,8.6094,8.6094,8.6094,8.6094,8.6094,8.6094,8.6094,8.6094,8.6094,8.6094,8.6094,8.6094,8.6094,8.6094,8.6094,8.6055,8.5363,8.4362,8.317,8.1939,8.1285,8.1285,8.1285,8.1477,8.1977,8.2401,8.2401,8.2054,8.1593,8.1631,8.2401,8.2554,8.2419,8.2102,8.1992,8.169,8.1073,8.1028,8.0568,7.9332,7.8852,7.8744,7.9081,8.0021,8.1085,8.215,8.2553,8.292,8.292,8.3324,8.3398,8.3104,8.3287,8.3361,8.3067,8.292,8.3104,8.3324,8.2818,8.2605,8.3801,8.4889,8.4963,8.4278,8.3765,8.3544,8.3691,8.3618,8.3618,8.3544,8.3544,8.3508,8.303,8.3177,8.3214,7.2705,7.3104,7.3757,7.4509,7.5091,7.5271,7.5379,7.534,7.534,7.5129,7.4789,7.4787,7.4749,7.467,7.398,7.3553,7.3341,7.2943,7.274,7.2789,7.2826,7.2936,7.3193,7.3744,7.4037,7.4111,7.4588,7.511,7.5601,7.6532,7.7924,7.9492,8.1339,8.2532,8.3206,8.4824,8.5704,8.5815,8.5961,8.6031,8.6094,8.6094,8.6094,8.6094,8.6094,8.6094,8.6094,8.6094,8.6094,8.6094,8.6094,8.6094,8.6094,8.6094,8.6094,8.6017,8.5363,8.4632,8.3978,8.3131,8.267,8.267,8.267,8.2901,8.3439,8.3593,8.3708,8.3862,8.3362,8.3247,8.3439,8.3593,8.3384,8.2913,8.2721,8.2395,8.1963,8.1833,8.1425,8.084,8.0163,8.0252,8.1139,8.1746,8.226,8.2884,8.3398,8.3765,8.3801,8.4168,8.4352,8.3838,8.4242,8.4278,8.3838,8.3728,8.4058,8.4205,8.3594,8.3735,8.4682,8.5956,8.6501,8.4903,8.4792,8.4572,8.4278,8.4425,8.4609,8.4646,8.4682,8.4572,8.3875,8.3948,8.3948,7.3172,7.4293,7.5417,7.5518,7.5127,7.5686,7.5947,7.5917,7.5985,7.5955,7.5895,7.5964,7.5955,7.5902,7.4939,7.4018,7.3492,7.3503,7.3585,7.3676,7.3692,7.4037,7.4771,7.4845,7.4845,7.4882,7.5065,7.5551,7.6528,7.6903,7.8117,8.0168,8.1603,8.2836,8.3849,8.5091,8.5743,8.5815,8.5923,8.5992,8.6094,8.6094,8.6094,8.6094,8.6094,8.6094,8.6094,8.6094,8.6094,8.6094,8.6094,8.6094,8.6094,8.6094,8.6094,8.6017,8.5363,8.4901,8.4709,8.4016,8.3555,8.3555,8.3516,8.3593,8.3824,8.3824,8.4132,8.4786,8.4824,8.4555,8.3978,8.3874,8.3687,8.3508,8.299,8.2727,8.2772,8.2254,8.1673,8.1255,8.1056,8.1213,8.1966,8.215,8.2957,8.3911,8.4462,8.4535,8.4572,8.4646,8.4682,8.4646,8.4646,8.4646,8.4572,8.4535,8.4572,8.4866,8.5196,8.5196,8.5447,8.5668,8.5704,8.5631,8.527,8.5013,8.4719,8.4646,8.4756,8.4976,8.5453,8.5306,8.4719,8.5233,8.5196,7.4196,7.4828,7.5236,7.5518,7.5686,7.5917,7.5976,7.6053,7.6592,7.6823,7.6938,7.7361,7.7592,7.7592,7.716,7.6388,7.5418,7.5487,7.542,7.5123,7.5068,7.507,7.4918,7.5432,7.5652,7.5726,7.6203,7.6788,7.7303,7.7626,7.864,8.0205,8.1585,8.2823,8.3963,8.5129,8.5704,8.5815,8.5958,8.606,8.6094,8.6094,8.6094,8.6094,8.6094,8.6094,8.6094,8.6094,8.6094,8.6094,8.6094,8.6094,8.6094,8.6094,8.6094,8.6055,8.5824,8.544,8.4939,8.4632,8.4439,8.4439,8.4439,8.467,8.5055,8.5209,8.5324,8.567,8.6209,8.6286,8.595,8.52,8.4403,8.3954,8.3408,8.3104,8.3016,8.2597,8.2176,8.2361,8.215,8.1893,8.226,8.2627,8.3398,8.4389,8.5013,8.5306,8.5453,8.5783,8.593,8.56,8.5783,8.6151,8.6151,8.5637,8.549,8.6004,8.6297,8.6334,8.6444,8.6407,8.6444,8.6371,8.6004,8.593,8.582,8.582,8.5783,8.5527,8.6004,8.6004,8.5527,8.582,8.5747,7.5758,7.5893,7.5841,7.5884,7.6053,7.6284,7.6399,7.6515,7.7323,7.7669,7.7784,7.8284,7.8477,7.8554,7.8784,7.8468,7.752,7.7222,7.6806,7.6327,7.6312,7.6069,7.5845,7.624,7.6497,7.6644,7.7341,7.8002,7.8559,7.885,7.9759,8.1106,8.2104,8.3195,8.4344,8.5242,8.5667,8.5815,8.5958,8.606,8.6094,8.6094,8.6094,8.6132,8.6363,8.6363,8.6132,8.6094,8.6094,8.6094,8.6094,8.6094,8.6094,8.6094,8.6094,8.6094,8.6094,8.5863,8.5401,8.5286,8.5286,8.5286,8.5286,8.5555,8.6055,8.6363,8.6517,8.6709,8.7286,8.7825,8.7529,8.6467,8.5538,8.5214,8.4545,8.402,8.4036,8.3447,8.3317,8.3508,8.3067,8.2774,8.2994,8.3471,8.4132,8.4903,8.5673,8.6151,8.6297,8.6591,8.6885,8.6334,8.6591,8.6811,8.6775,8.6371,8.6151,8.6591,8.6738,8.6921,8.7031,8.7031,8.7031,8.7031,8.7031,8.7031,8.7031,8.7031,8.6738,8.6297,8.6407,8.6554,8.6334,8.6224,8.6151,7.7775,7.7568,7.7438,7.6831,7.6399,7.6976,7.7284,7.7438,7.8169,7.8515,7.8554,7.8631,7.8784,7.8784,7.9515,7.9754,7.9428,7.8476,7.7737,7.7316,7.72,7.7218,7.7206,7.7268,7.7414,7.7488,7.8222,7.9142,7.9963,8.0316,8.1214,8.2533,8.3009,8.3839,8.5143,8.5352,8.5628,8.5741,8.5923,8.6026,8.6094,8.6094,8.6132,8.6286,8.6901,8.6978,8.6286,8.6247,8.6324,8.6286,8.6286,8.617,8.6209,8.6132,8.6132,8.6209,8.6132,8.6094,8.6132,8.6055,8.5978,8.5978,8.6094,8.617,8.6363,8.6978,8.7401,8.7517,8.8132,8.8671,8.8418,8.7509,8.6814,8.7262,8.5966,8.5246,8.5311,8.4959,8.4572,8.4499,8.3911,8.3801,8.4352,8.4462,8.4792,8.5673,8.6297,8.6738,8.6775,8.6921,8.6958,8.6958,8.6958,8.6995,8.7031,8.6995,8.6958,8.6995,8.6958,8.7031,8.7031,8.7031,8.7031,8.7031,8.7031,8.7031,8.7031,8.7031,8.7031,8.6775,8.6995,8.6995,8.6811,8.6664,8.6775,7.8058,7.825,7.8146,7.7977,7.7746,7.8015,7.813,7.8207,7.9015,7.94,7.9515,8.0054,8.0285,8.0323,8.0592,8.0708,8.0669,8.0202,7.9704,7.9177,7.8728,7.8326,7.809,7.8136,7.8479,7.8993,7.9286,7.9694,8.0184,8.0555,8.1438,8.2646,8.3137,8.3937,8.51,8.5311,8.5513,8.5779,8.5961,8.6031,8.6094,8.6094,8.6363,8.694,8.7286,8.7478,8.7863,8.7902,8.7902,8.7825,8.7902,8.7632,8.7055,8.644,8.6401,8.6824,8.6401,8.644,8.6824,8.644,8.617,8.6247,8.6632,8.694,8.7094,8.7786,8.8248,8.8363,8.9017,8.9374,8.8876,8.8606,8.7903,8.7003,8.5728,8.5291,8.5697,8.5581,8.5484,8.5343,8.4719,8.4866,8.56,8.549,8.5196,8.6187,8.6407,8.6371,8.6885,8.7031,8.7031,8.7031,8.7031,8.7031,8.7031,8.7031,8.7031,8.7031,8.7031,8.7031,8.7031,8.7031,8.7031,8.7031,8.7031,8.7031,8.7031,8.7031,8.7031,8.7031,8.6995,8.6995,8.7031,8.7031,8.7031,7.9286,7.9438,7.9131,7.8784,7.8554,7.8823,7.8977,7.9092,7.99,8.0285,8.04,8.0862,8.1093,8.1093,8.1093,8.1285,8.1516,8.1554,8.1502,8.1155,8.0043,7.9353,7.8813,7.892,7.947,8.0131,8.0241,8.0577,8.1108,8.1503,8.2184,8.3119,8.3552,8.4164,8.5138,8.5308,8.5511,8.5779,8.5887,8.5958,8.6137,8.6401,8.6824,8.7401,8.7979,8.8594,8.9133,8.944,8.9325,8.8825,8.8671,8.8402,8.7863,8.7401,8.7325,8.7632,8.744,8.7325,8.7748,8.744,8.7055,8.7171,8.7594,8.7863,8.8017,8.8671,8.9094,8.9248,8.9609,8.9802,8.9387,8.8847,8.8275,8.7302,8.6289,8.5778,8.6187,8.6261,8.6261,8.6151,8.582,8.5967,8.604,8.593,8.5416,8.6261,8.6151,8.6077,8.6738,8.7031,8.7031,8.7031,8.7031,8.7031,8.7031,8.7031,8.7031,8.7031,8.7031,8.7031,8.7031,8.7031,8.7031,8.7031,8.7031,8.7031,8.7031,8.7031,8.7031,8.7031,8.7031,8.7031,8.7031,8.7031,8.7068,8.1192,8.0984,8.0208,7.9438,7.89,7.9554,7.99,7.9977,8.0708,8.1016,8.1054,8.1054,8.117,8.117,8.1285,8.167,8.2247,8.2401,8.2708,8.2671,8.1634,8.0467,7.9911,7.9842,8.0277,8.0975,8.1085,8.1608,8.2363,8.2728,8.3415,8.3885,8.4292,8.4787,8.5138,8.5346,8.555,8.5779,8.5815,8.5923,8.6286,8.694,8.7517,8.7709,8.8979,8.9787,9.0056,9.0594,9.0325,8.9094,8.894,8.8825,8.8748,8.8709,8.8556,8.8671,8.8709,8.8632,8.8709,8.8517,8.844,8.8402,8.8594,8.8748,8.8863,8.9479,8.9979,8.9944,9.007,9.004,8.9733,8.8872,8.8175,8.7948,8.7099,8.6811,8.6958,8.6958,8.6885,8.6921,8.6958,8.6775,8.6151,8.5894,8.582,8.5967,8.5967,8.6224,8.6738,8.7031,8.7031,8.7031,8.7031,8.7031,8.7031,8.7031,8.7031,8.7031,8.7031,8.7031,8.7031,8.7031,8.7031,8.7031,8.7031,8.7031,8.7031,8.7031,8.7031,8.7031,8.7031,8.7031,8.7142,8.7288,8.7399,8.138,8.1061,8.0862,8.0631,8.0439,8.0669,8.0746,8.0785,8.1016,8.117,8.1131,8.1093,8.1516,8.1939,8.1977,8.2439,8.3093,8.3247,8.3324,8.3528,8.3256,8.2302,8.1382,8.0899,8.1085,8.181,8.1884,8.2196,8.2696,8.3047,8.3471,8.3998,8.4503,8.4916,8.5176,8.5346,8.5511,8.5741,8.5815,8.6268,8.6983,8.7286,8.8055,8.921,8.971,9.0248,9.0748,9.1056,9.1056,9.0594,8.9902,8.9594,8.9556,8.9094,8.9056,8.944,8.9094,8.9017,8.9363,8.9094,8.8748,8.8748,8.9325,8.9594,8.9633,9.0364,9.0787,9.0793,9.049,8.9855,8.9339,8.8579,8.7886,8.7394,8.7095,8.7031,8.7031,8.7031,8.7031,8.7031,8.7031,8.6848,8.6628,8.6151,8.604,8.6371,8.6224,8.6077,8.6738,8.7031,8.7031,8.7031,8.7031,8.7031,8.7031,8.7031,8.7031,8.7031,8.7031,8.7031,8.7031,8.7031,8.7031,8.7031,8.7031,8.7031,8.7031,8.7031,8.7031,8.7031,8.7031,8.7068,8.7655,8.7949,8.7949,8.1269,8.1093,8.1093,8.1093,8.1093,8.1093,8.1285,8.1554,8.1631,8.1862,8.2093,8.217,8.2401,8.2824,8.2862,8.3324,8.4055,8.4132,8.4362,8.4604,8.4481,8.3802,8.2954,8.2267,8.2203,8.2548,8.2343,8.2471,8.2843,8.3186,8.3692,8.4255,8.4694,8.5094,8.5308,8.5431,8.5628,8.5892,8.6194,8.6764,8.7363,8.8132,8.9133,9.021,9.0441,9.0748,9.1171,9.121,9.121,9.1095,9.071,9.0441,9.0402,9.0017,8.9979,9.0402,8.9979,9.0017,9.0248,8.9979,8.9787,8.9825,9.0248,9.0402,9.0517,9.0941,9.121,9.1136,9.0284,8.9384,8.8579,8.7689,8.7036,8.6617,8.6811,8.6995,8.7031,8.7031,8.7031,8.7031,8.7031,8.7031,8.6995,8.6297,8.6334,8.6591,8.6224,8.6407,8.6811,8.6921,8.7068,8.7142,8.7105,8.7105,8.7068,8.7068,8.7031,8.7031,8.7031,8.7031,8.7031,8.7031,8.7031,8.7031,8.7031,8.7031,8.7031,8.7031,8.7031,8.7031,8.7031,8.7288,8.7876,8.8206,8.8243,8.1253,8.1246,8.1246,8.1285,8.14,8.1285,8.1747,8.2362,8.2439,8.2824,8.3324,8.3516,8.3516,8.3708,8.3747,8.4209,8.5016,8.5016,8.5401,8.5608,8.5436,8.48,8.4315,8.3463,8.3247,8.3246,8.2708,8.283,8.3321,8.36,8.4027,8.4609,8.5051,8.5308,8.5511,8.5628,8.5817,8.6268,8.6729,8.7376,8.806,8.921,9.0364,9.1133,9.1325,9.1364,9.1441,9.1402,9.1364,9.121,9.121,9.1133,9.1133,9.1171,9.1133,9.1095,9.0979,9.1018,9.1133,9.1018,9.1056,9.1018,9.1056,9.121,9.1133,9.1171,9.1133,9.0902,8.9908,8.915,8.835,8.7056,8.6722,8.6811,8.7105,8.7252,8.7215,8.7142,8.7031,8.7031,8.7031,8.7031,8.6848,8.6518,8.6224,8.6811,8.6518,8.6591,8.6958,8.7252,8.7325,8.7362,8.7325,8.7215,8.7178,8.7105,8.7068,8.7031,8.7031,8.7031,8.7031,8.7031,8.7031,8.7031,8.7031,8.7031,8.7031,8.7031,8.7031,8.7031,8.7031,8.7472,8.7949,8.8133,8.8243,8.2217,8.2023,8.2054,8.2439,8.2901,8.2362,8.2516,8.3285,8.3324,8.3478,8.3593,8.3632,8.4055,8.4632,8.4632,8.5055,8.5709,8.5786,8.5978,8.5983,8.6026,8.5846,8.5437,8.456,8.4029,8.3928,8.3824,8.3876,8.4117,8.4352,8.4635,8.5018,8.5352,8.559,8.5628,8.5742,8.6235,8.6806,8.7187,8.8067,8.9367,9.0364,9.1402,9.2133,9.2249,9.221,9.221,9.221,9.1902,9.1402,9.1248,9.1287,9.121,9.121,9.121,9.121,9.121,9.121,9.121,9.121,9.121,9.121,9.121,9.121,9.121,9.121,9.0864,9.0373,8.9947,8.9552,8.882,8.8737,8.8345,8.8243,8.8536,8.8793,8.8683,8.7802,8.7252,8.7142,8.7142,8.7031,8.7068,8.7068,8.6958,8.7031,8.6995,8.6885,8.7178,8.7582,8.7692,8.7766,8.7949,8.7839,8.7288,8.7178,8.7068,8.7031,8.7031,8.7031,8.7031,8.7031,8.7031,8.7031,8.7031,8.7031,8.7031,8.7031,8.7031,8.7031,8.7068,8.7509,8.7876,8.8059,8.8206,8.3013,8.2913,8.2939,8.317,8.3478,8.3131,8.3401,8.4093,8.4209,8.4439,8.4709,8.4747,8.5055,8.544,8.5478,8.5709,8.6017,8.6094,8.6094,8.6094,8.6094,8.6094,8.606,8.5475,8.4953,8.4651,8.4276,8.4325,8.4597,8.4816,8.5029,8.5393,8.5628,8.5742,8.5854,8.5967,8.6652,8.776,8.8333,8.9367,9.0979,9.1941,9.2479,9.3095,9.3403,9.3518,9.3095,9.3056,9.2826,9.2402,9.2018,9.1595,9.1248,9.121,9.121,9.121,9.121,9.121,9.121,9.121,9.121,9.1171,9.1171,9.121,9.121,9.121,9.1018,9.0565,9.0179,8.9763,8.8847,8.8347,8.846,8.8904,8.9234,8.9417,8.9271,8.8647,8.8133,8.8133,8.8243,8.8206,8.8133,8.7766,8.7729,8.7802,8.8206,8.8096,8.7839,8.8169,8.8243,8.839,8.8647,8.8426,8.7655,8.7252,8.7068,8.7031,8.7031,8.7031,8.7031,8.7031,8.7031,8.7031,8.7031,8.7031,8.7031,8.7031,8.7031,8.7031,8.7142,8.7509,8.7802,8.8023,8.8133,8.3791,8.3797,8.3791,8.3862,8.3939,8.3862,8.4286,8.5016,8.5093,8.5363,8.5978,8.6094,8.5901,8.6055,8.6017,8.6094,8.6094,8.6094,8.6094,8.6094,8.6094,8.6247,8.6252,8.6035,8.5854,8.5355,8.4948,8.4823,8.5033,8.5155,8.5589,8.5933,8.6046,8.6386,8.6419,8.6684,8.7641,8.906,8.9944,9.0979,9.2441,9.3364,9.3864,9.4326,9.4441,9.448,9.4018,9.3864,9.3787,9.3672,9.3172,9.2441,9.1787,9.1248,9.121,9.121,9.1364,9.1287,9.0979,9.1018,9.1095,9.0979,9.0941,9.0941,9.0941,9.1056,9.1018,9.0685,9.0253,8.9627,8.8666,8.8524,8.8386,8.8867,8.9491,8.9711,8.9784,8.9784,8.9674,8.894,8.839,8.8133,8.8426,8.839,8.8463,8.861,8.9014,8.9234,8.8904,8.8867,8.8977,8.883,8.9014,8.8757,8.7986,8.7655,8.7435,8.7252,8.7215,8.7031,8.7031,8.7031,8.7031,8.7031,8.7031,8.7031,8.7031,8.7031,8.7031,8.7031,8.7105,8.7325,8.7619,8.7949,8.7986,8.4676,8.4676,8.4709,8.5055,8.5517,8.4978,8.5132,8.5824,8.5824,8.594,8.6094,8.6094,8.6094,8.6094,8.6094,8.6094,8.6094,8.6094,8.6132,8.6209,8.6247,8.6478,8.7017,8.6671,8.6565,8.6684,8.6276,8.5894,8.5852,8.5919,8.6425,8.6953,8.7103,8.7406,8.8098,8.8867,8.9444,9.0556,9.1479,9.2479,9.3557,9.4364,9.5057,9.548,9.5326,9.5018,9.4864,9.4749,9.4441,9.3826,9.4287,9.398,9.3172,9.2056,9.1479,9.1518,9.1979,9.1825,9.0864,9.0941,9.0402,8.971,8.9902,9.0248,9.0402,9.0748,9.0902,9.0302,8.9882,8.9574,9.0829,8.9887,9.0294,9.0886,9.1069,9.1216,9.1253,9.1068,9.0443,8.9197,8.839,8.8133,8.8867,8.9234,8.9124,8.9197,8.9454,8.9638,8.9454,8.9638,8.9968,8.9674,8.9344,8.8867,8.8243,8.8133,8.7949,8.7692,8.7509,8.7031,8.7031,8.7031,8.7031,8.7031,8.7031,8.7031,8.7031,8.7031,8.7031,8.7031,8.7031,8.7068,8.7288,8.7545,8.7399,8.594,8.5522,8.5517,8.5747,8.6017,8.5709,8.5747,8.6055,8.6094,8.6094,8.6094,8.6094,8.6094,8.6094,8.6094,8.6094,8.6094,8.6094,8.6363,8.6632,8.6824,8.7209,8.7979,8.7555,8.7709,8.7902,8.7632,8.7132,8.6863,8.7286,8.7594,8.794,8.8055,8.8286,8.8748,8.9402,9.0671,9.171,9.2749,9.3787,9.4864,9.548,9.5942,9.6019,9.5942,9.5711,9.5672,9.5672,9.548,9.5134,9.498,9.4749,9.4134,9.3364,9.2479,9.2595,9.2864,9.2595,9.1479,9.1633,9.1287,9.0325,9.0364,9.0556,9.0671,9.0941,9.0979,9.0493,8.9558,8.9522,9.0599,9.036,9.0404,9.1033,9.151,9.1839,9.1838,9.1823,9.0905,8.9706,8.9929,9.0076,9.0152,9.0262,8.9895,8.9858,8.9968,9.0005,9.0005,9.0372,9.0776,9.0225,8.9784,8.9528,8.894,8.8573,8.8426,8.8206,8.7655,8.7178,8.7031,8.7031,8.7031,8.7031,8.7031,8.7031,8.7031,8.7031,8.7031,8.7031,8.7031,8.7031,8.7031,8.7031,8.7031,8.6748,8.6094,8.6094,8.6094,8.6094,8.6094,8.6094,8.6094,8.6094,8.6094,8.6094,8.6094,8.6094,8.6094,8.6094,8.6094,8.6132,8.6247,8.6786,8.7248,8.7594,8.8094,8.8709,8.8786,8.8709,8.8863,8.8863,8.8479,8.7902,8.8171,8.8671,8.8902,8.894,8.921,8.971,9.0671,9.1633,9.271,9.3826,9.5018,9.5942,9.6288,9.6288,9.6288,9.6288,9.6249,9.6172,9.6172,9.6172,9.5942,9.5672,9.5249,9.5134,9.4595,9.4249,9.421,9.4057,9.3403,9.2479,9.2364,9.1748,9.0325,9.0748,9.0864,9.0979,9.0902,9.1171,9.0952,9.0205,8.9763,9.0528,9.0217,9.0458,9.1094,9.1757,9.2122,9.2283,9.2262,9.1973,9.1481,9.1831,9.1542,9.1137,9.0445,8.9931,9.0519,9.0629,9.0702,9.0776,9.1143,9.1289,9.0629,9.0262,9.0188,8.9748,8.9087,8.8904,8.8683,8.7839,8.7068,8.7031,8.7031,8.7031,8.7031,8.7031,8.7031,8.7031,8.7031,8.7031,8.7031,8.7031,8.7031,8.7031,8.7031,8.7031,8.617,8.6094,8.6094,8.6094,8.6094,8.6094,8.6094,8.6094,8.6094,8.6094,8.6094,8.6094,8.6094,8.6132,8.617,8.6132,8.6363,8.694,8.7401,8.7786,8.8286,8.8979,8.9556,8.8979,8.9363,8.9671,8.9787,8.9286,8.8902,8.8863,8.9171,8.9633,8.9979,9.0402,9.1518,9.2402,9.3749,9.4634,9.5441,9.6019,9.6249,9.6288,9.6288,9.6288,9.6288,9.6288,9.6288,9.6288,9.6288,9.6288,9.6211,9.6134,9.6134,9.6095,9.6019,9.5749,9.5134,9.3864,9.221,9.2133,9.1672,9.0248,8.9979,9.0056,9.0441,9.0902,9.121,9.1175,9.051,9.0599,9.1197,9.1365,9.187,9.2263,9.2635,9.3165,9.3395,9.332,9.2877,9.2766,9.2902,9.2017,9.1306,9.0548,9.0005,9.0739,9.1289,9.1398,9.1544,9.1907,9.1944,9.1389,9.059,9.0408,9.0005,8.9417,8.8977,8.8904,8.7986,8.7031,8.7031,8.7031,8.7031,8.7031,8.7031,8.7031,8.7031,8.7031,8.7031,8.7031,8.7031,8.7031,8.7031,8.7031,8.7178,8.6094,8.6094,8.6094,8.6094,8.6094,8.6094,8.6094,8.6094,8.6094,8.6094,8.6094,8.6094,8.6094,8.6209,8.6555,8.6863,8.7017,8.7748,8.8402,8.8709,8.9248,8.9825,9.0402,9.0325,9.0402,9.0441,9.0633,9.0556,9.0133,9.0094,9.0364,9.0633,9.1095,9.1633,9.2749,9.3826,9.448,9.5095,9.5749,9.6249,9.6288,9.6288,9.6288,9.6288,9.6288,9.6249,9.6249,9.6288,9.6288,9.6288,9.6288,9.6288,9.6288,9.6211,9.6095,9.548,9.5211,9.4249,9.2979,9.2595,9.1518,9.0671,9.0402,9.071,9.0748,9.0979,9.1479,9.1902,9.1315,9.1387,9.1988,9.2237,9.2486,9.2838,9.3401,9.3746,9.4157,9.4372,9.4243,9.4064,9.3841,9.3095,9.2417,9.2013,9.1594,9.1734,9.2209,9.2276,9.238,9.2492,9.2454,9.2232,9.138,9.0555,9.0041,8.9454,8.8757,8.8463,8.7802,8.7068,8.7031,8.7031,8.7031,8.7031,8.7031,8.7031,8.7031,8.7031,8.7031,8.7031,8.7031,8.7068,8.7178,8.7655,8.7876,8.6094,8.6094,8.6094,8.6094,8.6094,8.6094,8.6094,8.6094,8.6094,8.6094,8.6094,8.6132,8.6209,8.6517,8.7094,8.744,8.7786,8.8632,8.9286,8.9787,9.0171,9.0556,9.0902,9.1095,9.1095,9.121,9.1056,9.1018,9.1095,9.1133,9.1133,9.1518,9.1979,9.271,9.3364,9.4249,9.5018,9.548,9.6019,9.6288,9.6249,9.6019,9.6095,9.6134,9.6134,9.598,9.598,9.6249,9.6288,9.5903,9.6211,9.6288,9.6288,9.598,9.5672,9.5057,9.4595,9.3903,9.3133,9.2672,9.2056,9.1518,9.121,9.1095,9.1171,9.1325,9.1672,9.2364,9.2401,9.2487,9.2848,9.3226,9.3567,9.3804,9.4069,9.4325,9.4579,9.4817,9.4866,9.4718,9.4528,9.4579,9.4022,9.3709,9.3395,9.304,9.3051,9.314,9.3114,9.3051,9.2691,9.238,9.1786,9.0959,9.0555,8.9858,8.9014,8.8096,8.7472,8.7105,8.7031,8.7031,8.7031,8.7031,8.7031,8.7031,8.7031,8.7031,8.7031,8.7031,8.7068,8.7215,8.7472,8.8023,8.8536,8.6094,8.6094,8.6094,8.6094,8.6094,8.6094,8.6094,8.6094,8.6094,8.6132,8.6209,8.6247,8.6748,8.7248,8.7594,8.8055,8.8632,8.944,8.9863,9.0248,9.0671,9.1018,9.121,9.121,9.121,9.121,9.121,9.121,9.1248,9.1402,9.1748,9.2326,9.2633,9.3518,9.4287,9.4903,9.5518,9.5865,9.6249,9.6288,9.6057,9.5749,9.5557,9.598,9.5595,9.5095,9.5134,9.5788,9.5788,9.5172,9.5749,9.6095,9.598,9.5595,9.5172,9.4672,9.3672,9.3018,9.2556,9.2402,9.2056,9.1479,9.121,9.121,9.121,9.1941,9.2364,9.2597,9.2983,9.3573,9.402,9.4418,9.4761,9.4876,9.4998,9.5203,9.5363,9.5234,9.5318,9.5189,9.5189,9.5273,9.5234,9.4866,9.4265,9.3878,9.3821,9.3935,9.3387,9.3202,9.2699,9.2325,9.1907,9.1436,9.1326,9.0408,8.8904,8.8096,8.7509,8.7215,8.7031,8.7031,8.7031,8.7031,8.7031,8.7031,8.7031,8.7031,8.7031,8.7031,8.7178,8.7619,8.8243,8.894,8.9307,8.6094,8.6094,8.6094,8.6094,8.6094,8.6094,8.6094,8.6094,8.6094,8.644,8.6901,8.744,8.7863,8.8248,8.8786,8.9094,8.9556,9.0325,9.0594,9.0787,9.1056,9.1171,9.121,9.121,9.121,9.121,9.121,9.121,9.121,9.1556,9.2441,9.2979,9.3133,9.3903,9.4749,9.548,9.5942,9.6095,9.6288,9.6288,9.6095,9.5518,9.5403,9.6134,9.5441,9.5057,9.5057,9.5288,9.4941,9.4672,9.5095,9.5403,9.5518,9.5095,9.4672,9.421,9.3056,9.2326,9.1825,9.1748,9.1518,9.1402,9.121,9.1248,9.1287,9.1633,9.2364,9.2907,9.3601,9.4249,9.5325,9.5632,9.5823,9.5862,9.5902,9.602,9.5981,9.5783,9.5741,9.5657,9.5821,9.5941,9.5902,9.5862,9.5189,9.463,9.463,9.4528,9.3935,9.3447,9.2987,9.222,9.1799,9.1033,9.0812,8.9784,8.861,8.8059,8.7545,8.7252,8.7031,8.7031,8.7031,8.7031,8.7031,8.7068,8.7068,8.7031,8.7068,8.7178,8.7692,8.8353,8.905,8.9784,9.0152,8.6094,8.6132,8.6363,8.6478,8.6478,8.6478,8.6632,8.6863,8.6901,8.7171,8.7825,8.844,8.8863,8.9171,8.9556,9.0094,9.0364,9.0864,9.1095,9.1171,9.1171,9.121,9.121,9.121,9.121,9.121,9.121,9.121,9.121,9.1825,9.2402,9.3018,9.3672,9.4287,9.5365,9.5903,9.6211,9.598,9.6211,9.6057,9.5865,9.5365,9.5134,9.5749,9.5249,9.4788,9.4711,9.4788,9.4403,9.4018,9.4095,9.4711,9.4749,9.4518,9.4095,9.348,9.271,9.1864,9.1402,9.121,9.1364,9.1633,9.1672,9.1633,9.1633,9.1979,9.3249,9.348,9.4134,9.498,9.6288,9.6174,9.6174,9.6098,9.6136,9.6174,9.6174,9.6136,9.6136,9.6136,9.6251,9.6213,9.6174,9.6136,9.5862,9.528,9.501,9.473,9.4157,9.3706,9.3326,9.255,9.176,9.0847,9.0005,8.9451,8.8897,8.8096,8.7582,8.7215,8.7031,8.6995,8.6995,8.7031,8.7068,8.7142,8.7325,8.7509,8.7509,8.7435,8.828,8.9307,8.9784,9.0519,9.0996,8.617,8.6209,8.7017,8.7401,8.744,8.7363,8.7786,8.8325,8.8479,8.8594,8.8671,8.8863,8.9286,8.9787,9.0094,9.0441,9.0902,9.1133,9.121,9.121,9.121,9.121,9.121,9.121,9.121,9.121,9.121,9.121,9.121,9.1595,9.2056,9.2749,9.3595,9.4557,9.6057,9.6249,9.5826,9.5288,9.5903,9.5672,9.548,9.5172,9.5134,9.5326,9.4941,9.448,9.421,9.4249,9.3787,9.2903,9.3326,9.3941,9.4441,9.3441,9.3133,9.3441,9.2095,9.1364,9.1248,9.1248,9.1748,9.2364,9.2441,9.2441,9.2787,9.3518,9.421,9.4095,9.4903,9.5788,9.6249,9.6288,9.6288,9.6288,9.6288,9.6288,9.6288,9.6288,9.6288,9.6288,9.6288,9.6288,9.6288,9.6288,9.6251,9.5942,9.5533,9.501,9.4424,9.4157,9.3878,9.3101,9.2187,9.1416,9.0646,8.9873,8.9113,8.8276,8.7715,8.7468,8.7217,8.7114,8.7084,8.7027,8.7215,8.7435,8.7802,8.8133,8.828,8.8536,8.9454,9.0335,9.0776,9.1106,9.1473,8.7825,8.7863,8.8132,8.8556,8.894,8.8479,8.844,8.8748,8.921,8.9517,8.9633,9.0056,9.0441,9.071,9.0748,9.0902,9.1133,9.121,9.121,9.121,9.121,9.121,9.121,9.121,9.121,9.121,9.121,9.121,9.121,9.1556,9.2056,9.271,9.3787,9.4788,9.5288,9.5441,9.5211,9.5057,9.5326,9.548,9.5749,9.5365,9.5249,9.5672,9.4749,9.4095,9.3633,9.371,9.2903,9.2018,9.2518,9.3095,9.3441,9.2518,9.2672,9.2749,9.1787,9.1556,9.2018,9.2479,9.2941,9.3249,9.3326,9.3287,9.348,9.371,9.4134,9.4557,9.5134,9.5826,9.6134,9.6249,9.6288,9.6288,9.6288,9.6288,9.6288,9.6288,9.6288,9.6288,9.6288,9.6288,9.6288,9.6288,9.6288,9.6288,9.5902,9.5451,9.4915,9.4817,9.4579,9.3838,9.2988,9.2196,9.1381,9.0379,8.9535,8.874,8.8279,8.8084,8.7734,8.7376,8.7247,8.7298,8.75,8.7766,8.8059,8.8463,8.9234,8.9858,9.0372,9.0702,9.0886,9.1216,9.162,8.8671,8.8709,8.9017,8.9402,8.9787,8.9325,8.9248,8.9594,9.0133,9.0364,9.0479,9.0979,9.1171,9.1171,9.121,9.121,9.121,9.121,9.121,9.121,9.121,9.121,9.121,9.121,9.121,9.121,9.121,9.121,9.121,9.1748,9.2172,9.2787,9.4095,9.4557,9.4864,9.5018,9.5365,9.5288,9.5365,9.5595,9.5672,9.5557,9.5403,9.5134,9.4557,9.3903,9.3326,9.271,9.2095,9.1672,9.171,9.221,9.2326,9.2249,9.2402,9.2441,9.2556,9.2556,9.3326,9.371,9.421,9.4634,9.4364,9.4172,9.4249,9.4634,9.4749,9.5018,9.5249,9.5672,9.6172,9.6288,9.6288,9.6288,9.6288,9.6288,9.6288,9.6288,9.6288,9.6288,9.6288,9.6288,9.6288,9.6288,9.6288,9.6288,9.6251,9.5783,9.5369,9.5203,9.4867,9.4048,9.3175,9.2258,9.1394,9.0568,8.9834,8.9182,8.8918,8.8677,8.8167,8.7757,8.765,8.7497,8.7526,8.7688,8.8169,8.872,8.9417,9.0005,9.0445,9.0739,9.0959,9.1326,9.1767,8.8786,8.8902,8.9594,8.994,8.994,8.9979,9.0402,9.1133,9.1133,9.1133,9.1171,9.1133,9.121,9.121,9.121,9.121,9.121,9.121,9.121,9.121,9.121,9.121,9.121,9.121,9.121,9.121,9.121,9.1287,9.1287,9.1633,9.2056,9.2672,9.398,9.4364,9.4634,9.5249,9.5557,9.5365,9.5441,9.5595,9.5634,9.5749,9.5249,9.4749,9.421,9.3633,9.3018,9.2326,9.1864,9.1479,9.1287,9.1748,9.1864,9.1672,9.2441,9.321,9.3672,9.4403,9.4711,9.498,9.5288,9.5595,9.5211,9.5057,9.5172,9.548,9.5518,9.5557,9.5711,9.598,9.6288,9.6288,9.6288,9.6288,9.6288,9.6288,9.6288,9.6288,9.6288,9.6288,9.6288,9.6288,9.6288,9.6288,9.6288,9.6288,9.6251,9.6059,9.5623,9.5232,9.479,9.385,9.3024,9.2139,9.1382,9.0863,9.0428,8.9931,8.9669,8.9422,8.8805,8.8391,8.8367,8.8171,8.7542,8.772,8.8757,8.9271,8.9564,9.0115,9.0702,9.0665,9.0812,9.14,9.1803,9.0479,9.0517,9.071,9.0825,9.0825,9.0825,9.0979,9.121,9.121,9.121,9.121,9.121,9.121,9.121,9.121,9.121,9.121,9.121,9.121,9.121,9.1287,9.121,9.121,9.1248,9.121,9.121,9.1248,9.1441,9.1979,9.2056,9.2133,9.271,9.3749,9.4172,9.4903,9.5749,9.5557,9.5403,9.5518,9.5557,9.5518,9.5595,9.498,9.4518,9.3595,9.3056,9.2633,9.1979,9.1556,9.1402,9.1248,9.1479,9.1441,9.1941,9.2903,9.4518,9.548,9.6365,9.6019,9.5903,9.6057,9.6095,9.5595,9.5557,9.5749,9.6057,9.6134,9.6057,9.6019,9.6211,9.6288,9.6288,9.6288,9.6288,9.6288,9.6288,9.6288,9.6288,9.6288,9.6288,9.6288,9.6288,9.6288,9.6288,9.6288,9.6288,9.6251,9.6059,9.5943,9.5517,9.4783,9.3912,9.3174,9.2398,9.1892,9.141,9.1028,9.0683,9.0444,9.0155,8.9855,8.9476,8.928,8.8666,8.7813,8.8562,8.9895,9.0003,8.9514,9.0517,9.1141,9.0849,9.0776,9.147,9.202,9.121,9.121,9.121,9.121,9.121,9.121,9.121,9.121,9.121,9.121,9.121,9.121,9.121,9.121,9.121,9.121,9.121,9.121,9.121,9.1248,9.1479,9.1441,9.1402,9.1441,9.1479,9.1364,9.1248,9.1402,9.2018,9.2402,9.2518,9.2633,9.3557,9.4364,9.5095,9.5749,9.598,9.5749,9.5595,9.5634,9.548,9.5211,9.4788,9.398,9.2864,9.2633,9.2479,9.1864,9.1902,9.2095,9.221,9.221,9.2518,9.3326,9.4172,9.5749,9.6942,9.7211,9.6942,9.6788,9.6634,9.6365,9.6057,9.6172,9.6095,9.6211,9.6249,9.6249,9.6249,9.6288,9.6288,9.6288,9.6288,9.6288,9.6288,9.6288,9.6288,9.6288,9.6288,9.6288,9.6288,9.6288,9.6288,9.6288,9.6288,9.6288,9.6288,9.6251,9.6136,9.5944,9.506,9.4023,9.3409,9.2794,9.2287,9.171,9.1331,9.1028,9.0952,9.0762,9.0643,9.0105,8.9402,8.8671,8.7858,8.8809,8.9706,8.9498,8.9329,9.0389,9.1417,9.1424,9.1461,9.1882,9.2431,9.121,9.121,9.121,9.121,9.121,9.121,9.121,9.121,9.121,9.121,9.121,9.121,9.121,9.121,9.121,9.121,9.121,9.121,9.121,9.121,9.171,9.171,9.1556,9.1864,9.1595,9.1325,9.121,9.1287,9.1479,9.1979,9.2518,9.2633,9.3903,9.4711,9.5057,9.5865,9.6057,9.5749,9.5672,9.5634,9.5095,9.4711,9.4172,9.3056,9.2633,9.2518,9.2633,9.271,9.2941,9.3403,9.3633,9.3518,9.4172,9.5211,9.6057,9.6865,9.8019,9.7942,9.7519,9.7134,9.6788,9.6711,9.6903,9.6788,9.6634,9.6634,9.6673,9.6326,9.6288,9.6288,9.6288,9.6019,9.5903,9.598,9.6057,9.6172,9.6288,9.6288,9.6288,9.6288,9.6288,9.6288,9.6288,9.6288,9.6288,9.6288,9.6288,9.6288,9.6249,9.6172,9.5441,9.4326,9.3403,9.2787,9.2172,9.1633,9.1364,9.1175,9.121,9.1136,9.0915,9.0245,8.9384,8.8673,8.8032,8.828,8.8809,8.8709,8.9136,9.0543,9.1408,9.1918,9.2203,9.2468,9.2331,9.121,9.121,9.121,9.121,9.121,9.121,9.121,9.121,9.121,9.121,9.121,9.121,9.121,9.121,9.121,9.121,9.121,9.121,9.121,9.1248,9.1595,9.1672,9.1325,9.1595,9.1441,9.1287,9.121,9.121,9.1364,9.1941,9.2518,9.2633,9.371,9.4326,9.5018,9.5826,9.5942,9.5518,9.5288,9.5288,9.5018,9.3864,9.2903,9.2903,9.3018,9.3018,9.3133,9.3441,9.3518,9.3672,9.3672,9.4018,9.4711,9.6326,9.7057,9.7519,9.8673,9.8557,9.7942,9.725,9.6788,9.6557,9.6634,9.6903,9.7057,9.7134,9.698,9.6557,9.6172,9.6172,9.6057,9.5711,9.5518,9.5672,9.5865,9.6057,9.6249,9.6288,9.6288,9.6288,9.6288,9.6288,9.6288,9.6288,9.6288,9.6288,9.6288,9.6288,9.6288,9.6211,9.5865,9.4788,9.3403,9.2633,9.2133,9.1787,9.1595,9.1325,9.1287,9.1248,9.121,9.0287,8.9411,8.8781,8.8316,8.8567,8.8544,8.8066,8.8856,9.0434,9.1395,9.1901,9.2388,9.273,9.2315,9.121,9.121,9.121,9.121,9.121,9.121,9.121,9.121,9.121,9.121,9.121,9.121,9.121,9.121,9.121,9.121,9.121,9.121,9.121,9.1248,9.1479,9.1518,9.1479,9.1479,9.1441,9.1364,9.1248,9.1248,9.1325,9.1595,9.2056,9.2903,9.3595,9.4172,9.498,9.548,9.5595,9.5018,9.4711,9.4711,9.4826,9.3864,9.321,9.3403,9.3441,9.3518,9.398,9.4326,9.4557,9.4711,9.4941,9.5095,9.5749,9.6749,9.7596,9.8134,9.875,9.9096,9.8173,9.748,9.6865,9.6596,9.7211,9.7827,9.6826,9.6865,9.698,9.648,9.5095,9.4864,9.5018,9.4826,9.5095,9.5326,9.5788,9.6172,9.6249,9.6288,9.6288,9.6288,9.6288,9.6288,9.6288,9.6288,9.6288,9.6288,9.6288,9.6288,9.6288,9.6288,9.5942,9.548,9.4172,9.3326,9.3018,9.2518,9.1979,9.1748,9.1364,9.1287,9.1139,9.0241,8.9438,8.9197,8.8952,8.8766,8.8563,8.8493,8.895,9.0397,9.1256,9.1898,9.2353,9.2744,9.267,9.121,9.121,9.121,9.121,9.121,9.121,9.121,9.121,9.121,9.121,9.121,9.121,9.121,9.121,9.121,9.121,9.121,9.121,9.121,9.1364,9.1864,9.1595,9.1595,9.1787,9.1556,9.1479,9.1441,9.1287,9.1248,9.1787,9.2633,9.3557,9.398,9.4326,9.4903,9.5172,9.5249,9.4941,9.4672,9.448,9.4364,9.421,9.3903,9.3787,9.3941,9.4326,9.4864,9.5288,9.5634,9.5826,9.6019,9.6019,9.6288,9.698,9.7403,9.8019,9.8288,9.8404,9.8134,9.7865,9.7211,9.7057,9.8096,9.8019,9.6942,9.6634,9.6749,9.5942,9.4557,9.398,9.4134,9.4287,9.4634,9.5211,9.5749,9.6211,9.6249,9.6288,9.6288,9.6288,9.6288,9.6288,9.6288,9.6288,9.6288,9.6288,9.6288,9.6288,9.6288,9.6288,9.6134,9.5942,9.5288,9.4595,9.3826,9.3018,9.2326,9.1748,9.1402,9.1364,9.1105,9.044,9.0053,9.0159,8.9915,8.9409,8.9537,8.9688,9.0207,9.0599,9.0738,9.1271,9.1476,9.1991,9.2833,9.121,9.121,9.121,9.121,9.121,9.121,9.121,9.121,9.121,9.121,9.121,9.121,9.121,9.121,9.121,9.121,9.121,9.121,9.121,9.1325,9.1672,9.1441,9.1479,9.1941,9.1441,9.1633,9.1979,9.1864,9.2287,9.2903,9.3364,9.3941,9.4595,9.5134,9.5826,9.5865,9.5518,9.5095,9.4903,9.4826,9.4711,9.4557,9.4326,9.4403,9.4749,9.5326,9.5788,9.6019,9.6134,9.6249,9.6288,9.6288,9.6519,9.6903,9.725,9.7403,9.7634,9.7557,9.748,9.7403,9.6749,9.6596,9.7365,9.775,9.6903,9.6442,9.6172,9.5403,9.4364,9.3903,9.3941,9.3903,9.4172,9.5095,9.5788,9.6095,9.6288,9.6288,9.6288,9.6288,9.6288,9.6288,9.6288,9.6288,9.6288,9.6288,9.6288,9.6288,9.6288,9.6288,9.6288,9.6172,9.6019,9.5057,9.398,9.321,9.2479,9.1902,9.1479,9.1556,9.1297,9.0717,9.047,9.0627,9.0365,8.9855,9.0152,9.0593,9.0616,9.0722,9.0395,9.046,9.0784,9.1449,9.2486]},{"header":{"parameterUnit":"m.s-1","parameterCategory":1,"la1":31.0,"la2":29.5877,"lo1":-88.7671,"lo2":-86.6584,"dx":0.0162,"dy":0.0185,"nx":115,"ny":88,"refTime":"2022-12-17T18:00:00:Z","depth":0,"parameterNumber":3,"parameterNumberName":"V-component_of_WINDS"},"data":[0.0,0.0,0.0,0.0,0.0,0.0,0.0,0.0,0.0,0.0,0.0,0.0,0.0,0.0,0.0,0.0,0.0,0.0,0.0,0.0,0.0,0.0,0.0,0.0,0.0,0.0,0.0,0.0,0.0,0.0,0.0,0.0,0.0,0.0,0.0,0.0,0.0,0.0,0.0,0.0,0.0,0.0,0.0,0.0,0.0,0.0,0.0,0.0,0.0,0.0,0.0,0.0,0.0,0.0,0.0,0.0,0.0,0.0,0.0,0.0,0.0,0.0,0.0,0.0,0.0,0.0,0.0,0.0,0.0,0.0,0.0,0.0,0.0,0.0,0.0,0.0,0.0,0.0,0.0,0.0,0.0,0.0,0.0,0.0,0.0,0.0,0.0,0.0,0.0,0.0,0.0,0.0,0.0,0.0,0.0,0.0,0.0,0.0,0.0,0.0,0.0,0.0,0.0,0.0,0.0,0.0,0.0,0.0,0.0,0.0,0.0,0.0,0.0,0.0,0.0,0.0,0.0,0.0,0.0,0.0,0.0,0.0,0.0,0.0,0.0,0.0,0.0,0.0,0.0,0.0,0.0,0.0,0.0,0.0,0.0,0.0,0.0,0.0,0.0,0.0,0.0,0.0,0.0,0.0,0.0,0.0,0.0,0.0,0.0,0.0,0.0,0.0,0.0,0.0,0.0,0.0,0.0,0.0,0.0,0.0,0.0,0.0,0.0,0.0,0.0,0.0,0.0,0.0,0.0,0.0,0.0,0.0,0.0,0.0,0.0,0.0,0.0,0.0,0.0,0.0,0.0,0.0,0.0,0.0,0.0,0.0,0.0,0.0,0.0,0.0,0.0,0.0,0.0,0.0,0.0,0.0,0.0,0.0,0.0,0.0,0.0,0.0,0.0,0.0,0.0,0.0,0.0,0.0,0.0,0.0,0.0,0.0,0.0,0.0,0.0,0.0,0.0,0.0,0.0,0.0,0.0,0.0,0.0,0.0,0.0,0.0,0.0,0.0,0.0,0.0,0.0,0.0,0.0,0.0,0.0,0.0,0.0,0.0,0.0,0.0,0.0,0.0,0.0,0.0,0.0,0.0,0.0,0.0,0.0,0.0,0.0,0.0,0.0,0.0,0.0,0.0,0.0,0.0,0.0,0.0,0.0,0.0,0.0,0.0,0.0,0.0,0.0,0.0,0.0,0.0,0.0,0.0,0.0,0.0,0.0,0.0,0.0,0.0,0.0,0.0,0.0,0.0,0.0,0.0,0.0,0.0,0.0,0.0,0.0,0.0,0.0,0.0,0.0,0.0,0.0,0.0,0.0,0.0,0.0,0.0,0.0,0.0,0.0,0.0,0.0,0.0,0.0,0.0,0.0,0.0,0.0,0.0,0.0,0.0,0.0,0.0,0.0,0.0,0.0,0.0,0.0,0.0,0.0,0.0,0.0,0.0,0.0,0.0,0.0,0.0,0.0,0.0,0.0,0.0,0.0,0.0,0.0,0.0,0.0,0.0,0.0,0.0,0.0,0.0,0.0,0.0,0.0,0.0,0.0,0.0,0.0,0.0,0.0,0.0,0.0,0.0,0.0,0.0,0.0,0.0,0.0,0.0,0.0,0.0,0.0,0.0,0.0,0.0,0.0,0.0,0.0,0.0,0.0,0.0,0.0,0.0,0.0,0.0,0.0,0.0,0.0,0.0,0.0,0.0,0.0,0.0,0.0,0.0,0.0,0.0,0.0,0.0,0.0,0.0,0.0,0.0,0.0,0.0,0.0,0.0,0.0,0.0,0.0,0.0,0.0,0.0,0.0,0.0,0.0,0.0,0.0,0.0,0.0,0.0,0.0,0.0,0.0,0.0,0.0,0.0,0.0,0.0,0.0,0.0,0.0,0.0,0.0,0.0,0.0,0.0,0.0,0.0,0.0,0.0,0.0,0.0,0.0,0.0,0.0,0.0,0.0,0.0,0.0,0.0,0.0,0.0,0.0,0.0,0.0,0.0,0.0,0.0,0.0,0.0,0.0,0.0,0.0,0.0,0.0,0.0,0.0,0.0,0.0,0.0,0.0,0.0,0.0,0.0,0.0,0.0,0.0,0.0,0.0,0.0,0.0,0.0,0.0,0.0,0.0,0.0,0.0,0.0,0.0,0.0,0.0,0.0,0.0,0.0,0.0,0.0,0.0,0.0,0.0,0.0,0.0,0.0,0.0,0.0,0.0,0.0,0.0,0.0,0.0,0.0,0.0,0.0,0.0,0.0,0.0,0.0,0.0,0.0,0.0,0.0,0.0,0.0,0.0,0.0,0.0,0.0,0.0,0.0,0.0,0.0,0.0,0.0,0.0,0.0,0.0,0.0,0.0,0.0,0.0,0.0,0.0,0.0,0.0,0.0,0.0,0.0,0.0,0.0,0.0,0.0,0.0,0.0,0.0,0.0,0.0,0.0,0.0,0.0,0.0,0.0,0.0,0.0,0.0,0.0,0.0,0.0,0.0,0.0,0.0,0.0,0.0,0.0,0.0,0.0,0.0,0.0,0.0,0.0,0.0,0.0,0.0,0.0,0.0,0.0,0.0,0.0,0.0,0.0,0.0,0.0,0.0,0.0,0.0,0.0,0.0,0.0,0.0,0.0,0.0,0.0,0.0,0.0,0.0,0.0,0.0,0.0,0.0,0.0,0.0,0.0,0.0,0.0,0.0,0.0,0.0,0.0,0.0,0.0,0.0,0.0,0.0,0.0,0.0,0.0,0.0,0.0,0.0,0.0,0.0,0.0,0.0,0.0,0.0,0.0,0.0,0.0,0.0,0.0,0.0,0.0,0.0,0.0,0.0,0.0,0.0,0.0,0.0,0.0,0.0,0.0,0.0,0.0,0.0,0.0,0.0,0.0,0.0,0.0,0.0,0.0,0.0,0.0,0.0,0.0,0.0,0.0,0.0,0.0,0.0,0.0,0.0,0.0,0.0,0.0,0.0,0.0,0.0,0.0,0.0,0.0,0.0,0.0,0.0,0.0,0.0,0.0,0.0,0.0,0.0,0.0,0.0,0.0,0.0,0.0,0.0,0.0,0.0,0.0,0.0,0.0,0.0,0.0,0.0,0.0,0.0,0.0,0.0,0.0,0.0,0.0,0.0,0.0,0.0,0.0,0.0,0.0,0.0,0.0,0.0,0.0,0.0,0.0,0.0,0.0,0.0,0.0,0.0,0.0,0.0,0.0,0.0,0.0,0.0,0.0,0.0,0.0,0.0,0.0,0.0,0.0,0.0,0.0,0.0,0.0,0.0,0.0,0.0,0.0,0.0,0.0,0.0,0.0,0.0,0.0,0.0,0.0,0.0,0.0,0.0,0.0,0.0,0.0,0.0,0.0,0.0,0.0,0.0,0.0,0.0,0.0,0.0,0.0,0.0,0.0,0.0,0.0,0.0,0.0,0.0,0.0,0.0,0.0,0.0,0.0,0.0,0.0,0.0,0.0,0.0,0.0,0.0,0.0,0.0,0.0,0.0,0.0,0.0,0.0,0.0,0.0,0.0,0.0,0.0,0.0,0.0,0.0,0.0,0.0,0.0,0.0,0.0,0.0,0.0,0.0,0.0,0.0,0.0,0.0,0.0,0.0,0.0,0.0,0.0,0.0,0.0,0.0,0.0,0.0,0.0,0.0,0.0,0.0,0.0,0.0,0.0,0.0,0.0,0.0,0.0,0.0,0.0,0.0,0.0,0.0,0.0,0.0,0.0,0.0,0.0,0.0,0.0,0.0,0.0,0.0,0.0,0.0,0.0,0.0,0.0,0.0,0.0,0.0,0.0,0.0,0.0,0.0,0.0,0.0,0.0,0.0,0.0,0.0,0.0,0.0,0.0,0.0,0.0,0.0,0.0,0.0,0.0,0.0,0.0,0.0,0.0,0.0,0.0,0.0,0.0,0.0,0.0,0.0,0.0,0.0,0.0,0.0,0.0,0.0,0.0,0.0,0.0,0.0,0.0,0.0,0.0,0.0,0.0,0.0,0.0,0.0,0.0,0.0,0.0,0.0,0.0,0.0,0.0,0.0,0.0,0.0,0.0,0.0,0.0,0.0,0.0,0.0,0.0,0.0,0.0,0.0,0.0,0.0,0.0,0.0,0.0,0.0,0.0,0.0,0.0,0.0,0.0,0.0,0.0,0.0,0.0,0.0,0.0,0.0,0.0,0.0,0.0,0.0,0.0,0.0,0.0,0.0,0.0,0.0,0.0,0.0,0.0,0.0,0.0,0.0,0.0,0.0,0.0,0.0,-1.1637,0.0,0.0,0.0,-1.1239,0.0,0.0,0.0,0.0,0.0,0.0,0.0,0.0,0.0,0.0,0.0,0.0,0.0,0.0,0.0,0.0,0.0,0.0,0.0,0.0,0.0,0.0,0.0,0.0,0.0,0.0,0.0,0.0,0.0,0.0,0.0,0.0,0.0,0.0,0.0,0.0,0.0,0.0,0.0,0.0,0.0,0.0,0.0,0.0,0.0,0.0,0.0,0.0,0.0,0.0,0.0,0.0,0.0,0.0,0.0,0.0,0.0,0.0,0.0,0.0,0.0,0.0,0.0,0.0,0.0,0.0,0.0,0.0,0.0,0.0,0.0,0.0,0.0,0.0,0.0,0.0,0.0,0.0,0.0,0.0,0.0,0.0,0.0,0.0,0.0,0.0,0.0,0.0,0.0,0.0,0.0,0.0,0.0,0.0,0.0,0.0,0.0,0.0,0.0,0.0,0.0,0.0,0.0,0.0,0.0,0.0,0.0,0.0,0.0,0.0,-1.1233,-1.1076,-1.1005,-1.0887,-1.0715,0.0,0.0,0.0,0.0,0.0,0.0,0.0,0.0,0.0,0.0,0.0,0.0,0.0,0.0,0.0,0.0,0.0,0.0,0.0,0.0,0.0,0.0,0.0,0.0,0.0,0.0,0.0,0.0,0.0,0.0,0.0,0.0,0.0,0.0,0.0,0.0,0.0,0.0,0.0,0.0,0.0,0.0,0.0,0.0,0.0,0.0,0.0,0.0,0.0,0.0,0.0,0.0,0.0,0.0,0.0,0.0,0.0,0.0,0.0,0.0,0.0,0.0,0.0,0.0,0.0,0.0,0.0,0.0,0.0,0.0,0.0,0.0,0.0,0.0,0.0,0.0,0.0,0.0,0.0,0.0,0.0,0.0,0.0,0.0,0.0,0.0,0.0,0.0,0.0,0.0,0.0,0.0,0.0,0.0,0.0,0.0,0.0,0.0,0.0,0.0,0.0,0.0,0.0,0.0,0.0,0.0,0.0,0.0,0.0,0.0,0.0,0.0,-1.0759,-1.0606,-1.0299,0.0,0.0,0.0,0.0,0.0,0.0,0.0,0.0,0.0,0.0,0.0,0.0,0.0,0.0,0.0,0.0,0.0,0.0,0.0,0.0,0.0,0.0,0.0,0.0,0.0,0.0,0.0,0.0,0.0,0.0,0.0,0.0,0.0,0.0,0.0,0.0,0.0,0.0,0.0,0.0,0.0,0.0,0.0,0.0,0.0,0.0,0.0,0.0,0.0,0.0,0.0,0.0,0.0,0.0,0.0,0.0,0.0,0.0,0.0,0.0,0.0,0.0,0.0,0.0,0.0,0.0,0.0,0.0,0.0,0.0,0.0,0.0,0.0,0.0,0.0,0.0,0.0,0.0,0.0,0.0,0.0,0.0,0.0,0.0,0.0,0.0,0.0,0.0,0.0,0.0,0.0,0.0,0.0,0.0,0.0,0.0,0.0,0.0,0.0,0.0,0.0,0.0,0.0,0.0,0.0,0.0,0.0,0.0,0.0,0.0,-1.1189,-1.1055,-1.0948,0.0,-0.9995,0.0,0.0,0.0,0.0,0.0,0.0,0.0,0.0,0.0,0.0,0.0,0.0,0.0,0.0,0.0,0.0,0.0,0.0,0.0,0.0,0.0,0.0,0.0,0.0,0.0,0.0,0.0,0.0,0.0,0.0,0.0,0.0,0.0,0.0,0.0,0.0,0.0,0.0,0.0,0.0,0.0,0.0,0.0,0.0,0.0,0.0,0.0,0.0,0.0,0.0,0.0,0.0,0.0,0.0,0.0,0.0,0.0,0.0,0.0,0.0,0.0,0.0,0.0,0.0,0.0,0.0,0.0,0.0,0.0,0.0,0.0,0.0,0.0,0.0,0.0,0.0,0.0,0.0,0.0,0.0,0.0,0.0,0.0,0.0,0.0,0.0,0.0,0.0,0.0,0.0,0.0,0.0,0.0,0.0,0.0,0.0,0.0,0.0,0.0,0.0,0.0,0.0,0.0,0.0,0.0,0.0,0.0,0.0,0.0,0.0,-1.1458,-1.134,-1.084,-1.0427,0.0,0.0,0.0,0.0,0.0,0.0,0.0,0.0,0.0,0.0,0.0,0.0,0.0,0.0,0.0,0.0,0.0,0.0,0.0,0.0,0.0,0.0,0.0,0.0,0.0,0.0,0.0,0.0,0.0,0.0,0.0,0.0,0.0,0.0,0.0,0.0,0.0,0.0,0.0,0.0,0.0,0.0,0.0,0.0,0.0,0.0,0.0,0.0,0.0,0.0,0.0,0.0,0.0,0.0,0.0,0.0,0.0,0.0,0.0,0.0,0.0,0.0,0.0,0.0,0.0,0.0,0.0,0.0,0.0,0.0,0.0,0.0,0.0,0.0,0.0,0.0,0.0,0.0,0.0,0.0,0.0,0.0,0.0,0.0,0.0,0.0,0.0,0.0,0.0,0.0,0.0,0.0,0.0,0.0,0.0,0.0,0.0,0.0,0.0,0.0,0.0,0.0,0.0,0.0,0.0,0.0,0.0,0.0,0.0,0.0,-1.1623,-1.1715,-1.1505,-1.0979,-1.0463,-1.0032,0.0,0.0,0.0,0.0,0.0,0.0,0.0,0.0,0.0,0.0,0.0,0.0,0.0,0.0,0.0,0.0,0.0,0.0,0.0,0.0,0.0,0.0,0.0,0.0,0.0,0.0,0.0,0.0,0.0,0.0,0.0,0.0,0.0,0.0,0.0,0.0,0.0,0.0,0.0,0.0,0.0,0.0,0.0,0.0,0.0,0.0,0.0,0.0,0.0,0.0,0.0,0.0,0.0,0.0,0.0,0.0,0.0,0.0,0.0,0.0,0.0,0.0,0.0,0.0,0.0,0.0,0.0,0.0,0.0,0.0,0.0,0.0,0.0,0.0,0.0,0.0,0.0,0.0,0.0,0.0,0.0,0.0,0.0,0.0,0.0,0.0,0.0,0.0,0.0,0.0,0.0,0.0,0.0,0.0,0.0,0.0,0.0,0.0,0.0,0.0,0.0,0.0,0.0,0.0,0.0,0.0,0.0,0.0,-1.1589,-1.192,-1.1931,-1.1623,-1.1476,-1.0888,0.0,0.0,0.0,0.0,0.0,0.0,0.0,0.0,0.0,0.0,0.0,0.0,0.0,0.0,0.0,0.0,0.0,0.0,0.0,0.0,0.0,0.0,0.0,0.0,0.0,0.0,0.0,0.0,0.0,0.0,0.0,0.0,0.0,0.0,0.0,0.0,0.0,0.0,0.0,0.0,0.0,0.0,0.0,0.0,0.0,0.0,0.0,0.0,0.0,0.0,0.0,0.0,0.0,0.0,0.0,0.0,0.0,0.0,0.0,0.0,0.0,0.0,0.0,0.0,0.0,0.0,0.0,0.0,0.0,0.0,0.0,0.0,0.0,0.0,0.0,0.0,0.0,0.0,0.0,0.0,0.0,0.0,0.0,0.0,0.0,0.0,0.0,0.0,0.0,0.0,0.0,0.0,0.0,0.0,0.0,0.0,0.0,0.0,0.0,0.0,0.0,0.0,0.0,0.0,0.0,0.0,0.0,0.0,0.0,-1.1913,-1.2468,-1.2564,-1.2173,-1.1841,-1.1295,0.0,0.0,0.0,0.0,0.0,0.0,0.0,0.0,0.0,0.0,0.0,0.0,0.0,0.0,0.0,0.0,0.0,0.0,0.0,0.0,0.0,0.0,0.0,0.0,0.0,0.0,0.0,0.0,0.0,0.0,0.0,0.0,0.0,0.0,0.0,0.0,0.0,0.0,0.0,0.0,0.0,0.0,0.0,0.0,0.0,0.0,0.0,0.0,0.0,0.0,0.0,0.0,0.0,0.0,0.0,0.0,0.0,0.0,0.0,0.0,0.0,0.0,0.0,0.0,0.0,0.0,0.0,0.0,0.0,0.0,0.0,0.0,0.0,0.0,0.0,0.0,0.0,0.0,0.0,0.0,0.0,0.0,0.0,0.0,0.0,0.0,0.0,0.0,0.0,0.0,0.0,0.0,0.0,0.0,0.0,0.0,0.0,0.0,0.0,0.0,0.0,0.0,0.0,0.0,0.0,0.0,0.0,0.0,0.0,-1.2746,-1.3128,-1.3157,-1.2751,-1.2425,-1.1839,0.0,0.0,0.0,0.0,0.0,0.0,0.0,0.0,0.0,0.0,0.0,0.0,0.0,0.0,0.0,0.0,0.0,0.0,0.0,0.0,0.0,0.0,0.0,0.0,0.0,0.0,0.0,0.0,0.0,0.0,0.0,0.0,0.0,0.0,0.0,0.0,0.0,0.0,0.0,0.0,0.0,0.0,0.0,0.0,0.0,0.0,0.0,0.0,0.0,0.0,0.0,0.0,0.0,0.0,0.0,0.0,0.0,0.0,0.0,0.0,0.0,0.0,0.0,0.0,0.0,0.0,0.0,0.0,0.0,0.0,0.0,0.0,0.0,0.0,0.0,0.0,0.0,0.0,0.0,0.0,0.0,0.0,0.0,0.0,0.0,0.0,0.0,0.0,0.0,0.0,0.0,0.0,0.0,0.0,0.0,0.0,0.0,0.0,0.0,0.0,0.0,0.0,0.0,0.0,0.0,0.0,0.0,0.0,-1.3058,-1.4045,-1.3982,-1.3696,-1.3228,-1.3207,-1.251,0.0,0.0,0.0,0.0,0.0,0.0,0.0,0.0,0.0,0.0,0.0,0.0,0.0,0.0,0.0,0.0,0.0,0.0,0.0,0.0,0.0,0.0,0.0,0.0,0.0,0.0,0.0,0.0,0.0,0.0,0.0,0.0,0.0,0.0,0.0,0.0,0.0,0.0,0.0,0.0,0.0,0.0,0.0,0.0,0.0,0.0,0.0,0.0,0.0,0.0,0.0,0.0,0.0,0.0,0.0,0.0,0.0,0.0,0.0,0.0,0.0,0.0,0.0,0.0,0.0,0.0,0.0,0.0,0.0,0.0,0.0,0.0,0.0,0.0,0.0,0.0,0.0,0.0,0.0,0.0,0.0,0.0,0.0,0.0,0.0,0.0,0.0,0.0,0.0,0.0,0.0,0.0,0.0,0.0,0.0,0.0,0.0,0.0,0.0,0.0,0.0,0.0,0.0,0.0,0.0,0.0,0.0,0.0,0.0,-1.4493,-1.4573,-1.452,-1.4449,-1.3831,-1.2997,0.0,0.0,0.0,0.0,0.0,0.0,0.0,0.0,0.0,0.0,0.0,0.0,0.0,0.0,0.0,0.0,0.0,0.0,0.0,0.0,0.0,0.0,0.0,0.0,0.0,0.0,0.0,0.0,0.0,0.0,0.0,0.0,0.0,0.0,0.0,0.0,0.0,0.0,0.0,0.0,0.0,0.0,0.0,0.0,0.0,0.0,0.0,0.0,0.0,0.0,0.0,0.0,0.0,0.0,0.0,0.0,0.0,0.0,0.0,0.0,0.0,0.0,0.0,0.0,0.0,0.0,0.0,0.0,0.0,0.0,0.0,0.0,0.0,0.0,0.0,0.0,0.0,0.0,0.0,0.0,0.0,0.0,0.0,0.0,0.0,0.0,0.0,0.0,0.0,0.0,0.0,0.0,0.0,0.0,0.0,0.0,0.0,0.0,0.0,0.0,0.0,0.0,0.0,0.0,0.0,0.0,0.0,0.0,0.0,-1.5718,-1.5841,-1.5994,-1.6049,-1.505,-1.3923,-1.2704,0.0,0.0,0.0,0.0,0.0,0.0,0.0,0.0,0.0,0.0,0.0,0.0,0.0,0.0,0.0,0.0,0.0,0.0,0.0,0.0,0.0,0.0,0.0,0.0,0.0,0.0,0.0,0.0,0.0,0.0,0.0,0.0,0.0,0.0,0.0,0.0,0.0,0.0,0.0,0.0,0.0,0.0,0.0,0.0,0.0,0.0,0.0,0.0,0.0,0.0,0.0,0.0,0.0,0.0,0.0,0.0,0.0,0.0,0.0,0.0,0.0,0.0,0.0,0.0,0.0,0.0,0.0,0.0,0.0,0.0,0.0,0.0,0.0,0.0,0.0,0.0,0.0,0.0,0.0,0.0,0.0,0.0,0.0,0.0,0.0,0.0,0.0,0.0,0.0,0.0,0.0,0.0,0.0,0.0,0.0,0.0,0.0,0.0,0.0,0.0,0.0,0.0,0.0,0.0,0.0,0.0,0.0,0.0,-1.7442,-1.7764,-1.7875,-1.7877,-1.6736,-1.5155,0.0,0.0,0.0,0.0,0.0,0.0,0.0,0.0,0.0,0.0,0.0,0.0,0.0,0.0,0.0,0.0,0.0,0.0,0.0,0.0,0.0,0.0,0.0,0.0,0.0,0.0,0.0,0.0,0.0,0.0,0.0,0.0,0.0,0.0,0.0,0.0,0.0,0.0,0.0,0.0,0.0,0.0,0.0,0.0,0.0,0.0,0.0,0.0,0.0,0.0,0.0,0.0,0.0,0.0,0.0,0.0,0.0,0.0,0.0,0.0,0.0,0.0,0.0,0.0,0.0,0.0,0.0,0.0,0.0,0.0,0.0,0.0,0.0,0.0,0.0,0.0,0.0,0.0,0.0,0.0,0.0,0.0,0.0,0.0,0.0,0.0,0.0,0.0,0.0,0.0,0.0,0.0,0.0,0.0,0.0,0.0,0.0,0.0,0.0,0.0,0.0,0.0,0.0,0.0,0.0,0.0,0.0,0.0,0.0,-1.9668,-2.0297,-1.9827,-1.8074,-1.6846,-1.5683,0.0,0.0,0.0,0.0,0.0,0.0,0.0,0.0,0.0,0.0,0.0,0.0,0.0,0.0,0.0,0.0,0.0,0.0,0.0,0.0,0.0,0.0,0.0,0.0,0.0,0.0,0.0,0.0,0.0,0.0,0.0,0.0,0.0,0.0,0.0,0.0,0.0,0.0,0.0,0.0,0.0,0.0,0.0,0.0,0.0,0.0,0.0,0.0,0.0,0.0,0.0,0.0,0.0,0.0,0.0,0.0,0.0,0.0,0.0,0.0,0.0,0.0,0.0,0.0,0.0,0.0,0.0,0.0,0.0,0.0,0.0,0.0,0.0,0.0,0.0,0.0,0.0,0.0,0.0,0.0,0.0,0.0,0.0,0.0,0.0,0.0,0.0,0.0,0.0,0.0,0.0,0.0,0.0,0.0,0.0,0.0,0.0,0.0,0.0,0.0,0.0,0.0,0.0,0.0,0.0,0.0,0.0,0.0,-2.0049,-2.0053,-2.1001,-2.0496,-1.8267,-1.743,-1.6376,0.0,0.0,0.0,0.0,0.0,0.0,0.0,0.0,0.0,0.0,0.0,0.0,0.0,0.0,0.0,0.0,0.0,0.0,0.0,0.0,0.0,0.0,0.0,0.0,0.0,0.0,0.0,0.0,0.0,0.0,0.0,0.0,0.0,0.0,0.0,0.0,0.0,0.0,0.0,0.0,0.0,0.0,0.0,0.0,0.0,0.0,0.0,0.0,0.0,0.0,0.0,0.0,0.0,0.0,0.0,0.0,0.0,0.0,0.0,0.0,0.0,0.0,0.0,0.0,0.0,0.0,0.0,0.0,0.0,0.0,0.0,0.0,0.0,0.0,0.0,0.0,0.0,0.0,0.0,0.0,0.0,0.0,0.0,0.0,0.0,0.0,0.0,0.0,0.0,0.0,0.0,0.0,0.0,0.0,0.0,0.0,0.0,0.0,0.0,0.0,0.0,0.0,0.0,0.0,0.0,0.0,0.0,0.0,-2.0149,-1.9641,-2.0695,-2.0415,-1.8581,-1.8122,-1.7022,0.0,0.0,0.0,0.0,0.0,0.0,0.0,0.0,0.0,0.0,0.0,0.0,0.0,0.0,0.0,0.0,0.0,0.0,0.0,0.0,0.0,0.0,0.0,0.0,0.0,0.0,0.0,0.0,0.0,0.0,0.0,0.0,0.0,0.0,0.0,0.0,0.0,0.0,0.0,0.0,0.0,0.0,0.0,0.0,0.0,0.0,0.0,0.0,0.0,0.0,0.0,0.0,0.0,0.0,0.0,0.0,0.0,0.0,0.0,0.0,0.0,0.0,0.0,0.0,0.0,0.0,0.0,0.0,0.0,0.0,0.0,0.0,0.0,0.0,0.0,0.0,0.0,0.0,0.0,0.0,0.0,0.0,0.0,0.0,0.0,0.0,0.0,0.0,0.0,0.0,0.0,0.0,0.0,0.0,0.0,0.0,0.0,0.0,0.0,0.0,0.0,0.0,0.0,0.0,0.0,0.0,0.0,0.0,-2.0473,-2.0106,-2.0755,-2.0241,-1.8557,-1.8066,-1.7092,0.0,0.0,0.0,0.0,0.0,0.0,0.0,0.0,0.0,0.0,0.0,0.0,0.0,0.0,0.0,0.0,0.0,0.0,0.0,0.0,0.0,0.0,0.0,0.0,0.0,0.0,0.0,0.0,0.0,0.0,0.0,0.0,0.0,0.0,0.0,0.0,0.0,0.0,0.0,0.0,0.0,0.0,0.0,0.0,0.0,0.0,0.0,0.0,-1.252,0.0,0.0,0.0,0.0,0.0,0.0,0.0,0.0,0.0,0.0,0.0,0.0,0.0,0.0,0.0,0.0,0.0,0.0,0.0,0.0,0.0,0.0,0.0,0.0,0.0,0.0,0.0,0.0,0.0,0.0,0.0,0.0,0.0,0.0,0.0,0.0,0.0,0.0,0.0,0.0,0.0,0.0,0.0,0.0,0.0,0.0,0.0,0.0,0.0,0.0,0.0,0.0,0.0,0.0,0.0,0.0,0.0,0.0,0.0,-2.04,-2.0252,-2.0361,-1.9712,-1.8197,-1.7613,-1.6704,0.0,0.0,0.0,0.0,0.0,0.0,0.0,0.0,0.0,0.0,0.0,0.0,0.0,0.0,0.0,0.0,0.0,0.0,0.0,0.0,0.0,0.0,0.0,0.0,0.0,0.0,0.0,0.0,0.0,0.0,0.0,0.0,0.0,0.0,0.0,0.0,0.0,0.0,0.0,0.0,0.0,0.0,0.0,0.0,0.0,0.0,0.0,0.0,0.0,0.0,0.0,0.0,0.0,0.0,0.0,0.0,0.0,0.0,0.0,0.0,0.0,0.0,0.0,0.0,0.0,0.0,0.0,0.0,0.0,0.0,0.0,0.0,0.0,0.0,0.0,0.0,0.0,0.0,0.0,0.0,0.0,0.0,0.0,0.0,0.0,0.0,0.0,0.0,0.0,0.0,0.0,0.0,0.0,0.0,0.0,0.0,0.0,0.0,0.0,0.0,0.0,0.0,0.0,0.0,0.0,0.0,0.0,-1.9814,-2.0032,-2.0028,-1.9826,-1.9072,-1.7827,-1.7208,-1.6199,-1.4841,0.0,0.0,0.0,0.0,0.0,0.0,0.0,0.0,0.0,0.0,0.0,0.0,0.0,0.0,0.0,0.0,0.0,0.0,0.0,0.0,0.0,0.0,0.0,0.0,0.0,0.0,0.0,0.0,0.0,0.0,0.0,0.0,0.0,0.0,0.0,0.0,0.0,0.0,-1.0562,-1.2087,0.0,0.0,0.0,0.0,0.0,0.0,0.0,0.0,-1.3743,0.0,0.0,0.0,0.0,0.0,0.0,0.0,0.0,0.0,0.0,0.0,0.0,0.0,0.0,0.0,0.0,0.0,0.0,0.0,0.0,0.0,0.0,0.0,0.0,0.0,0.0,0.0,0.0,0.0,0.0,0.0,0.0,0.0,0.0,0.0,0.0,0.0,0.0,0.0,0.0,0.0,0.0,0.0,0.0,0.0,0.0,0.0,0.0,0.0,0.0,0.0,0.0,0.0,0.0,0.0,0.0,-1.9381,-1.9654,-1.9735,-1.9628,-1.9233,-1.8605,-1.763,-1.7019,-1.5965,-1.4248,0.0,0.0,0.0,0.0,0.0,0.0,0.0,0.0,0.0,0.0,0.0,0.0,0.0,0.0,0.0,0.0,0.0,0.0,0.0,0.0,0.0,0.0,0.0,0.0,0.0,0.0,0.0,0.0,0.0,0.0,0.0,0.0,0.0,0.0,0.0,0.0,0.0,0.0,0.0,-1.3184,-1.3834,0.0,0.0,0.0,0.0,0.0,0.0,0.0,0.0,-1.4362,0.0,0.0,0.0,0.0,0.0,0.0,0.0,0.0,0.0,0.0,0.0,0.0,0.0,0.0,0.0,0.0,0.0,0.0,0.0,0.0,0.0,0.0,0.0,0.0,0.0,0.0,0.0,0.0,0.0,0.0,0.0,0.0,0.0,0.0,0.0,0.0,0.0,0.0,0.0,0.0,0.0,0.0,0.0,0.0,0.0,0.0,0.0,0.0,0.0,0.0,0.0,0.0,0.0,0.0,0.0,-1.9265,-1.9019,-1.8867,-1.899,-1.858,-1.8124,-1.7426,-1.6744,-1.5649,0.0,0.0,0.0,0.0,0.0,0.0,0.0,0.0,0.0,0.0,0.0,0.0,0.0,0.0,0.0,0.0,0.0,0.0,0.0,0.0,0.0,0.0,0.0,0.0,0.0,0.0,0.0,0.0,0.0,0.0,0.0,0.0,0.0,0.0,0.0,0.0,0.0,0.0,0.0,0.0,-1.413,-1.4782,-1.5521,0.0,0.0,0.0,0.0,0.0,0.0,-1.59,-1.5362,0.0,0.0,0.0,0.0,0.0,0.0,0.0,0.0,0.0,0.0,0.0,0.0,0.0,0.0,0.0,0.0,0.0,0.0,0.0,0.0,0.0,0.0,0.0,0.0,0.0,0.0,0.0,0.0,0.0,0.0,0.0,0.0,0.0,0.0,0.0,0.0,0.0,0.0,0.0,0.0,0.0,0.0,0.0,0.0,0.0,0.0,0.0,0.0,0.0,0.0,0.0,0.0,0.0,0.0,0.0,-1.8865,-1.8371,-1.8036,-1.826,-1.7879,-1.754,-1.7152,-1.6491,-1.5502,0.0,0.0,0.0,0.0,0.0,0.0,0.0,0.0,0.0,0.0,0.0,0.0,0.0,0.0,0.0,0.0,0.0,0.0,0.0,0.0,0.0,0.0,0.0,0.0,0.0,0.0,0.0,0.0,0.0,0.0,0.0,0.0,0.0,0.0,0.0,0.0,0.0,0.0,0.0,0.0,0.0,-1.559,-1.666,-1.6687,0.0,0.0,0.0,0.0,-1.7021,-1.6874,0.0,0.0,0.0,0.0,0.0,0.0,0.0,0.0,0.0,0.0,0.0,0.0,0.0,0.0,0.0,0.0,0.0,0.0,0.0,0.0,0.0,0.0,0.0,0.0,0.0,0.0,0.0,0.0,0.0,0.0,0.0,0.0,0.0,0.0,0.0,0.0,0.0,0.0,0.0,0.0,0.0,0.0,0.0,0.0,0.0,0.0,0.0,0.0,0.0,0.0,0.0,0.0,0.0,0.0,0.0,0.0,-1.8313,-1.7952,-1.7792,-1.7469,-1.7485,-1.7317,-1.7275,-1.6718,-1.5836,0.0,0.0,0.0,0.0,0.0,0.0,0.0,0.0,0.0,0.0,0.0,0.0,0.0,0.0,0.0,0.0,0.0,0.0,0.0,0.0,0.0,0.0,0.0,0.0,0.0,0.0,0.0,0.0,0.0,0.0,0.0,0.0,0.0,0.0,0.0,0.0,0.0,0.0,0.0,0.0,0.0,-1.6103,-1.7338,-1.7635,-1.7796,0.0,0.0,-1.825,-1.8277,-1.825,0.0,0.0,0.0,0.0,0.0,0.0,0.0,0.0,0.0,0.0,0.0,0.0,0.0,0.0,0.0,0.0,0.0,0.0,0.0,0.0,0.0,0.0,0.0,0.0,0.0,0.0,0.0,0.0,0.0,0.0,0.0,0.0,0.0,0.0,0.0,0.0,0.0,0.0,0.0,0.0,0.0,0.0,0.0,0.0,0.0,0.0,0.0,0.0,0.0,0.0,0.0,0.0,0.0,0.0,0.0,-1.6901,-1.7892,-1.717,-1.6648,-1.6697,-1.7049,-1.705,-1.6854,-1.644,-1.5658,0.0,0.0,0.0,0.0,0.0,0.0,0.0,0.0,0.0,0.0,0.0,0.0,0.0,0.0,0.0,0.0,0.0,0.0,0.0,0.0,0.0,0.0,0.0,0.0,0.0,0.0,0.0,0.0,0.0,0.0,0.0,0.0,0.0,0.0,0.0,0.0,0.0,0.0,0.0,0.0,0.0,0.0,-1.7916,-1.8637,0.0,0.0,0.0,-1.9172,-1.9011,0.0,0.0,0.0,0.0,0.0,0.0,0.0,0.0,0.0,0.0,0.0,0.0,0.0,0.0,0.0,0.0,0.0,0.0,0.0,0.0,0.0,0.0,0.0,0.0,0.0,0.0,0.0,0.0,0.0,0.0,0.0,0.0,0.0,0.0,0.0,0.0,0.0,0.0,0.0,0.0,0.0,0.0,0.0,0.0,0.0,0.0,0.0,0.0,0.0,0.0,0.0,0.0,0.0,0.0,0.0,0.0,0.0,-1.7446,-1.6302,-1.5803,-1.6074,-1.651,-1.6743,-1.6734,-1.6203,0.0,0.0,0.0,0.0,0.0,0.0,0.0,0.0,0.0,0.0,0.0,0.0,0.0,0.0,0.0,0.0,0.0,0.0,0.0,0.0,0.0,0.0,0.0,0.0,0.0,0.0,0.0,-0.8616,0.0,0.0,0.0,0.0,0.0,0.0,0.0,0.0,0.0,0.0,0.0,0.0,0.0,0.0,-1.7328,-1.845,-1.9412,-2.0013,0.0,0.0,-1.9947,-1.9733,-1.9693,-1.9292,0.0,0.0,0.0,0.0,0.0,0.0,0.0,0.0,0.0,0.0,0.0,0.0,0.0,0.0,0.0,0.0,0.0,0.0,0.0,0.0,0.0,0.0,0.0,0.0,0.0,0.0,0.0,0.0,0.0,0.0,0.0,0.0,0.0,0.0,0.0,0.0,0.0,0.0,0.0,0.0,0.0,0.0,0.0,0.0,0.0,0.0,0.0,0.0,0.0,0.0,0.0,0.0,0.0,0.0,-1.6471,-1.7038,-1.5824,-1.5666,-1.6243,-1.5891,-1.6107,-1.7312,-1.6375,-1.5488,0.0,0.0,0.0,0.0,0.0,0.0,0.0,0.0,0.0,0.0,0.0,0.0,0.0,0.0,0.0,0.0,0.0,0.0,0.0,0.0,0.0,0.0,0.0,0.0,0.0,0.0,0.0,0.0,0.0,0.0,0.0,0.0,0.0,0.0,0.0,0.0,0.0,0.0,0.0,0.0,0.0,-1.7862,-1.8771,-1.988,-2.0628,0.0,-2.0615,-2.0615,-2.0588,-2.0588,-2.0187,-1.9025,0.0,0.0,0.0,0.0,0.0,0.0,0.0,0.0,0.0,0.0,0.0,0.0,0.0,0.0,0.0,0.0,0.0,0.0,0.0,0.0,0.0,0.0,0.0,0.0,0.0,0.0,0.0,0.0,0.0,0.0,0.0,0.0,0.0,0.0,0.0,0.0,0.0,0.0,0.0,0.0,0.0,0.0,0.0,0.0,0.0,0.0,0.0,0.0,0.0,0.0,0.0,0.0,0.0,-1.6374,-1.6739,-1.6016,-1.5716,-1.5652,-1.6243,-1.6386,-1.6278,-1.6301,-1.5897,0.0,0.0,0.0,0.0,0.0,0.0,0.0,0.0,0.0,0.0,0.0,0.0,0.0,0.0,0.0,0.0,0.0,0.0,0.0,0.0,0.0,0.0,0.0,0.0,0.0,0.0,0.0,0.0,-1.2966,-1.3142,-1.252,0.0,0.0,0.0,0.0,0.0,0.0,0.0,0.0,0.0,0.0,-1.8597,-1.9826,-2.0695,0.0,0.0,-2.1483,-2.1416,-2.1243,-2.1216,-2.0815,-1.9653,-1.8559,0.0,0.0,0.0,0.0,0.0,0.0,0.0,0.0,0.0,0.0,0.0,0.0,0.0,0.0,0.0,0.0,0.0,0.0,0.0,0.0,0.0,0.0,0.0,0.0,0.0,0.0,0.0,0.0,0.0,0.0,0.0,0.0,0.0,0.0,0.0,0.0,0.0,0.0,0.0,0.0,0.0,0.0,0.0,0.0,0.0,0.0,0.0,0.0,0.0,0.0,0.0,0.0,-1.6387,-1.6668,-1.6046,-1.5556,-1.5368,-1.6197,-1.6435,-1.5898,-1.6187,-1.6012,0.0,0.0,0.0,0.0,0.0,0.0,0.0,0.0,0.0,0.0,0.0,0.0,0.0,0.0,0.0,0.0,0.0,0.0,0.0,0.0,0.0,0.0,0.0,0.0,0.0,0.0,0.0,0.0,-1.3734,-1.3614,-1.2438,0.0,0.0,0.0,0.0,0.0,0.0,0.0,0.0,0.0,0.0,-1.9412,-2.0521,-2.1256,-2.175,-2.1951,-2.1991,-2.1911,-2.171,-2.1603,-2.1243,-2.0334,0.0,0.0,0.0,0.0,0.0,0.0,0.0,0.0,0.0,0.0,0.0,0.0,0.0,0.0,0.0,0.0,0.0,0.0,0.0,0.0,0.0,0.0,0.0,0.0,0.0,0.0,0.0,-1.0381,0.0,0.0,-1.057,0.0,0.0,0.0,0.0,0.0,0.0,0.0,0.0,0.0,0.0,0.0,0.0,0.0,0.0,0.0,0.0,0.0,0.0,0.0,0.0,0.0,0.0,-1.6591,-1.7029,-1.5742,-1.5368,-1.5751,-1.5556,-1.5853,-1.6988,-1.6081,-1.5622,-1.6249,0.0,0.0,0.0,0.0,0.0,0.0,0.0,0.0,0.0,0.0,0.0,0.0,0.0,0.0,0.0,0.0,0.0,0.0,0.0,0.0,0.0,0.0,0.0,0.0,0.0,0.0,-1.3227,-1.3734,-1.3614,0.0,0.0,0.0,0.0,0.0,0.0,0.0,0.0,0.0,-1.7021,-1.8905,-2.0307,-2.0655,-2.143,-2.2004,-2.2017,-2.2017,-2.2004,-2.2017,-2.1764,-2.1456,0.0,0.0,0.0,0.0,0.0,0.0,0.0,0.0,0.0,0.0,0.0,0.0,0.0,0.0,0.0,0.0,0.0,0.0,0.0,0.0,0.0,0.0,0.0,0.0,0.0,0.0,0.0,-1.1721,-1.2357,0.0,0.0,0.0,0.0,0.0,0.0,0.0,0.0,0.0,0.0,0.0,-1.7601,-1.7721,0.0,0.0,0.0,0.0,0.0,0.0,0.0,0.0,0.0,0.0,0.0,0.0,-1.65,-1.6751,-1.5801,-1.5181,-1.5368,-1.5556,-1.5723,-1.5853,-1.6073,-1.5948,-1.5821,0.0,0.0,0.0,0.0,0.0,0.0,0.0,0.0,0.0,0.0,0.0,0.0,0.0,0.0,0.0,0.0,0.0,0.0,0.0,0.0,0.0,0.0,0.0,0.0,0.0,-1.4549,0.0,0.0,0.0,0.0,0.0,0.0,0.0,0.0,0.0,0.0,-1.6139,-1.7635,-1.8504,-1.972,-2.0775,-2.1456,-2.2138,-2.2712,0.0,0.0,0.0,0.0,0.0,0.0,0.0,0.0,0.0,0.0,0.0,0.0,0.0,0.0,-1.6365,-1.5556,-1.5543,-1.5758,-1.6036,0.0,0.0,0.0,0.0,0.0,0.0,0.0,0.0,0.0,0.0,0.0,0.0,0.0,0.0,-1.3997,0.0,-1.4234,0.0,0.0,0.0,0.0,0.0,0.0,0.0,0.0,-1.8873,-1.9132,-1.9066,-1.9164,-1.9014,0.0,-1.8406,-1.789,0.0,0.0,0.0,0.0,0.0,0.0,0.0,0.0,-1.6569,-1.6709,-1.5701,-1.5181,-1.5181,-1.5563,-1.5563,-1.5368,-1.5917,-1.6129,-1.5778,-1.5019,-1.4383,0.0,0.0,0.0,0.0,0.0,0.0,0.0,0.0,0.0,0.0,0.0,0.0,0.0,0.0,0.0,0.0,0.0,0.0,0.0,0.0,0.0,0.0,0.0,-1.547,0.0,0.0,0.0,0.0,0.0,0.0,0.0,0.0,0.0,-1.6166,-1.7702,-1.9092,-1.9867,-2.0815,-2.1643,-2.2205,0.0,0.0,0.0,0.0,0.0,0.0,0.0,-2.3688,-2.3394,-2.334,-2.3014,-2.2308,-2.1437,-2.0641,-2.0159,0.0,0.0,-1.7747,-1.7546,-1.7815,-1.821,-1.8429,-1.8648,-1.8931,-1.9202,-1.9511,0.0,0.0,0.0,0.0,0.0,0.0,0.0,0.0,-1.6069,-1.6306,0.0,-1.623,0.0,0.0,0.0,0.0,-1.7258,-1.8363,0.0,0.0,-2.0482,-2.0577,-2.0178,-2.0178,-2.0196,-2.0274,-1.9707,-1.9494,-1.9601,-1.8007,0.0,0.0,0.0,0.0,0.0,0.0,-1.6638,-1.6771,-1.5825,-1.5181,-1.5181,-1.5181,-1.5368,-1.5931,-1.6008,-1.6189,-1.6144,-1.5447,-1.4846,-1.4469,-1.3456,0.0,0.0,0.0,0.0,0.0,0.0,0.0,0.0,0.0,0.0,0.0,0.0,0.0,0.0,0.0,0.0,0.0,0.0,0.0,0.0,-1.5425,0.0,0.0,0.0,0.0,0.0,0.0,0.0,0.0,0.0,-1.7659,-1.7782,-1.9199,-2.0494,-2.1069,0.0,0.0,0.0,0.0,-2.3915,-2.4235,-2.4275,-2.4382,-2.4676,-2.4703,-2.4783,-2.5064,0.0,0.0,-2.4356,-2.3781,-2.33,-2.3006,-2.314,-2.2536,-1.9717,-1.9511,-1.973,-2.0013,-2.0464,-2.0915,-2.1211,-2.1443,-2.1803,-1.7508,0.0,0.0,0.0,0.0,-1.5558,-1.6401,-1.8203,-1.7929,-1.8273,-1.8849,-1.8752,0.0,0.0,0.0,0.0,0.0,0.0,-2.0281,-2.0573,-2.0879,-2.1053,-2.1173,-2.1128,-2.1276,-2.1464,-2.1348,-2.1089,-2.0746,-2.0013,-1.8992,-1.79,0.0,0.0,0.0,0.0,-1.656,-1.6417,-1.5625,-1.5181,-1.5181,-1.5181,-1.5181,-1.5368,-1.5739,-1.5949,-1.6196,-1.5764,-1.5444,-1.5201,-1.4484,0.0,0.0,0.0,0.0,0.0,0.0,0.0,0.0,0.0,0.0,0.0,0.0,0.0,0.0,0.0,0.0,0.0,0.0,0.0,-1.5699,-1.6562,-1.6516,0.0,0.0,0.0,0.0,0.0,0.0,0.0,0.0,0.0,-2.0321,-2.0842,-2.139,0.0,0.0,-2.302,-2.3447,-2.4195,-2.489,-2.5384,-2.5625,0.0,-2.6146,-2.6026,-2.5919,-2.5999,-2.6012,-2.5892,-2.5518,-2.5317,-2.5104,-2.4796,-2.4823,-2.4636,-2.3891,-2.2968,-2.2625,-2.2862,-2.306,-2.3324,-2.3786,-2.3971,-2.4129,-2.0127,-1.9333,-1.7469,-1.7056,-1.7581,-1.7302,-1.806,-1.9535,-1.951,-1.978,-2.0223,-2.0346,-2.0136,-1.9757,-1.9671,0.0,0.0,0.0,-2.0982,-2.1286,-2.1354,-2.1597,-2.171,-2.1724,-2.1817,-2.1977,-2.1857,-2.1687,-2.1518,-2.0709,-1.9849,-1.8622,0.0,0.0,-1.7355,-1.6723,-1.6262,-1.6205,-1.554,-1.5181,-1.5181,-1.5181,-1.5375,-1.5368,-1.5466,-1.5746,-1.6022,-1.5869,-1.5786,-1.5563,-1.5049,-1.4303,0.0,0.0,0.0,0.0,0.0,0.0,0.0,0.0,0.0,0.0,0.0,-1.2103,-1.2618,0.0,0.0,0.0,-1.6011,-1.6698,-1.7469,-1.7628,0.0,0.0,0.0,0.0,0.0,0.0,0.0,-1.6648,-1.8835,-2.077,-2.1924,-2.2285,-2.2565,-2.2913,-2.33,-2.3741,-2.4222,0.0,-2.5638,-2.6213,-2.6453,-2.6667,-2.6947,-2.6947,-2.6947,-2.7068,-2.6987,-2.6867,-2.668,-2.656,-2.6413,-2.6253,-2.6213,-2.6213,-2.6213,-2.5625,-2.5064,-2.4943,-2.509,-2.5371,-2.5718,-2.5852,-2.5999,-2.1991,-2.1813,-1.8958,-1.8288,-1.9041,-1.881,-1.953,-2.0681,-2.0735,-2.0873,-2.1135,-2.1168,-2.1094,-2.1019,-2.1,0.0,-2.1011,-2.13,-2.1611,-2.2017,-2.2017,-2.2031,-2.2058,-2.2084,-2.2111,-2.2124,-2.1857,-2.1765,-2.1748,-2.0781,-1.9785,-1.8878,-1.8361,-1.7691,-1.6894,-1.6364,-1.6077,-1.6044,-1.5603,-1.5181,-1.5181,-1.5181,-1.5368,-1.5751,-1.5368,-1.5368,-1.5931,-1.5796,-1.5718,-1.5696,-1.5381,-1.4998,-1.4448,0.0,0.0,0.0,0.0,0.0,0.0,0.0,0.0,0.0,0.0,0.0,0.0,0.0,0.0,-1.7055,-1.8592,0.0,-1.9676,-1.8567,0.0,0.0,0.0,-1.3039,-1.2383,-1.437,-1.621,-1.7404,0.0,0.0,-2.2859,-2.35,-2.3888,-2.3901,-2.4356,-2.4796,-2.5144,-2.5665,-2.6239,-2.68,-2.6907,-2.7028,-2.7321,-2.7549,-2.7749,-2.7976,-2.7909,-2.7696,-2.7669,-2.7495,-2.7335,-2.7308,-2.7321,-2.7321,-2.7335,-2.7241,-2.7081,-2.6279,-2.648,-2.6827,-2.6854,-2.7028,-2.7201,-2.2281,-2.2635,-2.1407,-2.0902,-2.0943,-2.059,-2.0615,-2.1015,-2.1243,-2.1464,-2.1491,-2.1643,-2.1787,-2.1727,-2.2005,-2.2024,-2.2028,-2.2109,-2.2243,-2.2311,-2.2311,-2.2445,-2.2659,-2.2899,-2.3126,-2.3327,-2.3273,-2.3156,-2.2898,-2.1719,-2.0608,-1.9435,-1.847,-1.7555,-1.6593,-1.6666,-1.6423,-1.6004,-1.5709,-1.5563,-1.5181,-1.5181,-1.5181,-1.5375,-1.5181,-1.5368,-1.5938,-1.5521,-1.5507,-1.5874,-1.5334,-1.4986,-1.4799,-1.404,0.0,0.0,0.0,0.0,0.0,0.0,0.0,0.0,0.0,-1.4524,-1.5282,0.0,-1.8477,0.0,-2.0305,-2.0597,-1.9494,-1.8309,0.0,0.0,-1.3985,-1.2764,-1.2792,-1.3913,-1.5672,-1.805,-1.9795,-2.1525,-2.3678,-2.4409,-2.485,-2.5064,-2.5024,-2.5237,-2.5959,-2.6373,-2.6827,-2.7375,-2.7655,-2.7856,-2.7896,-2.7989,-2.8056,-2.8123,-2.8083,-2.8043,-2.803,-2.7976,-2.7936,-2.7936,-2.7936,-2.7936,-2.7923,-2.7936,-2.7869,-2.7642,-2.7388,-2.7228,-2.7442,-2.7549,-2.7669,-2.2942,-2.3229,-2.2781,-2.2485,-2.2311,-2.1884,-2.1697,-2.171,-2.1871,-2.1937,-2.1951,-2.2245,-2.2378,-2.2392,-2.2539,-2.2539,-2.2432,-2.2552,-2.2619,-2.2632,-2.2752,-2.2979,-2.3273,-2.3447,-2.3674,-2.3955,-2.3968,-2.3825,-2.3479,-2.2318,-2.0986,-1.9382,-1.8182,-1.7127,-1.6263,-1.6476,-1.6398,-1.6204,-1.5903,-1.5751,-1.5181,-1.5181,-1.5368,-1.5556,-1.5494,-1.5645,-1.6018,-1.576,-1.5725,-1.6095,-1.5725,-1.5568,-1.5391,-1.4821,-1.435,0.0,0.0,0.0,0.0,0.0,0.0,0.0,0.0,0.0,0.0,0.0,-1.964,-2.0585,-2.1567,-2.1464,-1.9517,-1.841,-1.7005,-1.5147,-1.3663,-1.2663,-1.2436,-1.3776,-1.5726,-1.8338,-2.0129,-2.2042,-2.4446,-2.5184,-2.5571,-2.5865,-2.5879,-2.6026,-2.6507,-2.6934,-2.7375,-2.7829,-2.803,-2.815,-2.815,-2.815,-2.815,-2.815,-2.815,-2.815,-2.815,-2.815,-2.815,-2.815,-2.815,-2.815,-2.815,-2.815,-2.815,-2.8096,-2.7883,-2.7736,-2.7869,-2.7896,-2.7963,-2.3781,-2.3754,-2.3487,-2.3407,-2.3407,-2.2873,-2.2579,-2.2472,-2.2472,-2.2472,-2.2485,-2.2752,-2.2859,-2.2859,-2.2899,-2.2779,-2.2565,-2.2886,-2.3033,-2.3046,-2.3354,-2.3647,-2.3928,-2.3941,-2.4088,-2.4369,-2.4369,-2.4193,-2.382,-2.2635,-2.109,-1.9201,-1.8075,-1.6907,-1.604,-1.6317,-1.645,-1.6472,-1.6054,-1.5556,-1.5181,-1.5181,-1.5368,-1.5931,-1.5782,-1.5881,-1.6435,-1.6278,-1.6189,-1.6189,-1.6007,-1.6022,-1.6015,-1.5519,-1.4967,0.0,-1.4019,0.0,0.0,0.0,0.0,0.0,0.0,0.0,0.0,-1.8451,-1.9887,-2.1301,-2.1952,-2.142,-1.9307,-1.8346,-1.6813,-1.4264,-1.3275,-1.2655,-1.21,-1.3664,-1.5859,-1.8471,-2.0386,-2.2484,-2.5198,-2.5825,-2.6119,-2.6386,-2.664,-2.6854,-2.7028,-2.7388,-2.7762,-2.8096,-2.8177,-2.8257,-2.8297,-2.8297,-2.8297,-2.8283,-2.831,-2.8257,-2.8283,-2.8243,-2.8217,-2.8203,-2.8177,-2.815,-2.815,-2.815,-2.815,-2.8136,-2.811,-2.8096,-2.8123,-2.811,-2.815,-2.3924,-2.3924,-2.3856,-2.3821,-2.4022,-2.3915,-2.3447,-2.2779,-2.2779,-2.2779,-2.2779,-2.2832,-2.2859,-2.2886,-2.3126,-2.3207,-2.318,-2.3714,-2.3955,-2.3968,-2.4249,-2.4556,-2.4823,-2.4836,-2.4983,-2.5251,-2.5264,-2.498,-2.4545,-2.3164,-2.1573,-1.9923,-1.9106,-1.7821,-1.6286,0.0,0.0,0.0,-1.573,-1.5368,-1.5181,-1.5181,-1.5368,-1.5931,-1.5782,0.0,-1.6435,-1.6278,-1.6189,-1.6007,-1.5651,0.0,0.0,0.0,0.0,0.0,0.0,0.0,0.0,0.0,0.0,0.0,-1.3262,-1.3789,-1.4885,-1.6382,-1.7449,-1.8096,-1.8492,-1.8507,-1.8073,-1.6627,-1.5406,-1.4819,-1.3483,-1.2574,-1.2542,-1.2922,-1.4711,-1.8621,-1.9782,-2.1671,-2.5231,-2.6132,-2.6413,-2.672,-2.7001,-2.7362,-2.7829,-2.7789,-2.7829,-2.8096,-2.8377,-2.8604,-2.8845,-2.8845,-2.8818,-2.8871,-2.8871,-2.8858,-2.8818,-2.8657,-2.8524,-2.8511,-2.831,-2.8163,-2.8163,-2.815,-2.8177,-2.815,-2.815,-2.815,-2.815,-2.815,-2.815,-2.4797,-2.4797,-2.4636,-2.4716,0.0,-2.485,-2.4583,-2.4142,-2.3714,-2.3447,-2.3313,-2.3313,-2.3313,-2.3313,-2.3474,-2.3554,-2.3581,-2.4155,-2.4409,-2.4436,-2.4863,-2.5144,-2.5291,-2.5291,-2.5451,-2.5732,-2.5732,-2.5413,-2.4926,-2.3829,-2.2277,-2.0265,-1.9142,-1.7862,-1.6682,-1.6657,-1.6368,-1.619,-1.5709,-1.5368,-1.5181,-1.5181,-1.5368,-1.5931,-1.5782,0.0,0.0,0.0,0.0,0.0,0.0,0.0,0.0,-1.5643,0.0,-1.5053,-1.4959,-1.4807,-1.4381,-1.3685,-1.3364,-1.3506,-1.3133,-1.3929,-1.6558,-1.726,-1.8127,-1.9424,-1.8891,-1.7996,-1.7042,-1.6224,-1.5195,-1.4274,-1.3411,-1.284,-1.2847,-1.2908,-1.4715,-1.8601,-1.9593,-2.1337,-2.5688,-2.6279,-2.664,-2.7161,-2.7375,-2.7749,-2.839,-2.8337,-2.8257,-2.8537,-2.8698,-2.8871,-2.9005,-2.9045,-2.9045,-2.9045,-2.9045,-2.9045,-2.9045,-2.8925,-2.8818,-2.8818,-2.8684,-2.8591,-2.8591,-2.8591,-2.8577,-2.8577,-2.8577,-2.8591,-2.8564,-2.835,-2.815,-2.5518,-2.5698,-2.5518,-2.5518,-2.5518,-2.5518,-2.5518,-2.5464,0.0,0.0,0.0,-2.4075,-2.4075,-2.4075,-2.4075,-2.4075,-2.4115,-2.4623,-2.4877,-2.489,-2.5371,-2.5611,-2.5665,-2.5611,-2.5745,-2.6026,-2.6026,-2.5688,-2.5142,-2.4196,-2.2732,-2.0808,-1.9133,-1.7919,-1.7026,-1.6241,-1.5687,-1.5568,-1.568,-1.5563,-1.5181,-1.5181,-1.5368,-1.5938,-1.5782,-1.5888,-1.6442,-1.6278,-1.6189,-1.6189,-1.6007,-1.6022,-1.6044,-1.5933,-1.5636,-1.5512,-1.5263,-1.4998,-1.4961,-1.4066,-1.3582,-1.3465,-1.3034,-1.433,-1.7892,-1.7737,-1.8172,-2.0088,-1.8866,-1.7322,-1.5926,-1.565,-1.5023,-1.3411,-1.3275,-1.3234,-1.3112,-1.369,-1.5544,-1.9033,-2.031,-2.205,-2.574,-2.6493,-2.6814,-2.7509,-2.7789,-2.815,-2.8858,-2.8845,-2.8751,-2.9032,-2.9112,-2.9138,-2.9192,-2.9232,-2.9192,-2.9245,-2.9232,-2.9192,-2.9192,-2.9152,-2.9125,-2.9125,-2.9085,-2.9018,-2.9032,-2.8991,-2.9045,-2.9045,-2.9045,-2.9045,-2.9005,-2.8657,-2.835,-2.5518,-2.5518,-2.5518,-2.5518,-2.5518,-2.5518,-2.5518,-2.5504,-2.5384,-2.5304,-2.5264,-2.5264,-2.5264,-2.5264,-2.5264,-2.5264,-2.5291,-2.5611,-2.5772,-2.5772,-2.5852,-2.6026,-2.6253,-2.6012,-2.6052,-2.6306,-2.6333,-2.5872,-2.5021,-2.4196,-2.2732,-2.0818,-1.985,-1.8524,-1.6808,-1.573,-1.5362,-1.5341,-1.5362,-1.5181,-1.5181,-1.5181,-1.5368,-1.5931,-1.5782,-1.5888,-1.6442,-1.6286,-1.6189,-1.6189,-1.5651,-1.5533,-1.5654,-1.5285,-1.5135,-1.5217,-1.5308,-1.5248,-1.5106,-1.4643,-1.4034,-1.3343,-1.3119,-1.3346,-1.3793,-1.3814,-1.3902,-1.437,-1.4422,-1.4009,-1.3837,-1.3985,-1.3895,-1.3573,-1.3668,-1.3688,-1.3539,-1.5295,-1.7276,-1.9602,-2.1849,-2.371,-2.5896,-2.6841,-2.7268,-2.7682,-2.823,-2.8724,-2.9192,-2.9165,-2.9125,-2.9339,-2.9419,-2.9526,-2.9673,-2.978,-2.974,-2.9793,-2.9753,-2.9726,-2.9713,-2.9553,-2.9432,-2.9419,-2.9259,-2.9098,-2.9085,-2.9045,-2.9098,-2.9112,-2.9112,-2.9098,-2.9112,-2.8991,-2.8911,-2.5985,-2.5985,-2.5985,-2.5985,-2.583,-2.471,-2.4227,-2.4227,-2.4227,-2.4687,-2.5518,-2.5518,-2.5518,-2.5518,-2.5518,-2.5518,-2.5531,-2.5825,-2.5959,-2.5972,-2.6119,-2.6266,-2.6373,-2.6253,-2.6266,-2.6386,-2.64,-2.5911,-2.5181,-2.4698,-2.3677,-2.1832,-2.0324,-1.8672,-1.7088,-1.6636,-1.6126,-1.5556,-1.5375,-1.5181,-1.5181,-1.5181,-1.5375,-1.5563,-1.5487,-1.5452,-1.5825,-1.5575,-1.5533,-1.5533,-1.5348,-1.5382,-1.5445,-1.5272,-1.5113,-1.5167,-1.5169,-1.5167,-1.5007,-1.4569,-1.4187,-1.3559,-1.3539,-1.3512,-1.3444,-1.337,-1.3873,-1.5006,-1.4194,-1.36,-1.3749,-1.3831,-1.3871,-1.3865,-1.3933,-1.3905,-1.3783,-1.4635,-1.6631,-1.9639,-2.1168,-2.3234,-2.6756,-2.7335,-2.7762,-2.8323,-2.8938,-2.9419,-2.9673,-2.9606,-2.9553,-2.9686,-2.9726,-2.9766,-2.9887,-2.9913,-2.9913,-2.9913,-2.9913,-2.9913,-2.9913,-2.978,-2.9726,-2.9713,-2.9593,-2.9526,-2.9499,-2.9513,-2.9513,-2.9513,-2.9513,-2.9513,-2.9513,-2.9513,-2.9459,-2.6056,-2.574,-2.6228,-2.607,-2.5409,-2.33,-2.2338,-2.2338,-2.2327,-2.3076,-2.4313,-2.5229,-2.5705,-2.5705,-2.5705,-2.5718,-2.5745,-2.5945,-2.6052,-2.6079,-2.6279,-2.64,-2.64,-2.64,-2.64,-2.64,-2.64,-2.6083,-2.5353,-2.5188,-2.4223,-2.2425,-2.0529,-1.882,-1.7356,-1.7157,-1.6876,-1.5938,-1.5563,-1.5375,-1.5181,-1.5181,-1.5181,-1.5181,-1.5181,-1.5181,-1.5181,-1.5181,-1.5181,-1.5181,-1.5181,-1.5181,-1.5181,-1.5181,-1.5181,-1.5167,-1.5052,-1.4889,-1.4685,-1.4306,-1.4021,-1.3905,-1.3892,-1.3892,-1.3885,-1.3831,-1.4479,-1.5918,-1.4729,-1.3946,-1.4075,-1.4116,-1.4122,-1.4122,-1.4122,-1.4423,-1.465,-1.516,-1.7007,-2.0665,-2.2019,-2.3972,-2.6646,-2.7829,-2.827,-2.9085,-2.9646,-2.9887,-2.9913,-2.9913,-2.9913,-2.9913,-2.9913,-2.99,-2.9913,-2.9913,-2.9913,-2.9913,-2.9913,-2.9953,-2.998,-2.998,-2.9967,-2.9967,-2.994,-2.9873,-2.99,-2.9887,-2.9873,-2.9847,-2.9847,-2.9873,-2.986,-2.994,-2.99,-2.5251,-2.3792,-2.5568,-2.5251,-2.314,-2.1039,-2.0231,-2.0231,-2.0231,-2.021,-2.0954,-2.4527,-2.6122,-2.6306,-2.6122,-2.6122,-2.6122,-2.6333,-2.6346,-2.6333,-2.6373,-2.64,-2.64,-2.64,-2.64,-2.64,-2.6413,-2.6281,-2.5672,-2.5376,-2.3967,-2.1659,-1.9857,-1.8638,-1.7908,-1.7157,-1.6494,-1.5938,-1.5938,-1.5563,-1.5181,-1.5181,-1.5181,-1.5181,-1.5181,-1.5181,-1.5181,-1.5181,-1.5181,-1.5181,-1.5181,-1.5181,-1.5181,-1.5181,-1.5181,-1.5174,-1.5052,-1.4848,-1.4557,-1.4245,-1.4075,-1.4055,-1.4055,-1.4061,-1.4068,-1.417,-1.4177,-1.4444,-1.4235,-1.4129,-1.4258,-1.4285,-1.4469,-1.4646,-1.4462,-1.5139,-1.7397,-1.9609,-2.1832,-2.3787,-2.5493,-2.764,-2.7742,-2.8257,-2.8871,-2.9619,-2.986,-2.9967,-2.9967,-3.0007,-2.998,-2.9953,-2.9927,-2.994,-2.9953,-2.9913,-2.9967,-2.9953,-2.9927,-3.0034,-3.0181,-3.0167,-2.9993,-3.0274,-3.0127,-3.002,-2.998,-2.9913,-2.9953,-3.0034,-3.002,-2.9953,-2.9953,-3.0114,-3.0154,-2.5898,-2.4933,-2.4602,-2.2487,-1.94,-1.8272,-1.7946,-1.7955,-1.7955,-1.8607,-2.0069,-2.1856,-2.2499,-2.2659,-2.3792,-2.443,-2.4589,-2.574,-2.64,-2.64,-2.64,-2.64,-2.64,-2.6573,-2.664,-2.6667,-2.6814,-2.6733,-2.6151,-2.5169,-2.3925,-2.2294,-2.0702,-1.9491,-1.8499,-1.7667,-1.6868,-1.6306,-1.6126,-1.5751,-1.5181,-1.5181,-1.5181,-1.5181,-1.5181,-1.5181,-1.5181,-1.5181,-1.5181,-1.5181,-1.5181,-1.5181,-1.5181,-1.5181,-1.5181,-1.5174,-1.5052,-1.4875,-1.4665,-1.4448,-1.4333,-1.4333,-1.4333,-1.4367,-1.4455,-1.4529,-1.4529,-1.4468,-1.4387,-1.4394,-1.4529,-1.4557,-1.509,-1.6331,-1.6681,-1.7737,-2.0214,-2.1333,-2.2722,-2.4823,-2.5811,-2.7114,-2.8393,-2.9125,-2.9513,-2.99,-3.0047,-3.0181,-3.0181,-3.0327,-3.0354,-3.0247,-3.0314,-3.0341,-3.0234,-3.0181,-3.0247,-3.0327,-3.0348,-3.0474,-3.0501,-3.0478,-3.0505,-3.0675,-3.0488,-3.0408,-3.0461,-3.0434,-3.0434,-3.0408,-3.0408,-3.0394,-3.0221,-3.0274,-3.0287,-2.5568,-2.4283,-2.1673,-1.8923,-1.6647,-1.5999,-1.5679,-1.5671,-1.5671,-1.6656,-1.7955,-1.8128,-1.8118,-1.8444,-2.1039,-2.2487,-2.33,-2.4761,-2.5937,-2.6493,-2.6507,-2.6547,-2.664,-2.6841,-2.6947,-2.6974,-2.7148,-2.6967,-2.6401,-2.5237,-2.3824,-2.2794,-2.1225,-2.0005,-1.9018,-1.803,-1.7242,-1.6681,-1.6126,-1.5751,-1.5181,-1.5181,-1.5181,-1.5181,-1.5181,-1.5181,-1.5181,-1.5181,-1.5181,-1.5181,-1.5181,-1.5181,-1.5181,-1.5181,-1.5181,-1.5167,-1.5052,-1.4923,-1.4808,-1.4658,-1.4577,-1.4577,-1.4577,-1.4618,-1.4713,-1.474,-1.476,-1.4787,-1.4699,-1.4679,-1.4713,-1.474,-1.5454,-1.7246,-1.796,-1.9401,-2.177,-2.2694,-2.4119,-2.6266,-2.6822,-2.7047,-2.9132,-2.9753,-2.994,-3.0167,-3.0354,-3.0488,-3.0501,-3.0635,-3.0702,-3.0515,-3.0662,-3.0675,-3.0515,-3.0474,-3.0595,-3.0648,-3.0839,-3.0684,-3.0822,-3.0861,-3.0844,-3.0902,-3.0862,-3.0782,-3.0675,-3.0728,-3.0795,-3.0808,-3.0822,-3.0782,-3.0528,-3.0555,-3.0555,-2.3952,-1.9907,-1.5687,-1.5193,-1.6483,-1.4541,-1.3562,-1.3728,-1.3569,-1.3735,-1.4066,-1.3908,-1.3735,-1.4239,-1.8164,-2.105,-2.282,-2.3175,-2.4443,-2.6452,-2.664,-2.6947,-2.7215,-2.7241,-2.7241,-2.7255,-2.7321,-2.7126,-2.6351,-2.5359,-2.4256,-2.2988,-2.1294,-2.0078,-1.9358,-1.8087,-1.725,-1.6681,-1.6119,-1.5744,-1.5181,-1.5181,-1.5181,-1.5181,-1.5181,-1.5181,-1.5181,-1.5181,-1.5181,-1.5181,-1.5181,-1.5181,-1.5181,-1.5181,-1.5181,-1.5167,-1.5052,-1.497,-1.4936,-1.4814,-1.4733,-1.4733,-1.4726,-1.474,-1.478,-1.478,-1.4835,-1.495,-1.4957,-1.4909,-1.4808,-1.5167,-1.5322,-1.5855,-1.7451,-1.9861,-2.2372,-2.4756,-2.6734,-2.8574,-2.8902,-2.9158,-2.9833,-2.99,-3.0194,-3.0541,-3.0742,-3.0768,-3.0782,-3.0808,-3.0822,-3.0808,-3.0808,-3.0808,-3.0782,-3.0768,-3.0782,-3.0889,-3.1009,-3.1009,-3.0889,-3.0969,-3.0982,-3.0956,-3.1036,-3.0942,-3.0835,-3.0808,-3.0849,-3.0929,-3.1102,-3.1049,-3.0835,-3.1022,-3.1009,-2.1978,-1.7792,-1.6164,-1.5193,-1.4541,-1.3728,-1.3397,-1.341,-1.3505,-1.3546,-1.3566,-1.3641,-1.3682,-1.3682,-1.5348,-1.711,-1.9154,-2.058,-2.252,-2.4772,-2.4936,-2.5665,-2.7268,-2.7455,-2.7535,-2.7562,-2.7736,-2.7381,-2.6618,-2.5785,-2.4418,-2.2998,-2.167,-2.0458,-1.9384,-1.8095,-1.7242,-1.6681,-1.5931,-1.5368,-1.5181,-1.5181,-1.5181,-1.5181,-1.5181,-1.5181,-1.5181,-1.5181,-1.5181,-1.5181,-1.5181,-1.5181,-1.5181,-1.5181,-1.5181,-1.5174,-1.5133,-1.5065,-1.4977,-1.4923,-1.4889,-1.4889,-1.4889,-1.493,-1.4997,-1.5025,-1.5045,-1.5106,-1.5201,-1.5215,-1.5542,-1.6368,-1.794,-1.9768,-2.1959,-2.4223,-2.6773,-2.8038,-2.8898,-2.9774,-2.99,-2.9806,-2.994,-3.0074,-3.0354,-3.0715,-3.0942,-3.1049,-3.1102,-3.1223,-3.1276,-3.1156,-3.1223,-3.1356,-3.1356,-3.1169,-3.1116,-3.1303,-3.141,-3.1423,-3.1463,-3.145,-3.1463,-3.1436,-3.1303,-3.1276,-3.1236,-3.1236,-3.1223,-3.1129,-3.1303,-3.1303,-3.1129,-3.1236,-3.1209,-2.0477,-1.6999,-1.5948,-1.475,-1.341,-1.3451,-1.3471,-1.3492,-1.3634,-1.3695,-1.3715,-1.3804,-1.3838,-1.3851,-1.3892,-1.4543,-1.6124,-1.8361,-2.094,-2.37,-2.3878,-2.5268,-2.7231,-2.7749,-2.7843,-2.7896,-2.815,-2.7814,-2.705,-2.6192,-2.4766,-2.3257,-2.2,-2.0743,-1.9472,-1.8313,-1.7429,-1.6681,-1.5931,-1.5368,-1.5181,-1.5181,-1.5181,-1.5187,-1.5228,-1.5228,-1.5187,-1.5181,-1.5181,-1.5181,-1.5181,-1.5181,-1.5181,-1.5181,-1.5181,-1.5181,-1.5181,-1.514,-1.5059,-1.5038,-1.5038,-1.5038,-1.5038,-1.5086,-1.5174,-1.5228,-1.5255,-1.5289,-1.5391,-1.5486,-1.6025,-1.8379,-2.0536,-2.184,-2.4443,-2.7097,-2.9141,-2.9755,-3.0119,-3.0394,-3.0234,-3.0127,-3.0207,-3.0381,-3.0621,-3.0902,-3.1183,-3.1356,-3.141,-3.1517,-3.1623,-3.1423,-3.1517,-3.1597,-3.1583,-3.1436,-3.1356,-3.1517,-3.157,-3.1637,-3.1677,-3.1677,-3.1677,-3.1677,-3.1677,-3.1677,-3.1677,-3.1677,-3.157,-3.141,-3.145,-3.1503,-3.1423,-3.1383,-3.1356,-1.9392,-1.6842,-1.4527,-1.372,-1.3471,-1.3573,-1.3627,-1.3654,-1.3783,-1.3844,-1.3851,-1.3865,-1.3892,-1.3892,-1.4021,-1.4242,-1.4721,-1.6323,-1.9382,-2.327,-2.3787,-2.5276,-2.772,-2.8123,-2.8177,-2.8203,-2.847,-2.822,-2.7533,-2.6484,-2.5218,-2.3666,-2.2242,-2.0904,-1.9657,-1.8727,-1.7616,-1.686,-1.6119,-1.5556,-1.5181,-1.5181,-1.5187,-1.5215,-1.5323,-1.5337,-1.5215,-1.5208,-1.5221,-1.5215,-1.5215,-1.5194,-1.5201,-1.5187,-1.5187,-1.5201,-1.5187,-1.5181,-1.5187,-1.5174,-1.516,-1.516,-1.5181,-1.5194,-1.5228,-1.5337,-1.5411,-1.5432,-1.554,-1.5635,-1.6587,-2.0002,-2.2048,-2.0547,-2.4448,-2.7493,-2.7925,-2.9461,-3.0782,-3.0755,-3.0541,-3.0501,-3.0702,-3.0742,-3.0862,-3.1183,-3.141,-3.157,-3.1583,-3.1637,-3.165,-3.165,-3.165,-3.1664,-3.1677,-3.1664,-3.165,-3.1664,-3.165,-3.1677,-3.1677,-3.1677,-3.1677,-3.1677,-3.1677,-3.1677,-3.1677,-3.1677,-3.1677,-3.1583,-3.1664,-3.1664,-3.1597,-3.1543,-3.1583,-1.856,-1.4856,-1.4131,-1.3749,-1.3709,-1.3756,-1.3777,-1.379,-1.3933,-1.4,-1.4021,-1.4116,-1.4156,-1.4163,-1.4211,-1.4231,-1.4224,-1.5046,-1.6942,-1.9741,-2.1464,-2.3573,-2.575,-2.7669,-2.8564,-2.8751,-2.8858,-2.8417,-2.761,-2.6758,-2.5287,-2.3698,-2.2666,-2.1317,-1.9843,-1.8913,-1.7981,-1.6868,-1.6126,-1.5751,-1.5181,-1.5181,-1.5228,-1.533,-1.5391,-1.5425,-1.5493,-1.5499,-1.5499,-1.5486,-1.5499,-1.5452,-1.535,-1.5242,-1.5235,-1.5309,-1.5235,-1.5242,-1.5309,-1.5242,-1.5194,-1.5208,-1.5276,-1.533,-1.5357,-1.5479,-1.556,-1.5581,-1.5696,-1.6363,-1.8689,-2.1477,-2.3143,-2.2096,-2.6619,-2.9576,-2.9717,-3.0516,-3.0903,-3.1062,-3.0835,-3.0889,-3.1156,-3.1116,-3.1009,-3.137,-3.145,-3.1436,-3.1623,-3.1677,-3.1677,-3.1677,-3.1677,-3.1677,-3.1677,-3.1677,-3.1677,-3.1677,-3.1677,-3.1677,-3.1677,-3.1677,-3.1677,-3.1677,-3.1677,-3.1677,-3.1677,-3.1677,-3.1677,-3.1677,-3.1664,-3.1664,-3.1677,-3.1677,-3.1677,-1.7577,-1.4007,-1.3953,-1.3892,-1.3851,-1.3899,-1.3926,-1.3946,-1.4089,-1.4156,-1.4177,-1.4258,-1.4299,-1.4299,-1.4299,-1.4333,-1.4373,-1.438,-1.5106,-1.7065,-2.0143,-2.2567,-2.5039,-2.756,-2.8925,-2.9165,-2.9205,-2.8732,-2.7928,-2.6876,-2.5519,-2.403,-2.2779,-2.1375,-1.9851,-1.9108,-1.8176,-1.6868,-1.6306,-1.5931,-1.5382,-1.5235,-1.5309,-1.5411,-1.5513,-1.5622,-1.5716,-1.5771,-1.575,-1.5662,-1.5635,-1.5588,-1.5493,-1.5411,-1.5398,-1.5452,-1.5418,-1.5398,-1.5472,-1.5418,-1.535,-1.5371,-1.5445,-1.5493,-1.552,-1.5635,-1.571,-1.5737,-1.681,-1.8066,-2.0021,-2.3391,-2.4896,-2.5033,-2.8454,-3.1009,-3.137,-3.1396,-3.1396,-3.1356,-3.1236,-3.1289,-3.1316,-3.1276,-3.1089,-3.1396,-3.1356,-3.133,-3.157,-3.1677,-3.1677,-3.1677,-3.1677,-3.1677,-3.1677,-3.1677,-3.1677,-3.1677,-3.1677,-3.1677,-3.1677,-3.1677,-3.1677,-3.1677,-3.1677,-3.1677,-3.1677,-3.1677,-3.1677,-3.1677,-3.1677,-3.1677,-3.1677,-3.1677,-3.169,-1.6888,-1.4462,-1.4143,-1.4007,-1.3912,-1.4027,-1.4089,-1.4102,-1.4231,-1.4285,-1.4292,-1.4292,-1.4312,-1.4312,-1.4333,-1.4401,-1.4502,-1.4529,-1.4584,-1.607,-1.9222,-2.2505,-2.5196,-2.7882,-2.9219,-2.9472,-2.9513,-2.9099,-2.836,-2.7279,-2.5901,-2.4054,-2.2586,-2.114,-1.9851,-1.9116,-1.8184,-1.6868,-1.6681,-1.6119,-1.5215,-1.533,-1.5432,-1.5466,-1.5689,-1.5832,-1.5879,-1.5974,-1.5927,-1.571,-1.5683,-1.5662,-1.5649,-1.5642,-1.5615,-1.5635,-1.5642,-1.5628,-1.5642,-1.5608,-1.5594,-1.5588,-1.5622,-1.5649,-1.5669,-1.5778,-1.5866,-1.6062,-1.812,-1.9961,-2.1129,-2.4646,-2.7168,-2.8152,-3.0203,-3.1597,-3.165,-3.165,-3.1623,-3.1637,-3.165,-3.1583,-3.1356,-3.1263,-3.1236,-3.1289,-3.1289,-3.1383,-3.157,-3.1677,-3.1677,-3.1677,-3.1677,-3.1677,-3.1677,-3.1677,-3.1677,-3.1677,-3.1677,-3.1677,-3.1677,-3.1677,-3.1677,-3.1677,-3.1677,-3.1677,-3.1677,-3.1677,-3.1677,-3.1677,-3.1677,-3.1677,-3.1717,-3.177,-3.181,-1.8414,-1.4476,-1.4258,-1.4217,-1.4183,-1.4224,-1.4238,-1.4245,-1.4285,-1.4312,-1.4306,-1.4299,-1.4373,-1.4448,-1.4455,-1.4536,-1.4652,-1.4679,-1.4692,-1.5104,-1.7887,-2.1861,-2.5465,-2.8053,-2.9513,-2.9575,-2.9601,-2.9309,-2.8474,-2.7184,-2.5719,-2.4086,-2.2248,-2.0779,-1.986,-1.9116,-1.8176,-1.686,-1.6681,-1.6184,-1.5533,-1.5391,-1.5527,-1.573,-1.5818,-1.5913,-1.6001,-1.6056,-1.6056,-1.5974,-1.5852,-1.5798,-1.5791,-1.571,-1.5703,-1.5771,-1.571,-1.5696,-1.5757,-1.571,-1.5649,-1.5649,-1.575,-1.5798,-1.5805,-1.5934,-1.6008,-1.6418,-1.841,-2.0951,-2.2897,-2.5819,-2.8344,-3.0306,-3.127,-3.1677,-3.1677,-3.1677,-3.1677,-3.1677,-3.1677,-3.161,-3.153,-3.1356,-3.1316,-3.1436,-3.1383,-3.133,-3.157,-3.1677,-3.1677,-3.1677,-3.1677,-3.1677,-3.1677,-3.1677,-3.1677,-3.1677,-3.1677,-3.1677,-3.1677,-3.1677,-3.1677,-3.1677,-3.1677,-3.1677,-3.1677,-3.1677,-3.1677,-3.1677,-3.1677,-3.169,-3.1904,-3.2011,-3.2011,-1.7089,-1.4299,-1.4299,-1.4299,-1.4299,-1.4299,-1.4333,-1.438,-1.4394,-1.4434,-1.4475,-1.4489,-1.4529,-1.4604,-1.4611,-1.4692,-1.4821,-1.4835,-1.4875,-1.5299,-1.7572,-2.0894,-2.4179,-2.6929,-2.8104,-2.8424,-2.9362,-2.9002,-2.792,-2.6628,-2.499,-2.3168,-2.151,-2.0037,-1.9108,-1.8549,-1.7616,-1.6696,-1.6365,-1.6081,-1.5404,-1.554,-1.5716,-1.5906,-1.5947,-1.6001,-1.6076,-1.6083,-1.6083,-1.6062,-1.5995,-1.5947,-1.594,-1.5872,-1.5866,-1.594,-1.5866,-1.5872,-1.5913,-1.5866,-1.5832,-1.5839,-1.5913,-1.594,-1.5961,-1.6035,-1.6083,-1.6275,-1.9396,-2.2079,-2.3942,-2.7019,-2.9545,-3.1099,-3.1597,-3.1664,-3.1677,-3.1677,-3.1677,-3.1677,-3.1677,-3.1677,-3.1664,-3.141,-3.1423,-3.1517,-3.1383,-3.145,-3.1597,-3.1637,-3.169,-3.1717,-3.1704,-3.1704,-3.169,-3.169,-3.1677,-3.1677,-3.1677,-3.1677,-3.1677,-3.1677,-3.1677,-3.1677,-3.1677,-3.1677,-3.1677,-3.1677,-3.1677,-3.1677,-3.1677,-3.177,-3.1984,-3.2104,-3.2118,-1.451,-1.4326,-1.4326,-1.4333,-1.4353,-1.4333,-1.4414,-1.4523,-1.4536,-1.4604,-1.4692,-1.4726,-1.4726,-1.476,-1.4767,-1.4848,-1.4991,-1.4991,-1.5059,-1.5673,-1.7188,-1.9578,-2.1413,-2.4525,-2.565,-2.6048,-2.8076,-2.7715,-2.6071,-2.5161,-2.3698,-2.1685,-2.0223,-1.9108,-1.8176,-1.7616,-1.6876,-1.6184,-1.627,-1.5997,-1.5725,-1.573,-1.5934,-1.6069,-1.6103,-1.611,-1.6123,-1.6117,-1.611,-1.6083,-1.6083,-1.6069,-1.6069,-1.6076,-1.6069,-1.6062,-1.6042,-1.6049,-1.6069,-1.6049,-1.6056,-1.6049,-1.6056,-1.6083,-1.6069,-1.6076,-1.6069,-1.6029,-2.055,-2.2848,-2.4917,-2.8496,-3.0923,-3.1597,-3.1704,-3.1757,-3.1744,-3.1717,-3.1677,-3.1677,-3.1677,-3.1677,-3.161,-3.149,-3.1383,-3.1597,-3.149,-3.1517,-3.165,-3.1757,-3.1784,-3.1797,-3.1784,-3.1744,-3.173,-3.1704,-3.169,-3.1677,-3.1677,-3.1677,-3.1677,-3.1677,-3.1677,-3.1677,-3.1677,-3.1677,-3.1677,-3.1677,-3.1677,-3.1677,-3.1677,-3.1837,-3.2011,-3.2078,-3.2118,-1.6354,-1.4647,-1.4468,-1.4536,-1.4618,-1.4523,-1.455,-1.4685,-1.4692,-1.4719,-1.474,-1.4746,-1.4821,-1.4923,-1.4923,-1.4997,-1.5113,-1.5126,-1.516,-1.5355,-1.5556,-1.6104,-1.7771,-2.1083,-2.3106,-2.3473,-2.3838,-2.3656,-2.2933,-2.2208,-2.1102,-2.0019,-1.8727,-1.7803,-1.7616,-1.7055,-1.6567,-1.6284,-1.6159,-1.6124,-1.5959,-1.5934,-1.6117,-1.6246,-1.6266,-1.6259,-1.6259,-1.6259,-1.6205,-1.6117,-1.609,-1.6096,-1.6083,-1.6083,-1.6083,-1.6083,-1.6083,-1.6083,-1.6083,-1.6083,-1.6083,-1.6083,-1.6083,-1.6083,-1.6083,-1.6083,-1.6022,-1.6546,-1.8914,-2.2535,-2.6521,-3.0122,-3.1719,-3.2118,-3.2225,-3.2318,-3.2278,-3.1957,-3.1757,-3.1717,-3.1717,-3.1677,-3.169,-3.169,-3.165,-3.1677,-3.1664,-3.1623,-3.173,-3.1877,-3.1917,-3.1944,-3.2011,-3.1971,-3.177,-3.173,-3.169,-3.1677,-3.1677,-3.1677,-3.1677,-3.1677,-3.1677,-3.1677,-3.1677,-3.1677,-3.1677,-3.1677,-3.1677,-3.1677,-3.169,-3.1851,-3.1984,-3.2051,-3.2104,-1.5948,-1.4993,-1.4624,-1.4665,-1.4719,-1.4658,-1.4706,-1.4828,-1.4848,-1.4889,-1.4936,-1.4943,-1.4997,-1.5065,-1.5072,-1.5113,-1.5167,-1.5181,-1.5181,-1.5181,-1.5181,-1.5181,-1.5368,-1.7584,-1.9613,-2.0714,-2.2188,-2.2004,-2.1093,-2.0363,-1.963,-1.8541,-1.7616,-1.7055,-1.6688,-1.6516,-1.6256,-1.6067,-1.5973,-1.5959,-1.6042,-1.6212,-1.6307,-1.6415,-1.6469,-1.649,-1.6415,-1.6408,-1.6368,-1.6293,-1.6225,-1.6151,-1.609,-1.6083,-1.6083,-1.6083,-1.6083,-1.6083,-1.6083,-1.6083,-1.6083,-1.6076,-1.6076,-1.6083,-1.6083,-1.6083,-1.6049,-1.6581,-1.8757,-2.2172,-2.7375,-3.042,-3.1978,-3.2358,-3.2478,-3.2545,-3.2492,-3.2265,-3.2078,-3.2078,-3.2118,-3.2104,-3.2078,-3.1944,-3.1931,-3.1957,-3.2104,-3.2064,-3.1971,-3.2091,-3.2118,-3.2171,-3.2265,-3.2185,-3.1904,-3.1757,-3.169,-3.1677,-3.1677,-3.1677,-3.1677,-3.1677,-3.1677,-3.1677,-3.1677,-3.1677,-3.1677,-3.1677,-3.1677,-3.1677,-3.1717,-3.1851,-3.1957,-3.2038,-3.2078,-1.4963,-1.5153,-1.4963,-1.4787,-1.4801,-1.4787,-1.4862,-1.4991,-1.5004,-1.5052,-1.516,-1.5181,-1.5147,-1.5174,-1.5167,-1.5181,-1.5181,-1.5181,-1.5181,-1.5181,-1.5181,-1.5208,-1.5403,-1.5946,-1.6688,-1.8532,-1.9807,-2.0168,-1.9436,-1.9074,-1.7997,-1.7093,-1.6726,-1.6401,-1.6017,-1.587,-1.5848,-1.5904,-1.6062,-1.6042,-1.63,-1.6463,-1.6551,-1.6632,-1.6653,-1.6659,-1.6578,-1.6551,-1.6537,-1.6517,-1.6429,-1.63,-1.6185,-1.609,-1.6083,-1.6083,-1.611,-1.6096,-1.6042,-1.6049,-1.6062,-1.6042,-1.6035,-1.6035,-1.6035,-1.6056,-1.6049,-1.7217,-1.8978,-2.2554,-2.6897,-3.0265,-3.1952,-3.2345,-3.2572,-3.2652,-3.2679,-3.2679,-3.2639,-3.2372,-3.2171,-3.2078,-3.2185,-3.2171,-3.2198,-3.2251,-3.2398,-3.2478,-3.2358,-3.2345,-3.2385,-3.2332,-3.2398,-3.2305,-3.2024,-3.1904,-3.1824,-3.1757,-3.1744,-3.1677,-3.1677,-3.1677,-3.1677,-3.1677,-3.1677,-3.1677,-3.1677,-3.1677,-3.1677,-3.1677,-3.1704,-3.1784,-3.1891,-3.2011,-3.2024,-1.5121,-1.5121,-1.4936,-1.4997,-1.5079,-1.4984,-1.5011,-1.5133,-1.5133,-1.5153,-1.5181,-1.5181,-1.5181,-1.5181,-1.5181,-1.5181,-1.5181,-1.5181,-1.5187,-1.5201,-1.5208,-1.5248,-1.5343,-1.5282,-1.5653,-1.587,-1.677,-1.6891,-1.6494,-1.5924,-1.6408,-1.592,-1.5751,-1.5609,-1.5732,-1.587,-1.5973,-1.5967,-1.613,-1.6307,-1.6497,-1.6639,-1.6761,-1.6836,-1.6809,-1.6754,-1.6727,-1.6707,-1.6653,-1.6544,-1.6625,-1.6571,-1.6429,-1.6232,-1.613,-1.6137,-1.6218,-1.6191,-1.6022,-1.6035,-1.594,-1.5818,-1.5852,-1.5913,-1.594,-1.6001,-1.6029,-1.7348,-2.0132,-2.4001,-2.5189,-2.964,-3.2419,-3.308,-3.3146,-3.32,-3.3213,-3.2921,-3.2695,-3.2465,-3.2171,-3.2078,-3.2345,-3.2478,-3.2438,-3.2465,-3.2559,-3.2625,-3.2559,-3.2625,-3.2746,-3.2639,-3.2519,-3.2345,-3.2118,-3.2078,-3.2011,-3.1917,-3.1851,-3.1677,-3.1677,-3.1677,-3.1677,-3.1677,-3.1677,-3.1677,-3.1677,-3.1677,-3.1677,-3.1677,-3.1677,-3.169,-3.177,-3.1864,-3.181,-1.5153,-1.5272,-1.5079,-1.512,-1.5167,-1.5113,-1.512,-1.5174,-1.5181,-1.5181,-1.5181,-1.5181,-1.5181,-1.5181,-1.5181,-1.5181,-1.5181,-1.5181,-1.5228,-1.5276,-1.5309,-1.5377,-1.5513,-1.5438,-1.5466,-1.5499,-1.5452,-1.5364,-1.5316,-1.5391,-1.5445,-1.5506,-1.5527,-1.5567,-1.5649,-1.5764,-1.5988,-1.6171,-1.6354,-1.6537,-1.6727,-1.6836,-1.6917,-1.6931,-1.6917,-1.6876,-1.687,-1.687,-1.6836,-1.6775,-1.6748,-1.6707,-1.6598,-1.6463,-1.6307,-1.6327,-1.6374,-1.6327,-1.613,-1.6157,-1.6096,-1.5927,-1.5934,-1.5967,-1.5988,-1.6035,-1.6042,-1.7181,-2.0676,-2.4197,-2.47,-2.9578,-3.2458,-3.3133,-3.3307,-3.32,-3.2973,-3.1841,-3.1746,-3.2208,-3.2509,-3.2563,-3.2812,-3.2853,-3.2719,-3.2706,-3.2746,-3.2759,-3.2759,-3.2893,-3.304,-3.2839,-3.2679,-3.2585,-3.2372,-3.2238,-3.2185,-3.2104,-3.1904,-3.173,-3.1677,-3.1677,-3.1677,-3.1677,-3.1677,-3.1677,-3.1677,-3.1677,-3.1677,-3.1677,-3.1677,-3.1677,-3.1677,-3.1677,-3.1677,-1.5296,-1.5181,-1.5181,-1.5181,-1.5181,-1.5181,-1.5181,-1.5181,-1.5181,-1.5181,-1.5181,-1.5181,-1.5181,-1.5181,-1.5181,-1.5181,-1.5187,-1.5208,-1.5303,-1.5384,-1.5445,-1.5533,-1.5642,-1.5655,-1.5642,-1.5669,-1.5669,-1.5601,-1.5499,-1.5547,-1.5635,-1.5676,-1.5683,-1.573,-1.5818,-1.5988,-1.6157,-1.6347,-1.6544,-1.6754,-1.6917,-1.6978,-1.6978,-1.6978,-1.6978,-1.6971,-1.6958,-1.6958,-1.6958,-1.6917,-1.687,-1.6795,-1.6775,-1.668,-1.6619,-1.6612,-1.6585,-1.6469,-1.6307,-1.6286,-1.6178,-1.5927,-1.6001,-1.6022,-1.6042,-1.6029,-1.6076,-1.7062,-2.0826,-2.4052,-2.5106,-2.8879,-3.1368,-3.2034,-3.2268,-3.2171,-3.1101,-3.0423,-3.0551,-3.1276,-3.2294,-3.2642,-3.2497,-3.2919,-3.2732,-3.2946,-3.2986,-3.3013,-3.304,-3.3173,-3.3227,-3.2986,-3.2853,-3.2826,-3.2666,-3.2425,-3.2358,-3.2278,-3.1971,-3.169,-3.1677,-3.1677,-3.1677,-3.1677,-3.1677,-3.1677,-3.1677,-3.1677,-3.1677,-3.1677,-3.1677,-3.1677,-3.1677,-3.1677,-3.1677,-1.5194,-1.5181,-1.5181,-1.5181,-1.5181,-1.5181,-1.5181,-1.5181,-1.5181,-1.5181,-1.5181,-1.5181,-1.5181,-1.5187,-1.5194,-1.5187,-1.5228,-1.533,-1.5411,-1.5479,-1.5567,-1.5689,-1.5791,-1.5689,-1.5757,-1.5811,-1.5832,-1.5744,-1.5676,-1.5669,-1.5723,-1.5805,-1.5866,-1.594,-1.6137,-1.6293,-1.653,-1.6686,-1.6829,-1.6931,-1.6971,-1.6978,-1.6978,-1.6978,-1.6978,-1.6978,-1.6978,-1.6978,-1.6978,-1.6978,-1.6965,-1.6951,-1.6951,-1.6944,-1.6931,-1.6883,-1.6775,-1.6551,-1.6259,-1.6246,-1.6164,-1.5913,-1.5866,-1.5879,-1.5947,-1.6029,-1.6083,-1.6282,-2.0896,-2.3641,-2.4436,-2.7281,-2.8966,-2.9534,-2.9653,-2.8483,-2.7443,-2.7421,-2.7953,-2.8583,-2.9069,-3.0788,-3.1662,-3.2287,-3.2759,-3.3026,-3.3227,-3.3041,-3.2868,-3.2546,-3.2559,-3.2138,-3.2749,-3.2906,-3.2759,-3.2545,-3.2385,-3.2358,-3.2024,-3.1677,-3.1677,-3.1677,-3.1677,-3.1677,-3.1677,-3.1677,-3.1677,-3.1677,-3.1677,-3.1677,-3.1677,-3.1677,-3.1677,-3.1677,-3.173,-1.5181,-1.5181,-1.5181,-1.5181,-1.5181,-1.5181,-1.5181,-1.5181,-1.5181,-1.5181,-1.5181,-1.5181,-1.5181,-1.5201,-1.5262,-1.5316,-1.5343,-1.5472,-1.5588,-1.5642,-1.5737,-1.5839,-1.594,-1.5927,-1.594,-1.5947,-1.5981,-1.5967,-1.5893,-1.5886,-1.5934,-1.5981,-1.6062,-1.6157,-1.6354,-1.6544,-1.6659,-1.6768,-1.6883,-1.6971,-1.6978,-1.6978,-1.6978,-1.6978,-1.6978,-1.6971,-1.6971,-1.6978,-1.6978,-1.6978,-1.6978,-1.6978,-1.6978,-1.6965,-1.6944,-1.6836,-1.6788,-1.6619,-1.6395,-1.6327,-1.6137,-1.5988,-1.594,-1.5995,-1.6001,-1.6042,-1.613,-1.6205,-1.9618,-2.194,-2.2935,-2.4931,-2.6084,-2.684,-2.7003,-2.6219,-2.5009,-2.4187,-2.4373,-2.5204,-2.6024,-2.7355,-2.8918,-2.9675,-3.0203,-3.1139,-3.1076,-3.0875,-3.0686,-3.0723,-3.0711,-3.0637,-3.1688,-3.2959,-3.2772,-3.2559,-3.2305,-3.2198,-3.1957,-3.169,-3.1677,-3.1677,-3.1677,-3.1677,-3.1677,-3.1677,-3.1677,-3.1677,-3.1677,-3.1677,-3.1677,-3.169,-3.173,-3.1904,-3.1984,-1.5181,-1.5181,-1.5181,-1.5181,-1.5181,-1.5181,-1.5181,-1.5181,-1.5181,-1.5181,-1.5181,-1.5187,-1.5201,-1.5255,-1.5357,-1.5418,-1.5479,-1.5628,-1.5744,-1.5832,-1.59,-1.5967,-1.6029,-1.6062,-1.6062,-1.6083,-1.6056,-1.6049,-1.6062,-1.6069,-1.6069,-1.6137,-1.6218,-1.6347,-1.6463,-1.6619,-1.6754,-1.6836,-1.6931,-1.6978,-1.6971,-1.6931,-1.6944,-1.6951,-1.6951,-1.6924,-1.6924,-1.6971,-1.6978,-1.691,-1.6965,-1.6978,-1.6978,-1.6924,-1.687,-1.6761,-1.668,-1.6558,-1.6422,-1.6341,-1.6232,-1.6137,-1.6083,-1.6062,-1.6076,-1.6103,-1.6164,-1.6286,-1.9009,-2.0292,-2.1009,-2.2812,-2.3546,-2.4041,-2.4109,-2.3736,-2.3362,-2.2545,-2.2338,-2.2958,-2.3568,-2.3362,-2.4754,-2.6208,-2.7443,-2.889,-2.9116,-2.8698,-2.8913,-2.9116,-3.0117,-3.0686,-3.1829,-3.3106,-3.2959,-3.2706,-3.2398,-3.2064,-3.1837,-3.1704,-3.1677,-3.1677,-3.1677,-3.1677,-3.1677,-3.1677,-3.1677,-3.1677,-3.1677,-3.1677,-3.169,-3.1744,-3.1837,-3.2038,-3.2225,-1.5181,-1.5181,-1.5181,-1.5181,-1.5181,-1.5181,-1.5181,-1.5181,-1.5181,-1.5187,-1.5201,-1.5208,-1.5296,-1.5384,-1.5445,-1.5527,-1.5628,-1.5771,-1.5845,-1.5913,-1.5988,-1.6049,-1.6083,-1.6083,-1.6083,-1.6083,-1.6083,-1.6083,-1.609,-1.6117,-1.6178,-1.6279,-1.6334,-1.649,-1.6625,-1.6734,-1.6842,-1.6904,-1.6971,-1.6978,-1.6937,-1.6883,-1.6849,-1.6924,-1.6856,-1.6768,-1.6775,-1.689,-1.689,-1.6781,-1.6883,-1.6944,-1.6924,-1.6856,-1.6781,-1.6693,-1.6517,-1.6402,-1.632,-1.6293,-1.6232,-1.613,-1.6083,-1.6083,-1.6083,-1.6212,-1.6286,-1.6536,-1.8495,-1.989,-2.0414,-2.1148,-2.1225,-2.1251,-2.1061,-2.0671,-2.0488,-2.0895,-2.0696,-2.1103,-2.1103,-2.0903,-2.0895,-2.2338,-2.4598,-2.6035,-2.624,-2.583,-2.7884,-2.8495,-3.0343,-3.134,-3.2546,-3.328,-3.324,-3.2906,-3.2358,-3.2064,-3.1851,-3.1744,-3.1677,-3.1677,-3.1677,-3.1677,-3.1677,-3.1677,-3.1677,-3.1677,-3.1677,-3.1677,-3.173,-3.1891,-3.2118,-3.2372,-3.2505,-1.5181,-1.5181,-1.5181,-1.5181,-1.5181,-1.5181,-1.5181,-1.5181,-1.5181,-1.5242,-1.5323,-1.5418,-1.5493,-1.556,-1.5655,-1.571,-1.5791,-1.5927,-1.5974,-1.6008,-1.6056,-1.6076,-1.6083,-1.6083,-1.6083,-1.6083,-1.6083,-1.6083,-1.6083,-1.6144,-1.63,-1.6395,-1.6422,-1.6558,-1.6707,-1.6836,-1.6917,-1.6944,-1.6978,-1.6978,-1.6944,-1.6842,-1.6822,-1.6951,-1.6829,-1.6761,-1.6761,-1.6802,-1.6741,-1.6693,-1.6768,-1.6822,-1.6842,-1.6768,-1.6693,-1.6612,-1.6408,-1.6279,-1.6191,-1.6178,-1.6137,-1.6117,-1.6083,-1.609,-1.6096,-1.6157,-1.6286,-1.68,-1.7559,-1.8534,-1.8529,-1.8589,-1.8626,-1.8634,-1.8424,-1.8013,-1.8222,-1.8835,-1.9044,-1.9462,-1.8843,-1.8432,-1.8424,-1.8634,-2.1103,-2.3156,-2.3156,-2.3568,-2.583,-2.768,-2.9319,-3.1529,-3.2733,-3.3133,-3.3053,-3.2679,-3.2251,-3.2051,-3.1864,-3.1757,-3.1677,-3.1677,-3.1677,-3.1677,-3.1677,-3.169,-3.169,-3.1677,-3.169,-3.173,-3.1917,-3.2158,-3.2412,-3.2679,-3.2812,-1.5181,-1.5187,-1.5228,-1.5248,-1.5248,-1.5248,-1.5276,-1.5316,-1.5323,-1.5371,-1.5486,-1.5594,-1.5669,-1.5723,-1.5791,-1.5886,-1.5934,-1.6022,-1.6062,-1.6076,-1.6076,-1.6083,-1.6083,-1.6083,-1.6083,-1.6083,-1.6083,-1.6083,-1.6083,-1.6191,-1.6293,-1.6402,-1.6517,-1.6625,-1.6815,-1.691,-1.6965,-1.6924,-1.6965,-1.6937,-1.6904,-1.6815,-1.6775,-1.6883,-1.6795,-1.6714,-1.67,-1.6714,-1.6646,-1.6578,-1.6592,-1.67,-1.6707,-1.6666,-1.6592,-1.6483,-1.6347,-1.6198,-1.6117,-1.6083,-1.611,-1.6157,-1.6164,-1.6157,-1.6157,-1.6218,-1.6442,-1.6483,-1.6598,-1.6748,-1.6978,-1.7391,-1.7391,-1.7811,-1.7601,-1.7391,-1.7391,-1.7601,-1.7601,-1.7601,-1.7188,-1.7398,-1.7391,-1.7601,-1.8634,-2.0687,-2.1717,-2.2743,-2.5009,-2.6649,-2.8088,-3.0295,-3.2494,-3.2841,-3.2759,-3.2337,-3.1917,-3.2064,-3.1877,-3.1744,-3.1677,-3.1664,-3.1664,-3.1677,-3.169,-3.1717,-3.1784,-3.1851,-3.1851,-3.1824,-3.2131,-3.2505,-3.2679,-3.2946,-3.312,-1.5194,-1.5201,-1.5343,-1.5411,-1.5418,-1.5404,-1.5479,-1.5574,-1.5601,-1.5622,-1.5635,-1.5669,-1.5744,-1.5832,-1.5886,-1.5947,-1.6029,-1.6069,-1.6083,-1.6083,-1.6083,-1.6083,-1.6083,-1.6083,-1.6083,-1.6083,-1.6083,-1.6083,-1.6083,-1.6151,-1.6232,-1.6354,-1.6503,-1.6673,-1.6937,-1.6971,-1.6897,-1.6802,-1.691,-1.687,-1.6836,-1.6781,-1.6775,-1.6809,-1.6741,-1.6659,-1.6612,-1.6619,-1.6537,-1.6381,-1.6456,-1.6564,-1.6653,-1.6476,-1.6422,-1.6476,-1.6239,-1.611,-1.609,-1.609,-1.6178,-1.6286,-1.63,-1.63,-1.6361,-1.649,-1.6612,-1.6592,-1.6734,-1.689,-1.6971,-1.6978,-1.6978,-1.6978,-1.6978,-1.6978,-1.6978,-1.6978,-1.6978,-1.6978,-1.6978,-1.6978,-1.6978,-1.6978,-1.7188,-1.8215,-1.9871,-2.1717,-2.3981,-2.5009,-2.6035,-2.802,-3.0399,-3.0366,-3.033,-3.1385,-3.1776,-3.1912,-3.1277,-3.0331,-3.0458,-3.0635,-3.0838,-3.146,-3.1744,-3.1824,-3.1957,-3.2078,-3.2131,-3.2225,-3.2559,-3.2879,-3.304,-3.316,-3.3293,-1.5486,-1.5493,-1.554,-1.5615,-1.5683,-1.5601,-1.5594,-1.5649,-1.573,-1.5784,-1.5805,-1.5879,-1.5947,-1.5995,-1.6001,-1.6029,-1.6069,-1.6083,-1.6083,-1.6083,-1.6083,-1.6083,-1.6083,-1.6083,-1.6083,-1.6083,-1.6083,-1.6083,-1.6083,-1.6144,-1.6232,-1.6347,-1.6537,-1.6714,-1.6802,-1.6829,-1.6788,-1.6761,-1.6809,-1.6836,-1.6883,-1.6815,-1.6795,-1.687,-1.6707,-1.6592,-1.651,-1.6524,-1.6381,-1.6225,-1.6313,-1.6415,-1.6476,-1.6313,-1.6341,-1.6354,-1.6185,-1.6144,-1.6225,-1.6307,-1.6388,-1.6442,-1.6456,-1.6449,-1.6483,-1.6524,-1.6598,-1.6673,-1.6775,-1.6897,-1.6951,-1.6971,-1.6978,-1.6978,-1.6978,-1.6978,-1.6978,-1.6978,-1.6978,-1.6978,-1.6978,-1.6978,-1.6978,-1.6978,-1.6978,-1.6978,-1.8424,-2.0071,-2.2131,-2.2545,-2.3362,-2.5144,-2.6884,-2.7091,-2.7502,-2.8497,-2.8445,-2.798,-2.7623,-2.693,-2.7663,-2.9024,-3.0255,-3.07,-3.1416,-3.1944,-3.2051,-3.2198,-3.2478,-3.2706,-3.2893,-3.3013,-3.308,-3.32,-3.3347,-1.5635,-1.5642,-1.5696,-1.5764,-1.5832,-1.575,-1.5737,-1.5798,-1.5893,-1.5934,-1.5954,-1.6042,-1.6076,-1.6076,-1.6083,-1.6083,-1.6083,-1.6083,-1.6083,-1.6083,-1.6083,-1.6083,-1.6083,-1.6083,-1.6083,-1.6083,-1.6083,-1.6083,-1.6083,-1.6178,-1.6252,-1.6361,-1.6592,-1.6673,-1.6727,-1.6754,-1.6815,-1.6802,-1.6815,-1.6856,-1.687,-1.6849,-1.6822,-1.6775,-1.6673,-1.6558,-1.6456,-1.6347,-1.6239,-1.6164,-1.6171,-1.6259,-1.6279,-1.6266,-1.6293,-1.63,-1.632,-1.632,-1.6456,-1.6524,-1.6612,-1.6686,-1.6639,-1.6605,-1.6619,-1.6686,-1.6707,-1.6754,-1.6795,-1.687,-1.6958,-1.6978,-1.6978,-1.6978,-1.6978,-1.6978,-1.6978,-1.6978,-1.6978,-1.6978,-1.6978,-1.6978,-1.6978,-1.6978,-1.6978,-1.6978,-1.7188,-1.8835,-2.0271,-2.0671,-2.1466,-2.3231,-2.4748,-2.5152,-2.5346,-2.5543,-2.5124,-2.4105,-2.4034,-2.4176,-2.5698,-2.7459,-2.8691,-3.0128,-3.0994,-3.1699,-3.2091,-3.2291,-3.2545,-3.2759,-3.2919,-3.3026,-3.3106,-3.324,-3.34,-1.5655,-1.5676,-1.5798,-1.5859,-1.5859,-1.5866,-1.594,-1.6069,-1.6069,-1.6069,-1.6076,-1.6069,-1.6083,-1.6083,-1.6083,-1.6083,-1.6083,-1.6083,-1.6083,-1.6083,-1.6083,-1.6083,-1.6083,-1.6083,-1.6083,-1.6083,-1.6083,-1.6096,-1.6096,-1.6157,-1.6232,-1.6341,-1.6571,-1.6639,-1.6686,-1.6795,-1.6849,-1.6815,-1.6829,-1.6856,-1.6863,-1.6883,-1.6795,-1.6707,-1.6612,-1.651,-1.6402,-1.6279,-1.6198,-1.613,-1.6096,-1.6178,-1.6198,-1.6164,-1.63,-1.6435,-1.6517,-1.6646,-1.67,-1.6748,-1.6802,-1.6856,-1.6788,-1.6761,-1.6781,-1.6836,-1.6842,-1.6849,-1.6876,-1.6924,-1.6978,-1.6978,-1.6978,-1.6978,-1.6978,-1.6978,-1.6978,-1.6978,-1.6978,-1.6978,-1.6978,-1.6978,-1.6978,-1.6978,-1.6978,-1.6978,-1.7188,-1.7804,-1.9238,-1.9592,-2.0364,-2.1883,-2.2978,-2.3614,-2.342,-2.2444,-2.1919,-2.0969,-2.1735,-2.2088,-2.4003,-2.5346,-2.6806,-2.8224,-3.0357,-3.1495,-3.2305,-3.2492,-3.2599,-3.2799,-3.3013,-3.3,-3.3053,-3.3267,-3.3414,-1.5954,-1.5961,-1.5995,-1.6015,-1.6015,-1.6015,-1.6042,-1.6083,-1.6083,-1.6083,-1.6083,-1.6083,-1.6083,-1.6083,-1.6083,-1.6083,-1.6083,-1.6083,-1.6083,-1.6083,-1.6096,-1.6083,-1.6083,-1.609,-1.6083,-1.6083,-1.609,-1.6123,-1.6218,-1.6232,-1.6246,-1.6347,-1.653,-1.6605,-1.6734,-1.6883,-1.6849,-1.6822,-1.6842,-1.6849,-1.6842,-1.6856,-1.6748,-1.6666,-1.6503,-1.6408,-1.6334,-1.6218,-1.6144,-1.6117,-1.609,-1.613,-1.6123,-1.6212,-1.6381,-1.6666,-1.6836,-1.6992,-1.6931,-1.691,-1.6937,-1.6944,-1.6856,-1.6849,-1.6883,-1.6937,-1.6951,-1.6937,-1.6931,-1.6965,-1.6978,-1.6978,-1.6978,-1.6978,-1.6978,-1.6978,-1.6978,-1.6978,-1.6978,-1.6978,-1.6978,-1.6978,-1.6978,-1.6978,-1.6978,-1.6978,-1.7188,-1.7804,-1.7999,-1.8567,-1.8854,-2.0176,-2.0443,-2.0696,-1.9532,-1.839,-1.8313,-1.8244,-1.9018,-1.9987,-2.0951,-2.2516,-2.4341,-2.6897,-2.9808,-3.1579,-3.2719,-3.2536,-3.1699,-3.2722,-3.2948,-3.3066,-3.304,-3.2841,-3.2812,-1.6083,-1.6083,-1.6083,-1.6083,-1.6083,-1.6083,-1.6083,-1.6083,-1.6083,-1.6083,-1.6083,-1.6083,-1.6083,-1.6083,-1.6083,-1.6083,-1.6083,-1.6083,-1.6083,-1.609,-1.613,-1.6123,-1.6117,-1.6123,-1.613,-1.611,-1.609,-1.6117,-1.6225,-1.6293,-1.6313,-1.6334,-1.6497,-1.6639,-1.6768,-1.6883,-1.6924,-1.6883,-1.6856,-1.6863,-1.6836,-1.6788,-1.6714,-1.6571,-1.6374,-1.6334,-1.6307,-1.6198,-1.6205,-1.6239,-1.6259,-1.6259,-1.6313,-1.6456,-1.6605,-1.6883,-1.7093,-1.7141,-1.7093,-1.7066,-1.7039,-1.6992,-1.6937,-1.6958,-1.6944,-1.6965,-1.6971,-1.6971,-1.6971,-1.6978,-1.6978,-1.6978,-1.6978,-1.6978,-1.6978,-1.6978,-1.6978,-1.6978,-1.6978,-1.6978,-1.6978,-1.6978,-1.6978,-1.6978,-1.6978,-1.6978,-1.6978,-1.7188,-1.7384,-1.7566,-1.7404,-1.8063,-1.7734,-1.7198,-1.6273,-1.6171,-1.6515,-1.6871,-1.7062,-1.7848,-1.8441,-2.0389,-2.3121,-2.6476,-3.0038,-3.1231,-3.2208,-3.1035,-3.0323,-3.1565,-3.1701,-3.059,-3.0602,-3.119,-3.1151,-1.6083,-1.6083,-1.6083,-1.6083,-1.6083,-1.6083,-1.6083,-1.6083,-1.6083,-1.6083,-1.6083,-1.6083,-1.6083,-1.6083,-1.6083,-1.6083,-1.6083,-1.6083,-1.6083,-1.6083,-1.6171,-1.6171,-1.6144,-1.6198,-1.6151,-1.6103,-1.6083,-1.6096,-1.613,-1.6218,-1.6313,-1.6334,-1.6558,-1.67,-1.6761,-1.6904,-1.6937,-1.6883,-1.687,-1.6863,-1.6768,-1.67,-1.6605,-1.6408,-1.6334,-1.6313,-1.6334,-1.6347,-1.6388,-1.6469,-1.651,-1.649,-1.6605,-1.6788,-1.6937,-1.708,-1.7283,-1.727,-1.7195,-1.7127,-1.7066,-1.7053,-1.7087,-1.7066,-1.7039,-1.7039,-1.7046,-1.6985,-1.6978,-1.6978,-1.6978,-1.6931,-1.691,-1.6924,-1.6937,-1.6958,-1.6978,-1.6978,-1.6978,-1.6978,-1.6978,-1.6978,-1.6978,-1.6978,-1.6978,-1.6978,-1.6978,-1.6978,-1.6971,-1.6958,-1.6829,-1.6632,-1.6469,-1.6361,-1.6252,-1.6157,-1.611,-1.6282,-1.6083,-1.6275,-1.7261,-1.9388,-2.2079,-2.5636,-2.9029,-3.0613,-3.1231,-3.0328,-3.0041,-3.0515,-3.0142,-2.7883,-2.775,-2.8491,-2.8669,-1.6083,-1.6083,-1.6083,-1.6083,-1.6083,-1.6083,-1.6083,-1.6083,-1.6083,-1.6083,-1.6083,-1.6083,-1.6083,-1.6083,-1.6083,-1.6083,-1.6083,-1.6083,-1.6083,-1.609,-1.6151,-1.6164,-1.6103,-1.6151,-1.6123,-1.6096,-1.6083,-1.6083,-1.611,-1.6212,-1.6313,-1.6334,-1.6524,-1.6632,-1.6754,-1.6897,-1.6917,-1.6842,-1.6802,-1.6802,-1.6754,-1.6551,-1.6381,-1.6381,-1.6402,-1.6402,-1.6422,-1.6476,-1.649,-1.6517,-1.6517,-1.6578,-1.67,-1.6985,-1.7114,-1.7195,-1.7399,-1.7378,-1.727,-1.7148,-1.7066,-1.7026,-1.7039,-1.7087,-1.7114,-1.7127,-1.71,-1.7026,-1.6958,-1.6958,-1.6937,-1.6876,-1.6842,-1.687,-1.6904,-1.6937,-1.6971,-1.6978,-1.6978,-1.6978,-1.6978,-1.6978,-1.6978,-1.6978,-1.6978,-1.6978,-1.6978,-1.6978,-1.6978,-1.6965,-1.6904,-1.6714,-1.6469,-1.6334,-1.6246,-1.6185,-1.6151,-1.6103,-1.6096,-1.609,-1.6083,-1.9191,-2.2293,-2.483,-2.7634,-2.8777,-2.9841,-3.0754,-3.0379,-2.9602,-2.7724,-2.5271,-2.4971,-2.5499,-2.5385,-1.6083,-1.6083,-1.6083,-1.6083,-1.6083,-1.6083,-1.6083,-1.6083,-1.6083,-1.6083,-1.6083,-1.6083,-1.6083,-1.6083,-1.6083,-1.6083,-1.6083,-1.6083,-1.6083,-1.609,-1.613,-1.6137,-1.613,-1.613,-1.6123,-1.611,-1.609,-1.609,-1.6103,-1.6151,-1.6232,-1.6381,-1.6503,-1.6605,-1.6748,-1.6836,-1.6856,-1.6754,-1.67,-1.67,-1.672,-1.6551,-1.6435,-1.6469,-1.6476,-1.649,-1.6571,-1.6632,-1.6673,-1.67,-1.6741,-1.6768,-1.6883,-1.706,-1.7209,-1.7304,-1.7412,-1.7473,-1.7311,-1.7188,-1.708,-1.7032,-1.7141,-1.7249,-1.7073,-1.708,-1.71,-1.7012,-1.6768,-1.6727,-1.6754,-1.672,-1.6768,-1.6809,-1.689,-1.6958,-1.6971,-1.6978,-1.6978,-1.6978,-1.6978,-1.6978,-1.6978,-1.6978,-1.6978,-1.6978,-1.6978,-1.6978,-1.6978,-1.6978,-1.6917,-1.6836,-1.6605,-1.6456,-1.6402,-1.6313,-1.6218,-1.6178,-1.611,-1.6096,-1.6481,-1.9593,-2.2507,-2.39,-2.5087,-2.6294,-2.75,-2.8114,-2.7833,-2.6562,-2.4666,-2.2487,-2.2599,-2.248,-2.1608,-1.6083,-1.6083,-1.6083,-1.6083,-1.6083,-1.6083,-1.6083,-1.6083,-1.6083,-1.6083,-1.6083,-1.6083,-1.6083,-1.6083,-1.6083,-1.6083,-1.6083,-1.6083,-1.6083,-1.611,-1.6198,-1.6151,-1.6151,-1.6185,-1.6144,-1.613,-1.6123,-1.6096,-1.609,-1.6185,-1.6334,-1.6497,-1.6571,-1.6632,-1.6734,-1.6781,-1.6795,-1.6741,-1.6693,-1.6659,-1.6639,-1.6612,-1.6558,-1.6537,-1.6564,-1.6632,-1.6727,-1.6802,-1.6863,-1.6897,-1.6931,-1.6931,-1.6978,-1.71,-1.7175,-1.7283,-1.7331,-1.7351,-1.7304,-1.7256,-1.7141,-1.7114,-1.7297,-1.7283,-1.7093,-1.7039,-1.706,-1.6917,-1.6673,-1.6571,-1.6598,-1.6625,-1.6686,-1.6788,-1.6883,-1.6965,-1.6971,-1.6978,-1.6978,-1.6978,-1.6978,-1.6978,-1.6978,-1.6978,-1.6978,-1.6978,-1.6978,-1.6978,-1.6978,-1.6978,-1.6951,-1.6917,-1.6802,-1.668,-1.6544,-1.6402,-1.6279,-1.6178,-1.6117,-1.611,-1.6885,-1.9224,-2.079,-2.1022,-2.221,-2.4166,-2.3991,-2.4032,-2.375,-2.3641,-2.2623,-2.1072,-2.0699,-2.0184,-1.8045,-1.6083,-1.6083,-1.6083,-1.6083,-1.6083,-1.6083,-1.6083,-1.6083,-1.6083,-1.6083,-1.6083,-1.6083,-1.6083,-1.6083,-1.6083,-1.6083,-1.6083,-1.6083,-1.6083,-1.6103,-1.6164,-1.6123,-1.613,-1.6212,-1.6123,-1.6157,-1.6218,-1.6198,-1.6273,-1.6381,-1.6463,-1.6564,-1.668,-1.6775,-1.6897,-1.6904,-1.6842,-1.6768,-1.6734,-1.672,-1.67,-1.6673,-1.6632,-1.6646,-1.6707,-1.6809,-1.689,-1.6931,-1.6951,-1.6971,-1.6978,-1.6978,-1.7019,-1.7087,-1.7148,-1.7175,-1.7216,-1.7202,-1.7188,-1.7175,-1.706,-1.7032,-1.7168,-1.7236,-1.7087,-1.7005,-1.6958,-1.6822,-1.6639,-1.6558,-1.6564,-1.6558,-1.6605,-1.6768,-1.689,-1.6944,-1.6978,-1.6978,-1.6978,-1.6978,-1.6978,-1.6978,-1.6978,-1.6978,-1.6978,-1.6978,-1.6978,-1.6978,-1.6978,-1.6978,-1.6978,-1.6958,-1.6931,-1.6761,-1.6571,-1.6435,-1.6307,-1.6205,-1.613,-1.6144,-1.6921,-1.8663,-1.9643,-1.947,-2.0655,-2.2612,-2.206,-2.0707,-2.1129,-2.1362,-2.0869,-2.0054,-1.9297,-1.8398,-1.6933]}]]